Wetterdaten: Mittwoch, 13.09.2017
Datum Zeit Temp. A. Pool Temp. Feuchte A. Luftdruck Regen Wind Richtung Richtung Sonnenschein ET UV Solar Taupunkt Windchill Windben Empfang
13.09.2017 00:00 11,7 C 17,2 C 82 % 1015,1 hPa 0,0 l/m 12,1 km/h (2 Bft) S-SW 200 0 min 0,000 mm 0,0 UV-I 0 W/m 8,7 C 8,4 C 19,3 km/h (3 Bft) 97,73 %
13.09.2017 00:02 11,7 C 17,2 C 82 % 1015,1 hPa 0,0 l/m 13,5 km/h (3 Bft) S-SW 212 0 min 0,000 mm 0,0 UV-I 0 W/m 8,7 C 7,8 C 17,7 km/h (3 Bft) 95,45 %
13.09.2017 00:04 11,7 C 17,2 C 82 % 1015,1 hPa 0,0 l/m 13,1 km/h (3 Bft) SW 227 0 min 0,000 mm 0,0 UV-I 0 W/m 8,7 C 8,0 C 24,1 km/h (4 Bft) 97,73 %
13.09.2017 00:06 11,7 C 17,2 C 82 % 1015,2 hPa 0,0 l/m 15,2 km/h (3 Bft) W-SW 242 0 min 0,000 mm 0,0 UV-I 0 W/m 8,7 C 7,1 C 24,1 km/h (4 Bft) 96,23 %
13.09.2017 00:08 11,7 C 17,2 C 82 % 1015,2 hPa 0,0 l/m 14,5 km/h (3 Bft) W-SW 240 0 min 0,000 mm 0,0 UV-I 0 W/m 8,7 C 7,4 C 22,5 km/h (4 Bft) 100,00 %
13.09.2017 00:10 11,7 C 17,2 C 82 % 1015,3 hPa 0,0 l/m 16,3 km/h (3 Bft) SW 228 0 min 0,000 mm 0,0 UV-I 0 W/m 8,7 C 6,7 C 22,5 km/h (4 Bft) 92,00 %
13.09.2017 00:12 11,7 C 17,2 C 82 % 1015,3 hPa 0,0 l/m 15,1 km/h (3 Bft) SW 235 0 min 0,000 mm 0,0 UV-I 0 W/m 8,7 C 7,2 C 20,9 km/h (4 Bft) 98,00 %
13.09.2017 00:14 11,7 C 17,2 C 82 % 1015,3 hPa 0,0 l/m 13,0 km/h (3 Bft) SW 215 0 min 0,000 mm 0,0 UV-I 0 W/m 8,7 C 8,0 C 20,9 km/h (4 Bft) 97,56 %
13.09.2017 00:16 11,8 C 17,2 C 82 % 1015,3 hPa 0,0 l/m 14,6 km/h (3 Bft) SW 233 0 min 0,000 mm 0,0 UV-I 0 W/m 8,8 C 7,5 C 20,9 km/h (4 Bft) 98,11 %
13.09.2017 00:18 11,8 C 17,2 C 82 % 1015,3 hPa 0,0 l/m 14,3 km/h (3 Bft) SW 236 0 min 0,000 mm 0,0 UV-I 0 W/m 8,8 C 7,6 C 20,9 km/h (4 Bft) 95,12 %
13.09.2017 00:20 11,8 C 17,2 C 81 % 1015,3 hPa 0,0 l/m 15,6 km/h (3 Bft) SW 221 0 min 0,000 mm 0,0 UV-I 0 W/m 8,6 C 7,1 C 22,5 km/h (4 Bft) 96,23 %
13.09.2017 00:22 11,9 C 17,2 C 81 % 1015,3 hPa 0,0 l/m 14,5 km/h (3 Bft) W-SW 254 0 min 0,000 mm 0,0 UV-I 0 W/m 8,7 C 7,6 C 20,9 km/h (4 Bft) 92,86 %
13.09.2017 00:24 11,9 C 17,2 C 81 % 1015,3 hPa 0,0 l/m 13,8 km/h (3 Bft) W 269 0 min 0,000 mm 0,0 UV-I 0 W/m 8,7 C 7,9 C 22,5 km/h (4 Bft) 97,37 %
13.09.2017 00:26 11,9 C 17,2 C 81 % 1015,2 hPa 0,0 l/m 14,5 km/h (3 Bft) SW 225 0 min 0,000 mm 0,0 UV-I 0 W/m 8,7 C 7,6 C 27,4 km/h (4 Bft) 98,36 %
13.09.2017 00:28 11,9 C 17,2 C 81 % 1015,2 hPa 0,0 l/m 12,9 km/h (3 Bft) SW 229 0 min 0,000 mm 0,0 UV-I 0 W/m 8,7 C 8,3 C 17,7 km/h (3 Bft) 94,00 %
13.09.2017 00:30 12,0 C 17,2 C 81 % 1015,2 hPa 0,0 l/m 13,0 km/h (3 Bft) W-SW 244 0 min 0,000 mm 0,0 UV-I 0 W/m 8,8 C 8,4 C 20,9 km/h (4 Bft) 97,62 %
13.09.2017 00:32 12,0 C 17,2 C 81 % 1015,2 hPa 0,0 l/m 15,5 km/h (3 Bft) W 259 0 min 0,000 mm 0,0 UV-I 0 W/m 8,8 C 7,4 C 20,9 km/h (4 Bft) 97,56 %
13.09.2017 00:34 12,1 C 17,2 C 80 % 1015,2 hPa 0,0 l/m 17,8 km/h (3 Bft) SW 223 0 min 0,000 mm 0,0 UV-I 0 W/m 8,8 C 6,7 C 27,4 km/h (4 Bft) 96,23 %
13.09.2017 00:36 12,1 C 17,2 C 80 % 1015,2 hPa 0,0 l/m 11,3 km/h (2 Bft) SW 225 0 min 0,000 mm 0,0 UV-I 0 W/m 8,8 C 9,3 C 17,7 km/h (3 Bft) 95,12 %
13.09.2017 00:38 12,1 C 17,2 C 80 % 1015,1 hPa 0,0 l/m 14,5 km/h (3 Bft) W-SW 246 0 min 0,000 mm 0,0 UV-I 0 W/m 8,8 C 7,9 C 22,5 km/h (4 Bft) 100,00 %
13.09.2017 00:40 12,1 C 17,2 C 80 % 1015,1 hPa 0,0 l/m 13,3 km/h (3 Bft) W 267 0 min 0,000 mm 0,0 UV-I 0 W/m 8,8 C 8,4 C 19,3 km/h (3 Bft) 100,00 %
13.09.2017 00:42 12,1 C 17,2 C 80 % 1015,1 hPa 0,0 l/m 13,6 km/h (3 Bft) SW 228 0 min 0,000 mm 0,0 UV-I 0 W/m 8,8 C 8,2 C 19,3 km/h (3 Bft) 100,00 %
13.09.2017 00:44 12,1 C 17,2 C 80 % 1015,2 hPa 0,0 l/m 16,4 km/h (3 Bft) W-SW 256 0 min 0,000 mm 0,0 UV-I 0 W/m 8,8 C 7,2 C 25,7 km/h (4 Bft) 100,00 %
13.09.2017 00:46 12,1 C 17,2 C 80 % 1015,2 hPa 0,0 l/m 16,6 km/h (3 Bft) W-SW 256 0 min 0,000 mm 0,0 UV-I 0 W/m 8,8 C 7,1 C 24,1 km/h (4 Bft) 100,00 %
13.09.2017 00:48 12,1 C 17,2 C 80 % 1015,1 hPa 0,0 l/m 16,1 km/h (3 Bft) W-SW 240 0 min 0,000 mm 0,0 UV-I 0 W/m 8,8 C 7,3 C 25,7 km/h (4 Bft) 97,37 %
13.09.2017 00:50 12,0 C 17,2 C 80 % 1015,1 hPa 0,0 l/m 15,7 km/h (3 Bft) SW 220 0 min 0,000 mm 0,0 UV-I 0 W/m 8,7 C 7,3 C 22,5 km/h (4 Bft) 100,00 %
13.09.2017 00:52 12,0 C 17,2 C 80 % 1015,1 hPa 0,0 l/m 14,6 km/h (3 Bft) W-SW 242 0 min 0,000 mm 0,0 UV-I 0 W/m 8,7 C 7,7 C 22,5 km/h (4 Bft) 93,62 %
13.09.2017 00:54 12,0 C 17,2 C 80 % 1015,1 hPa 0,0 l/m 16,0 km/h (3 Bft) SW 235 0 min 0,000 mm 0,0 UV-I 0 W/m 8,7 C 7,2 C 20,9 km/h (4 Bft) 97,87 %
13.09.2017 00:56 12,0 C 17,2 C 80 % 1015,1 hPa 0,0 l/m 12,8 km/h (3 Bft) W-SW 255 0 min 0,000 mm 0,0 UV-I 0 W/m 8,7 C 8,5 C 22,5 km/h (4 Bft) 97,56 %
13.09.2017 00:58 12,0 C 17,2 C 80 % 1015,1 hPa 0,0 l/m 14,8 km/h (3 Bft) SW 224 0 min 0,000 mm 0,0 UV-I 0 W/m 8,7 C 7,6 C 24,1 km/h (4 Bft) 98,11 %
13.09.2017 01:00 11,9 C 17,2 C 80 % 1015,1 hPa 0,0 l/m 15,3 km/h (3 Bft) W-SW 244 0 min 0,000 mm 0,0 UV-I 0 W/m 8,6 C 7,3 C 22,5 km/h (4 Bft) 97,56 %
13.09.2017 01:02 11,9 C 17,2 C 80 % 1015,0 hPa 0,0 l/m 15,8 km/h (3 Bft) SW 219 0 min 0,025 mm 0,0 UV-I 0 W/m 8,6 C 7,1 C 25,7 km/h (4 Bft) 98,21 %
13.09.2017 01:04 11,9 C 17,2 C 80 % 1015,0 hPa 0,0 l/m 12,3 km/h (3 Bft) SW 233 0 min 0,000 mm 0,0 UV-I 0 W/m 8,6 C 8,6 C 22,5 km/h (4 Bft) 97,73 %
13.09.2017 01:06 11,9 C 17,2 C 80 % 1015,1 hPa 0,0 l/m 15,0 km/h (3 Bft) SW 223 0 min 0,000 mm 0,0 UV-I 0 W/m 8,6 C 7,4 C 22,5 km/h (4 Bft) 94,87 %
13.09.2017 01:08 11,9 C 17,2 C 80 % 1015,1 hPa 0,0 l/m 15,2 km/h (3 Bft) W-SW 248 0 min 0,000 mm 0,0 UV-I 0 W/m 8,6 C 7,4 C 25,7 km/h (4 Bft) 97,73 %
13.09.2017 01:10 12,0 C 17,2 C 80 % 1015,1 hPa 0,0 l/m 17,7 km/h (3 Bft) W-SW 251 0 min 0,000 mm 0,0 UV-I 0 W/m 8,7 C 6,6 C 25,7 km/h (4 Bft) 96,23 %
13.09.2017 01:12 12,0 C 17,2 C 80 % 1015,2 hPa 0,0 l/m 13,1 km/h (3 Bft) SW 234 0 min 0,000 mm 0,0 UV-I 0 W/m 8,7 C 8,3 C 22,5 km/h (4 Bft) 97,73 %
13.09.2017 01:14 12,0 C 17,2 C 80 % 1015,2 hPa 0,0 l/m 15,2 km/h (3 Bft) W-SW 258 0 min 0,000 mm 0,0 UV-I 0 W/m 8,7 C 7,5 C 24,1 km/h (4 Bft) 98,21 %
13.09.2017 01:16 12,1 C 17,2 C 80 % 1015,2 hPa 0,0 l/m 14,9 km/h (3 Bft) SW 235 0 min 0,000 mm 0,0 UV-I 0 W/m 8,8 C 7,7 C 22,5 km/h (4 Bft) 97,14 %
13.09.2017 01:18 12,1 C 17,2 C 80 % 1015,3 hPa 0,0 l/m 17,6 km/h (3 Bft) S-SW 201 0 min 0,000 mm 0,0 UV-I 0 W/m 8,8 C 6,8 C 24,1 km/h (4 Bft) 94,34 %
13.09.2017 01:20 12,1 C 17,2 C 80 % 1015,3 hPa 0,0 l/m 14,0 km/h (3 Bft) W-SW 257 0 min 0,000 mm 0,0 UV-I 0 W/m 8,8 C 8,1 C 24,1 km/h (4 Bft) 97,87 %
13.09.2017 01:22 12,1 C 17,2 C 80 % 1015,3 hPa 0,0 l/m 14,5 km/h (3 Bft) S-SW 207 0 min 0,000 mm 0,0 UV-I 0 W/m 8,8 C 7,9 C 24,1 km/h (4 Bft) 98,11 %
13.09.2017 01:24 12,2 C 17,2 C 80 % 1015,3 hPa 0,0 l/m 16,3 km/h (3 Bft) SW 234 0 min 0,000 mm 0,0 UV-I 0 W/m 8,9 C 7,3 C 24,1 km/h (4 Bft) 97,73 %
13.09.2017 01:26 12,2 C 17,2 C 80 % 1015,3 hPa 0,0 l/m 14,5 km/h (3 Bft) SW 234 0 min 0,000 mm 0,0 UV-I 0 W/m 8,9 C 8,0 C 22,5 km/h (4 Bft) 97,87 %
13.09.2017 01:28 12,2 C 17,2 C 80 % 1015,3 hPa 0,0 l/m 14,2 km/h (3 Bft) W-SW 253 0 min 0,000 mm 0,0 UV-I 0 W/m 8,9 C 8,1 C 24,1 km/h (4 Bft) 100,00 %
13.09.2017 01:30 12,2 C 17,2 C 79 % 1015,3 hPa 0,0 l/m 14,6 km/h (3 Bft) W 259 0 min 0,000 mm 0,0 UV-I 0 W/m 8,7 C 8,0 C 20,9 km/h (4 Bft) 98,00 %
13.09.2017 01:32 12,2 C 17,2 C 80 % 1015,3 hPa 0,0 l/m 15,1 km/h (3 Bft) SW 232 0 min 0,000 mm 0,0 UV-I 0 W/m 8,9 C 7,8 C 22,5 km/h (4 Bft) 100,00 %
13.09.2017 01:34 12,2 C 17,2 C 79 % 1015,3 hPa 0,0 l/m 16,9 km/h (3 Bft) SW 221 0 min 0,000 mm 0,0 UV-I 0 W/m 8,7 C 7,1 C 25,7 km/h (4 Bft) 100,00 %
13.09.2017 01:36 12,3 C 17,2 C 79 % 1015,3 hPa 0,0 l/m 14,6 km/h (3 Bft) W-SW 250 0 min 0,000 mm 0,0 UV-I 0 W/m 8,8 C 8,1 C 20,9 km/h (4 Bft) 98,11 %
13.09.2017 01:38 12,3 C 17,2 C 79 % 1015,3 hPa 0,0 l/m 16,4 km/h (3 Bft) W-SW 257 0 min 0,000 mm 0,0 UV-I 0 W/m 8,8 C 7,4 C 24,1 km/h (4 Bft) 100,00 %
13.09.2017 01:40 12,3 C 17,2 C 79 % 1015,3 hPa 0,0 l/m 15,5 km/h (3 Bft) W 273 0 min 0,000 mm 0,0 UV-I 0 W/m 8,8 C 7,7 C 22,5 km/h (4 Bft) 100,00 %
13.09.2017 01:42 12,3 C 17,2 C 79 % 1015,3 hPa 0,0 l/m 14,0 km/h (3 Bft) SW 232 0 min 0,000 mm 0,0 UV-I 0 W/m 8,8 C 8,3 C 24,1 km/h (4 Bft) 98,18 %
13.09.2017 01:44 12,3 C 17,2 C 79 % 1015,4 hPa 0,0 l/m 15,9 km/h (3 Bft) W-SW 242 0 min 0,000 mm 0,0 UV-I 0 W/m 8,8 C 7,6 C 25,7 km/h (4 Bft) 100,00 %
13.09.2017 01:46 12,3 C 17,2 C 79 % 1015,4 hPa 0,0 l/m 14,2 km/h (3 Bft) SW 226 0 min 0,000 mm 0,0 UV-I 0 W/m 8,8 C 8,2 C 19,3 km/h (3 Bft) 100,00 %
13.09.2017 01:48 12,3 C 17,2 C 79 % 1015,4 hPa 0,0 l/m 14,7 km/h (3 Bft) SW 232 0 min 0,000 mm 0,0 UV-I 0 W/m 8,8 C 8,0 C 20,9 km/h (4 Bft) 100,00 %
13.09.2017 01:50 12,3 C 17,2 C 79 % 1015,3 hPa 0,0 l/m 10,5 km/h (2 Bft) SW 227 0 min 0,000 mm 0,0 UV-I 0 W/m 8,8 C 9,9 C 17,7 km/h (3 Bft) 100,00 %
13.09.2017 01:52 12,3 C 17,2 C 79 % 1015,4 hPa 0,0 l/m 13,7 km/h (3 Bft) SW 235 0 min 0,000 mm 0,0 UV-I 0 W/m 8,8 C 8,4 C 20,9 km/h (4 Bft) 100,00 %
13.09.2017 01:54 12,3 C 17,2 C 79 % 1015,4 hPa 0,0 l/m 13,2 km/h (3 Bft) W-SW 255 0 min 0,000 mm 0,0 UV-I 0 W/m 8,8 C 8,6 C 19,3 km/h (3 Bft) 98,11 %
13.09.2017 01:56 12,3 C 17,2 C 79 % 1015,4 hPa 0,0 l/m 12,6 km/h (3 Bft) SW 227 0 min 0,000 mm 0,0 UV-I 0 W/m 8,8 C 8,9 C 19,3 km/h (3 Bft) 100,00 %
13.09.2017 01:58 12,3 C 17,2 C 79 % 1015,4 hPa 0,0 l/m 15,5 km/h (3 Bft) S 171 0 min 0,000 mm 0,0 UV-I 0 W/m 8,8 C 7,7 C 22,5 km/h (4 Bft) 96,23 %
13.09.2017 02:00 12,3 C 17,2 C 79 % 1015,4 hPa 0,0 l/m 9,6 km/h (2 Bft) W-SW 248 0 min 0,026 mm 0,0 UV-I 0 W/m 8,8 C 10,3 C 17,7 km/h (3 Bft) 100,00 %
13.09.2017 02:02 12,3 C 17,2 C 79 % 1015,4 hPa 0,0 l/m 12,0 km/h (2 Bft) S-SW 207 0 min 0,000 mm 0,0 UV-I 0 W/m 8,8 C 9,2 C 17,7 km/h (3 Bft) 100,00 %
13.09.2017 02:04 12,3 C 17,2 C 79 % 1015,4 hPa 0,0 l/m 10,1 km/h (2 Bft) SW 227 0 min 0,000 mm 0,0 UV-I 0 W/m 8,8 C 10,1 C 16,1 km/h (3 Bft) 100,00 %
13.09.2017 02:06 12,3 C 17,2 C 79 % 1015,4 hPa 0,0 l/m 11,0 km/h (2 Bft) W-SW 238 0 min 0,000 mm 0,0 UV-I 0 W/m 8,8 C 9,6 C 17,7 km/h (3 Bft) 98,00 %
13.09.2017 02:08 12,3 C 17,2 C 79 % 1015,5 hPa 0,0 l/m 10,2 km/h (2 Bft) W-SW 253 0 min 0,000 mm 0,0 UV-I 0 W/m 8,8 C 10,0 C 16,1 km/h (3 Bft) 100,00 %
13.09.2017 02:10 12,2 C 17,2 C 79 % 1015,5 hPa 0,0 l/m 12,3 km/h (3 Bft) W 263 0 min 0,000 mm 0,0 UV-I 0 W/m 8,7 C 8,9 C 17,7 km/h (3 Bft) 100,00 %
13.09.2017 02:12 12,2 C 17,2 C 79 % 1015,5 hPa 0,0 l/m 11,6 km/h (2 Bft) W-SW 257 0 min 0,000 mm 0,0 UV-I 0 W/m 8,7 C 9,2 C 19,3 km/h (3 Bft) 100,00 %
13.09.2017 02:14 12,2 C 17,2 C 79 % 1015,5 hPa 0,0 l/m 11,3 km/h (2 Bft) W-SW 246 0 min 0,000 mm 0,0 UV-I 0 W/m 8,7 C 9,4 C 17,7 km/h (3 Bft) 100,00 %
13.09.2017 02:16 12,2 C 17,2 C 79 % 1015,5 hPa 0,0 l/m 11,8 km/h (2 Bft) W-SW 258 0 min 0,000 mm 0,0 UV-I 0 W/m 8,7 C 9,1 C 20,9 km/h (4 Bft) 100,00 %
13.09.2017 02:18 12,2 C 17,2 C 79 % 1015,5 hPa 0,0 l/m 11,5 km/h (2 Bft) W-SW 246 0 min 0,000 mm 0,0 UV-I 0 W/m 8,7 C 9,3 C 19,3 km/h (3 Bft) 100,00 %
13.09.2017 02:20 12,2 C 17,2 C 79 % 1015,5 hPa 0,0 l/m 11,2 km/h (2 Bft) SW 221 0 min 0,000 mm 0,0 UV-I 0 W/m 8,7 C 9,4 C 14,5 km/h (3 Bft) 100,00 %
13.09.2017 02:22 12,2 C 17,2 C 79 % 1015,5 hPa 0,0 l/m 9,3 km/h (2 Bft) W-SW 256 0 min 0,000 mm 0,0 UV-I 0 W/m 8,7 C 10,4 C 14,5 km/h (3 Bft) 100,00 %
13.09.2017 02:24 12,2 C 17,2 C 79 % 1015,5 hPa 0,0 l/m 9,8 km/h (2 Bft) W-SW 239 0 min 0,000 mm 0,0 UV-I 0 W/m 8,7 C 10,1 C 14,5 km/h (3 Bft) 100,00 %
13.09.2017 02:26 12,2 C 17,2 C 79 % 1015,5 hPa 0,0 l/m 9,7 km/h (2 Bft) SW 235 0 min 0,000 mm 0,0 UV-I 0 W/m 8,7 C 10,2 C 14,5 km/h (3 Bft) 98,00 %
13.09.2017 02:28 12,2 C 17,2 C 79 % 1015,5 hPa 0,0 l/m 11,5 km/h (2 Bft) SW 217 0 min 0,000 mm 0,0 UV-I 0 W/m 8,7 C 9,3 C 14,5 km/h (3 Bft) 100,00 %
13.09.2017 02:30 12,2 C 17,2 C 79 % 1015,5 hPa 0,0 l/m 8,0 km/h (2 Bft) SW 228 0 min 0,000 mm 0,0 UV-I 0 W/m 8,7 C 11,2 C 11,3 km/h (2 Bft) 98,11 %
13.09.2017 02:32 12,2 C 17,2 C 80 % 1015,5 hPa 0,0 l/m 7,0 km/h (2 Bft) W-SW 241 0 min 0,000 mm 0,0 UV-I 0 W/m 8,9 C 11,8 C 11,3 km/h (2 Bft) 100,00 %
13.09.2017 02:34 12,2 C 17,2 C 80 % 1015,5 hPa 0,0 l/m 6,7 km/h (2 Bft) W-SW 238 0 min 0,000 mm 0,0 UV-I 0 W/m 8,9 C 12,0 C 12,9 km/h (3 Bft) 100,00 %
13.09.2017 02:36 12,2 C 17,2 C 80 % 1015,5 hPa 0,0 l/m 7,7 km/h (2 Bft) W-SW 255 0 min 0,000 mm 0,0 UV-I 0 W/m 8,9 C 11,3 C 12,9 km/h (3 Bft) 98,00 %
13.09.2017 02:38 12,2 C 17,2 C 80 % 1015,5 hPa 0,0 l/m 13,4 km/h (3 Bft) W-SW 257 0 min 0,000 mm 0,0 UV-I 0 W/m 8,9 C 8,4 C 17,7 km/h (3 Bft) 100,00 %
13.09.2017 02:40 12,2 C 17,2 C 80 % 1015,5 hPa 0,0 l/m 9,1 km/h (2 Bft) W-SW 252 0 min 0,000 mm 0,0 UV-I 0 W/m 8,9 C 10,5 C 14,5 km/h (3 Bft) 100,00 %
13.09.2017 02:42 12,1 C 17,2 C 80 % 1015,5 hPa 0,0 l/m 9,7 km/h (2 Bft) SW 225 0 min 0,000 mm 0,0 UV-I 0 W/m 8,8 C 10,1 C 14,5 km/h (3 Bft) 100,00 %
13.09.2017 02:44 12,1 C 17,2 C 80 % 1015,5 hPa 0,0 l/m 9,4 km/h (2 Bft) W-SW 240 0 min 0,000 mm 0,0 UV-I 0 W/m 8,8 C 10,2 C 14,5 km/h (3 Bft) 100,00 %
13.09.2017 02:46 12,1 C 17,2 C 80 % 1015,5 hPa 0,0 l/m 8,6 km/h (2 Bft) W-SW 239 0 min 0,000 mm 0,0 UV-I 0 W/m 8,8 C 10,7 C 16,1 km/h (3 Bft) 100,00 %
13.09.2017 02:48 12,1 C 17,2 C 80 % 1015,6 hPa 0,0 l/m 9,1 km/h (2 Bft) SW 235 0 min 0,000 mm 0,0 UV-I 0 W/m 8,8 C 10,4 C 14,5 km/h (3 Bft) 100,00 %
13.09.2017 02:50 12,1 C 17,2 C 80 % 1015,5 hPa 0,0 l/m 8,8 km/h (2 Bft) W-SW 254 0 min 0,000 mm 0,0 UV-I 0 W/m 8,8 C 10,6 C 16,1 km/h (3 Bft) 100,00 %
13.09.2017 02:52 12,1 C 17,2 C 80 % 1015,6 hPa 0,0 l/m 6,8 km/h (2 Bft) SW 229 0 min 0,000 mm 0,0 UV-I 0 W/m 8,8 C 11,8 C 12,9 km/h (3 Bft) 100,00 %
13.09.2017 02:54 12,0 C 17,2 C 80 % 1015,6 hPa 0,0 l/m 8,7 km/h (2 Bft) W-SW 239 0 min 0,000 mm 0,0 UV-I 0 W/m 8,7 C 10,5 C 12,9 km/h (3 Bft) 97,37 %
13.09.2017 02:56 12,0 C 17,2 C 80 % 1015,6 hPa 0,0 l/m 6,8 km/h (2 Bft) W-SW 240 0 min 0,000 mm 0,0 UV-I 0 W/m 8,7 C 11,7 C 11,3 km/h (2 Bft) 96,23 %
13.09.2017 02:58 12,0 C 17,2 C 80 % 1015,5 hPa 0,0 l/m 6,4 km/h (2 Bft) W-SW 241 0 min 0,000 mm 0,0 UV-I 0 W/m 8,7 C 12,0 C 9,7 km/h (2 Bft) 98,11 %
13.09.2017 03:00 12,0 C 17,2 C 80 % 1015,5 hPa 0,0 l/m 6,3 km/h (2 Bft) W-SW 257 0 min 0,025 mm 0,0 UV-I 0 W/m 8,7 C 12,0 C 11,3 km/h (2 Bft) 97,44 %
13.09.2017 03:02 12,0 C 17,2 C 80 % 1015,6 hPa 0,0 l/m 7,1 km/h (2 Bft) S-SW 211 0 min 0,000 mm 0,0 UV-I 0 W/m 8,7 C 11,5 C 12,9 km/h (3 Bft) 98,08 %
13.09.2017 03:04 12,0 C 17,2 C 80 % 1015,6 hPa 0,0 l/m 6,9 km/h (2 Bft) SW 224 0 min 0,000 mm 0,0 UV-I 0 W/m 8,7 C 11,7 C 11,3 km/h (2 Bft) 96,00 %
13.09.2017 03:06 12,0 C 17,2 C 80 % 1015,6 hPa 0,0 l/m 8,3 km/h (2 Bft) W 262 0 min 0,000 mm 0,0 UV-I 0 W/m 8,7 C 10,8 C 11,3 km/h (2 Bft) 97,92 %
13.09.2017 03:08 12,0 C 17,2 C 81 % 1015,5 hPa 0,0 l/m 7,9 km/h (2 Bft) W-SW 242 0 min 0,000 mm 0,0 UV-I 0 W/m 8,8 C 11,0 C 11,3 km/h (2 Bft) 95,74 %
13.09.2017 03:10 12,0 C 17,2 C 81 % 1015,6 hPa 0,0 l/m 5,5 km/h (1 Bft) W-SW 238 0 min 0,000 mm 0,0 UV-I 0 W/m 8,8 C 12,0 C 8,0 km/h (2 Bft) 97,37 %
13.09.2017 03:12 11,9 C 17,2 C 81 % 1015,6 hPa 0,0 l/m 6,6 km/h (2 Bft) SW 236 0 min 0,000 mm 0,0 UV-I 0 W/m 8,7 C 11,8 C 8,0 km/h (2 Bft) 94,00 %
13.09.2017 03:14 11,9 C 17,2 C 81 % 1015,5 hPa 0,0 l/m 7,9 km/h (2 Bft) W-SW 240 0 min 0,000 mm 0,0 UV-I 0 W/m 8,7 C 10,9 C 11,3 km/h (2 Bft) 97,56 %
13.09.2017 03:16 11,9 C 17,2 C 81 % 1015,5 hPa 0,0 l/m 7,2 km/h (2 Bft) SW 223 0 min 0,000 mm 0,0 UV-I 0 W/m 8,7 C 11,4 C 11,3 km/h (2 Bft) 98,00 %
13.09.2017 03:18 11,9 C 17,2 C 81 % 1015,5 hPa 0,0 l/m 6,7 km/h (2 Bft) SW 228 0 min 0,000 mm 0,0 UV-I 0 W/m 8,7 C 11,7 C 11,3 km/h (2 Bft) 96,23 %
13.09.2017 03:20 11,9 C 17,2 C 81 % 1015,4 hPa 0,0 l/m 6,0 km/h (2 Bft) S-SW 213 0 min 0,000 mm 0,0 UV-I 0 W/m 8,7 C 11,9 C 8,0 km/h (2 Bft) 97,87 %
13.09.2017 03:22 11,9 C 17,2 C 81 % 1015,5 hPa 0,0 l/m 7,4 km/h (2 Bft) SW 223 0 min 0,000 mm 0,0 UV-I 0 W/m 8,7 C 11,2 C 11,3 km/h (2 Bft) 97,73 %
13.09.2017 03:24 11,9 C 17,2 C 81 % 1015,5 hPa 0,0 l/m 7,2 km/h (2 Bft) SW 228 0 min 0,000 mm 0,0 UV-I 0 W/m 8,7 C 11,4 C 9,7 km/h (2 Bft) 97,37 %
13.09.2017 03:26 11,9 C 17,2 C 81 % 1015,4 hPa 0,0 l/m 8,0 km/h (2 Bft) SW 225 0 min 0,000 mm 0,0 UV-I 0 W/m 8,7 C 10,8 C 11,3 km/h (2 Bft) 98,21 %
13.09.2017 03:28 11,9 C 17,2 C 81 % 1015,5 hPa 0,0 l/m 8,5 km/h (2 Bft) SW 229 0 min 0,000 mm 0,0 UV-I 0 W/m 8,7 C 10,5 C 14,5 km/h (3 Bft) 100,00 %
13.09.2017 03:30 11,9 C 17,2 C 81 % 1015,4 hPa 0,0 l/m 8,7 km/h (2 Bft) SW 228 0 min 0,000 mm 0,0 UV-I 0 W/m 8,7 C 10,4 C 12,9 km/h (3 Bft) 97,37 %
13.09.2017 03:32 11,9 C 17,2 C 81 % 1015,4 hPa 0,0 l/m 8,6 km/h (2 Bft) SW 225 0 min 0,000 mm 0,0 UV-I 0 W/m 8,7 C 10,5 C 12,9 km/h (3 Bft) 97,87 %
13.09.2017 03:34 11,8 C 17,2 C 81 % 1015,5 hPa 0,0 l/m 8,8 km/h (2 Bft) SW 219 0 min 0,000 mm 0,0 UV-I 0 W/m 8,6 C 10,3 C 12,9 km/h (3 Bft) 96,00 %
13.09.2017 03:36 11,8 C 17,2 C 81 % 1015,5 hPa 0,0 l/m 10,4 km/h (2 Bft) SW 233 0 min 0,000 mm 0,0 UV-I 0 W/m 8,6 C 9,4 C 16,1 km/h (3 Bft) 98,11 %
13.09.2017 03:38 11,8 C 17,2 C 81 % 1015,4 hPa 0,0 l/m 12,0 km/h (2 Bft) S-SW 209 0 min 0,000 mm 0,0 UV-I 0 W/m 8,6 C 8,6 C 20,9 km/h (4 Bft) 97,56 %
13.09.2017 03:40 11,8 C 17,2 C 81 % 1015,4 hPa 0,0 l/m 11,3 km/h (2 Bft) SW 225 0 min 0,000 mm 0,0 UV-I 0 W/m 8,6 C 8,9 C 17,7 km/h (3 Bft) 97,62 %
13.09.2017 03:42 11,8 C 17,2 C 80 % 1015,4 hPa 0,0 l/m 14,4 km/h (3 Bft) SW 224 0 min 0,000 mm 0,0 UV-I 0 W/m 8,5 C 7,6 C 19,3 km/h (3 Bft) 96,23 %
13.09.2017 03:44 11,8 C 17,2 C 80 % 1015,4 hPa 0,0 l/m 13,9 km/h (3 Bft) W-SW 244 0 min 0,000 mm 0,0 UV-I 0 W/m 8,5 C 7,8 C 19,3 km/h (3 Bft) 100,00 %
13.09.2017 03:46 11,9 C 17,2 C 80 % 1015,4 hPa 0,0 l/m 15,2 km/h (3 Bft) SW 231 0 min 0,000 mm 0,0 UV-I 0 W/m 8,6 C 7,4 C 20,9 km/h (4 Bft) 96,10 %
13.09.2017 03:48 11,9 C 17,2 C 80 % 1015,4 hPa 0,0 l/m 14,3 km/h (3 Bft) W-SW 254 0 min 0,000 mm 0,0 UV-I 0 W/m 8,6 C 7,7 C 22,5 km/h (4 Bft) 97,56 %
13.09.2017 03:50 11,9 C 17,2 C 79 % 1015,4 hPa 0,0 l/m 14,5 km/h (3 Bft) SW 232 0 min 0,000 mm 0,0 UV-I 0 W/m 8,4 C 7,6 C 24,1 km/h (4 Bft) 98,31 %
13.09.2017 03:52 12,0 C 17,2 C 79 % 1015,4 hPa 0,0 l/m 16,4 km/h (3 Bft) SW 227 0 min 0,000 mm 0,0 UV-I 0 W/m 8,5 C 7,0 C 22,5 km/h (4 Bft) 94,74 %
13.09.2017 03:54 12,0 C 17,2 C 79 % 1015,4 hPa 0,0 l/m 14,0 km/h (3 Bft) SW 223 0 min 0,000 mm 0,0 UV-I 0 W/m 8,5 C 8,0 C 22,5 km/h (4 Bft) 98,21 %
13.09.2017 03:56 12,1 C 17,2 C 79 % 1015,4 hPa 0,0 l/m 15,9 km/h (3 Bft) W-SW 254 0 min 0,000 mm 0,0 UV-I 0 W/m 8,6 C 7,3 C 25,7 km/h (4 Bft) 97,56 %
13.09.2017 03:58 12,1 C 17,2 C 78 % 1015,5 hPa 0,0 l/m 14,3 km/h (3 Bft) SW 220 0 min 0,000 mm 0,0 UV-I 0 W/m 8,4 C 8,0 C 19,3 km/h (3 Bft) 98,00 %
13.09.2017 04:00 12,1 C 17,2 C 78 % 1015,4 hPa 0,0 l/m 12,9 km/h (3 Bft) W-SW 252 0 min 0,026 mm 0,0 UV-I 0 W/m 8,4 C 8,5 C 20,9 km/h (4 Bft) 95,74 %
13.09.2017 04:02 12,2 C 17,2 C 77 % 1015,3 hPa 0,0 l/m 13,6 km/h (3 Bft) W-SW 256 0 min 0,000 mm 0,0 UV-I 0 W/m 8,3 C 8,4 C 16,1 km/h (3 Bft) 92,31 %
13.09.2017 04:04 12,2 C 17,2 C 77 % 1015,3 hPa 0,0 l/m 11,1 km/h (2 Bft) W-SW 238 0 min 0,000 mm 0,0 UV-I 0 W/m 8,3 C 9,5 C 17,7 km/h (3 Bft) 100,00 %
13.09.2017 04:06 12,2 C 17,2 C 77 % 1015,3 hPa 0,0 l/m 10,0 km/h (2 Bft) W-SW 245 0 min 0,000 mm 0,0 UV-I 0 W/m 8,3 C 10,0 C 17,7 km/h (3 Bft) 92,00 %
13.09.2017 04:08 12,2 C 17,2 C 77 % 1015,4 hPa 0,0 l/m 9,8 km/h (2 Bft) W-SW 240 0 min 0,000 mm 0,0 UV-I 0 W/m 8,3 C 10,1 C 12,9 km/h (3 Bft) 98,00 %
13.09.2017 04:10 12,2 C 17,2 C 77 % 1015,4 hPa 0,0 l/m 9,4 km/h (2 Bft) SW 234 0 min 0,000 mm 0,0 UV-I 0 W/m 8,3 C 10,3 C 16,1 km/h (3 Bft) 97,56 %
13.09.2017 04:12 12,2 C 16,7 C 77 % 1015,4 hPa 0,0 l/m 8,6 km/h (2 Bft) SW 219 0 min 0,000 mm 0,0 UV-I 0 W/m 8,3 C 10,8 C 12,9 km/h (3 Bft) 98,11 %
13.09.2017 04:14 12,2 C 17,2 C 77 % 1015,4 hPa 0,0 l/m 8,0 km/h (2 Bft) W-SW 249 0 min 0,000 mm 0,0 UV-I 0 W/m 8,3 C 11,2 C 14,5 km/h (3 Bft) 97,37 %
13.09.2017 04:16 12,2 C 16,7 C 78 % 1015,4 hPa 0,0 l/m 7,6 km/h (2 Bft) SW 229 0 min 0,000 mm 0,0 UV-I 0 W/m 8,5 C 11,4 C 14,5 km/h (3 Bft) 96,00 %
13.09.2017 04:18 12,2 C 16,7 C 78 % 1015,4 hPa 0,0 l/m 8,2 km/h (2 Bft) SW 218 0 min 0,000 mm 0,0 UV-I 0 W/m 8,5 C 11,0 C 12,9 km/h (3 Bft) 97,62 %
13.09.2017 04:20 12,2 C 16,7 C 78 % 1015,4 hPa 0,0 l/m 9,3 km/h (2 Bft) S-SW 211 0 min 0,000 mm 0,0 UV-I 0 W/m 8,5 C 10,4 C 14,5 km/h (3 Bft) 97,87 %
13.09.2017 04:22 12,2 C 16,7 C 78 % 1015,5 hPa 0,0 l/m 7,4 km/h (2 Bft) W-SW 238 0 min 0,000 mm 0,0 UV-I 0 W/m 8,5 C 11,5 C 9,7 km/h (2 Bft) 97,56 %
13.09.2017 04:24 12,2 C 16,7 C 79 % 1015,4 hPa 0,0 l/m 8,6 km/h (2 Bft) W-SW 244 0 min 0,000 mm 0,0 UV-I 0 W/m 8,7 C 10,8 C 12,9 km/h (3 Bft) 98,31 %
13.09.2017 04:26 12,2 C 16,7 C 79 % 1015,4 hPa 0,0 l/m 8,0 km/h (2 Bft) SW 229 0 min 0,000 mm 0,0 UV-I 0 W/m 8,7 C 11,2 C 12,9 km/h (3 Bft) 95,74 %
13.09.2017 04:28 12,1 C 16,7 C 79 % 1015,4 hPa 0,0 l/m 8,5 km/h (2 Bft) SW 229 0 min 0,000 mm 0,0 UV-I 0 W/m 8,6 C 10,8 C 14,5 km/h (3 Bft) 95,45 %
13.09.2017 04:30 12,1 C 16,7 C 79 % 1015,4 hPa 0,0 l/m 8,2 km/h (2 Bft) SW 232 0 min 0,000 mm 0,0 UV-I 0 W/m 8,6 C 10,9 C 12,9 km/h (3 Bft) 97,87 %
13.09.2017 04:32 12,1 C 16,7 C 79 % 1015,4 hPa 0,0 l/m 8,0 km/h (2 Bft) SW 220 0 min 0,000 mm 0,0 UV-I 0 W/m 8,6 C 11,1 C 11,3 km/h (2 Bft) 97,87 %
13.09.2017 04:34 12,1 C 16,7 C 79 % 1015,5 hPa 0,0 l/m 7,7 km/h (2 Bft) SW 228 0 min 0,000 mm 0,0 UV-I 0 W/m 8,6 C 11,2 C 11,3 km/h (2 Bft) 98,00 %
13.09.2017 04:36 12,1 C 16,7 C 79 % 1015,4 hPa 0,0 l/m 5,8 km/h (2 Bft) SW 218 0 min 0,000 mm 0,0 UV-I 0 W/m 8,6 C 12,1 C 8,0 km/h (2 Bft) 98,00 %
13.09.2017 04:38 12,0 C 16,7 C 80 % 1015,4 hPa 0,0 l/m 6,4 km/h (2 Bft) SW 232 0 min 0,000 mm 0,0 UV-I 0 W/m 8,7 C 12,0 C 9,7 km/h (2 Bft) 97,56 %
13.09.2017 04:40 12,0 C 16,7 C 80 % 1015,3 hPa 0,0 l/m 5,4 km/h (1 Bft) SW 229 0 min 0,000 mm 0,0 UV-I 0 W/m 8,7 C 12,0 C 8,0 km/h (2 Bft) 97,56 %
13.09.2017 04:42 11,9 C 16,7 C 80 % 1015,3 hPa 0,0 l/m 6,0 km/h (2 Bft) SW 225 0 min 0,000 mm 0,0 UV-I 0 W/m 8,6 C 11,9 C 9,7 km/h (2 Bft) 100,00 %
13.09.2017 04:44 11,9 C 16,7 C 80 % 1015,2 hPa 0,0 l/m 7,2 km/h (2 Bft) SW 219 0 min 0,000 mm 0,0 UV-I 0 W/m 8,6 C 11,4 C 12,9 km/h (3 Bft) 100,00 %
13.09.2017 04:46 11,9 C 16,7 C 80 % 1015,2 hPa 0,0 l/m 5,8 km/h (2 Bft) SW 218 0 min 0,000 mm 0,0 UV-I 0 W/m 8,6 C 11,9 C 9,7 km/h (2 Bft) 100,00 %
13.09.2017 04:48 11,9 C 16,7 C 80 % 1015,2 hPa 0,0 l/m 5,8 km/h (2 Bft) S-SW 213 0 min 0,000 mm 0,0 UV-I 0 W/m 8,6 C 11,9 C 8,0 km/h (2 Bft) 97,87 %
13.09.2017 04:50 11,9 C 16,7 C 80 % 1015,2 hPa 0,0 l/m 7,1 km/h (2 Bft) SW 218 0 min 0,000 mm 0,0 UV-I 0 W/m 8,6 C 11,4 C 9,7 km/h (2 Bft) 100,00 %
13.09.2017 04:52 11,9 C 16,7 C 80 % 1015,2 hPa 0,0 l/m 7,6 km/h (2 Bft) W-SW 240 0 min 0,000 mm 0,0 UV-I 0 W/m 8,6 C 11,1 C 11,3 km/h (2 Bft) 97,56 %
13.09.2017 04:54 11,8 C 16,7 C 80 % 1015,2 hPa 0,0 l/m 7,2 km/h (2 Bft) W-SW 238 0 min 0,000 mm 0,0 UV-I 0 W/m 8,5 C 11,3 C 12,9 km/h (3 Bft) 98,21 %
13.09.2017 04:56 11,8 C 16,7 C 79 % 1015,1 hPa 0,0 l/m 6,7 km/h (2 Bft) S-SW 211 0 min 0,000 mm 0,0 UV-I 0 W/m 8,3 C 11,6 C 9,7 km/h (2 Bft) 98,00 %
13.09.2017 04:58 11,8 C 16,7 C 79 % 1015,1 hPa 0,0 l/m 8,0 km/h (2 Bft) S-SW 210 0 min 0,000 mm 0,0 UV-I 0 W/m 8,3 C 10,7 C 11,3 km/h (2 Bft) 97,44 %
13.09.2017 05:00 11,9 C 16,7 C 79 % 1015,1 hPa 0,0 l/m 6,4 km/h (2 Bft) N 360 0 min 0,025 mm 0,0 UV-I 0 W/m 8,4 C 11,9 C 9,7 km/h (2 Bft) 93,62 %
13.09.2017 05:02 11,9 C 16,7 C 79 % 1015,0 hPa 0,0 l/m 6,4 km/h (2 Bft) SW 223 0 min 0,000 mm 0,0 UV-I 0 W/m 8,4 C 11,9 C 9,7 km/h (2 Bft) 98,18 %
13.09.2017 05:04 11,9 C 16,7 C 79 % 1015,0 hPa 0,0 l/m 7,2 km/h (2 Bft) SW 215 0 min 0,000 mm 0,0 UV-I 0 W/m 8,4 C 11,4 C 9,7 km/h (2 Bft) 97,44 %
13.09.2017 05:06 11,9 C 16,7 C 79 % 1014,9 hPa 0,0 l/m 6,0 km/h (2 Bft) SW 224 0 min 0,000 mm 0,0 UV-I 0 W/m 8,4 C 11,9 C 11,3 km/h (2 Bft) 98,00 %
13.09.2017 05:08 11,9 C 16,7 C 79 % 1015,0 hPa 0,0 l/m 7,2 km/h (2 Bft) S-SW 211 0 min 0,000 mm 0,0 UV-I 0 W/m 8,4 C 11,4 C 14,5 km/h (3 Bft) 97,73 %
13.09.2017 05:10 11,9 C 16,7 C 78 % 1014,9 hPa 0,0 l/m 6,0 km/h (2 Bft) SW 222 0 min 0,000 mm 0,0 UV-I 0 W/m 8,2 C 11,9 C 9,7 km/h (2 Bft) 98,11 %
13.09.2017 05:12 11,9 C 16,7 C 78 % 1015,0 hPa 0,0 l/m 8,2 km/h (2 Bft) SW 219 0 min 0,000 mm 0,0 UV-I 0 W/m 8,2 C 10,7 C 12,9 km/h (3 Bft) 100,00 %
13.09.2017 05:14 11,9 C 16,7 C 78 % 1014,9 hPa 0,0 l/m 8,7 km/h (2 Bft) SW 220 0 min 0,000 mm 0,0 UV-I 0 W/m 8,2 C 10,4 C 17,7 km/h (3 Bft) 96,23 %
13.09.2017 05:16 11,9 C 16,7 C 78 % 1014,9 hPa 0,0 l/m 8,5 km/h (2 Bft) SW 221 0 min 0,000 mm 0,0 UV-I 0 W/m 8,2 C 10,5 C 11,3 km/h (2 Bft) 97,37 %
13.09.2017 05:18 11,9 C 16,7 C 78 % 1014,9 hPa 0,0 l/m 6,6 km/h (2 Bft) SW 214 0 min 0,000 mm 0,0 UV-I 0 W/m 8,2 C 11,8 C 11,3 km/h (2 Bft) 98,11 %
13.09.2017 05:20 12,0 C 16,7 C 77 % 1014,9 hPa 0,0 l/m 9,9 km/h (2 Bft) SW 236 0 min 0,000 mm 0,0 UV-I 0 W/m 8,1 C 9,9 C 16,1 km/h (3 Bft) 97,56 %
13.09.2017 05:22 12,0 C 16,7 C 77 % 1014,8 hPa 0,0 l/m 8,6 km/h (2 Bft) SW 219 0 min 0,000 mm 0,0 UV-I 0 W/m 8,1 C 10,6 C 12,9 km/h (3 Bft) 98,31 %
13.09.2017 05:24 12,0 C 16,7 C 77 % 1014,8 hPa 0,0 l/m 9,0 km/h (2 Bft) SW 236 0 min 0,000 mm 0,0 UV-I 0 W/m 8,1 C 10,4 C 12,9 km/h (3 Bft) 97,37 %
13.09.2017 05:26 12,1 C 16,7 C 77 % 1014,8 hPa 0,0 l/m 7,2 km/h (2 Bft) SW 232 0 min 0,000 mm 0,0 UV-I 0 W/m 8,2 C 11,6 C 9,7 km/h (2 Bft) 97,73 %
13.09.2017 05:28 12,1 C 16,7 C 77 % 1014,8 hPa 0,0 l/m 7,2 km/h (2 Bft) SW 230 0 min 0,000 mm 0,0 UV-I 0 W/m 8,2 C 11,6 C 9,7 km/h (2 Bft) 96,61 %
13.09.2017 05:30 12,1 C 16,7 C 77 % 1014,8 hPa 0,0 l/m 6,5 km/h (2 Bft) S 188 0 min 0,000 mm 0,0 UV-I 0 W/m 8,2 C 12,1 C 8,0 km/h (2 Bft) 97,56 %
13.09.2017 05:32 12,0 C 16,7 C 77 % 1014,8 hPa 0,0 l/m 6,5 km/h (2 Bft) SW 227 0 min 0,000 mm 0,0 UV-I 0 W/m 8,1 C 12,0 C 9,7 km/h (2 Bft) 100,00 %
13.09.2017 05:34 12,0 C 16,7 C 77 % 1014,7 hPa 0,0 l/m 5,8 km/h (2 Bft) SW 226 0 min 0,000 mm 0,0 UV-I 0 W/m 8,1 C 12,0 C 9,7 km/h (2 Bft) 98,04 %
13.09.2017 05:36 11,9 C 16,7 C 78 % 1014,7 hPa 0,0 l/m 5,9 km/h (2 Bft) SW 227 0 min 0,000 mm 0,0 UV-I 0 W/m 8,2 C 11,9 C 9,7 km/h (2 Bft) 100,00 %
13.09.2017 05:38 11,9 C 16,7 C 78 % 1014,7 hPa 0,0 l/m 6,4 km/h (2 Bft) SW 229 0 min 0,000 mm 0,0 UV-I 0 W/m 8,2 C 11,9 C 9,7 km/h (2 Bft) 97,87 %
13.09.2017 05:40 11,9 C 16,7 C 78 % 1014,7 hPa 0,0 l/m 5,8 km/h (2 Bft) SW 216 0 min 0,000 mm 0,0 UV-I 0 W/m 8,2 C 11,9 C 8,0 km/h (2 Bft) 100,00 %
13.09.2017 05:42 11,8 C 16,7 C 78 % 1014,7 hPa 0,0 l/m 5,3 km/h (1 Bft) SW 222 0 min 0,000 mm 0,0 UV-I 0 W/m 8,1 C 11,8 C 8,0 km/h (2 Bft) 96,23 %
13.09.2017 05:44 11,8 C 16,7 C 78 % 1014,8 hPa 0,0 l/m 4,8 km/h (1 Bft) SW 225 0 min 0,000 mm 0,0 UV-I 0 W/m 8,1 C 11,8 C 6,4 km/h (2 Bft) 100,00 %
13.09.2017 05:46 11,8 C 16,7 C 78 % 1014,7 hPa 0,0 l/m 4,7 km/h (1 Bft) SW 225 0 min 0,000 mm 0,0 UV-I 0 W/m 8,1 C 11,8 C 6,4 km/h (2 Bft) 100,00 %
13.09.2017 05:48 11,7 C 16,7 C 78 % 1014,7 hPa 0,0 l/m 3,9 km/h (1 Bft) SW 223 0 min 0,000 mm 0,0 UV-I 0 W/m 8,0 C 11,7 C 4,8 km/h (1 Bft) 97,87 %
13.09.2017 05:50 11,7 C 16,7 C 78 % 1014,7 hPa 0,0 l/m 2,1 km/h (1 Bft) SW 223 0 min 0,000 mm 0,0 UV-I 0 W/m 8,0 C 11,7 C 4,8 km/h (1 Bft) 100,00 %
13.09.2017 05:52 11,7 C 16,7 C 79 % 1014,7 hPa 0,0 l/m 1,9 km/h (1 Bft) SW 223 0 min 0,000 mm 0,0 UV-I 0 W/m 8,2 C 11,7 C 3,2 km/h (1 Bft) 98,00 %
13.09.2017 05:54 11,6 C 16,7 C 79 % 1014,6 hPa 0,0 l/m 2,3 km/h (1 Bft) SW 223 0 min 0,000 mm 0,0 UV-I 0 W/m 8,1 C 11,6 C 4,8 km/h (1 Bft) 97,87 %
13.09.2017 05:56 11,6 C 16,7 C 79 % 1014,7 hPa 0,0 l/m 3,8 km/h (1 Bft) SW 223 0 min 0,000 mm 0,0 UV-I 0 W/m 8,1 C 11,6 C 4,8 km/h (1 Bft) 98,11 %
13.09.2017 05:58 11,5 C 16,7 C 79 % 1014,7 hPa 0,0 l/m 3,7 km/h (1 Bft) SW 223 0 min 0,000 mm 0,0 UV-I 0 W/m 8,0 C 11,5 C 6,4 km/h (2 Bft) 100,00 %
13.09.2017 06:00 11,4 C 16,7 C 79 % 1014,7 hPa 0,0 l/m 3,2 km/h (1 Bft) SW 223 0 min 0,025 mm 0,0 UV-I 0 W/m 7,9 C 11,4 C 4,8 km/h (1 Bft) 100,00 %
13.09.2017 06:02 11,4 C 16,7 C 79 % 1014,7 hPa 0,0 l/m 3,4 km/h (1 Bft) SW 222 0 min 0,000 mm 0,0 UV-I 0 W/m 7,9 C 11,4 C 4,8 km/h (1 Bft) 100,00 %
13.09.2017 06:04 11,3 C 16,7 C 79 % 1014,7 hPa 0,0 l/m 3,4 km/h (1 Bft) SW 223 0 min 0,000 mm 0,0 UV-I 0 W/m 7,8 C 11,3 C 4,8 km/h (1 Bft) 97,37 %
13.09.2017 06:06 11,3 C 16,7 C 79 % 1014,7 hPa 0,0 l/m 3,8 km/h (1 Bft) SW 222 0 min 0,000 mm 0,0 UV-I 0 W/m 7,8 C 11,3 C 6,4 km/h (2 Bft) 98,11 %
13.09.2017 06:08 11,2 C 16,7 C 79 % 1014,7 hPa 0,0 l/m 3,8 km/h (1 Bft) S-SW 199 0 min 0,000 mm 0,0 UV-I 0 W/m 7,7 C 11,2 C 6,4 km/h (2 Bft) 100,00 %
13.09.2017 06:10 11,2 C 16,7 C 80 % 1014,7 hPa 0,0 l/m 4,7 km/h (1 Bft) S-SW 199 0 min 0,000 mm 0,0 UV-I 0 W/m 7,9 C 11,2 C 6,4 km/h (2 Bft) 100,00 %
13.09.2017 06:12 11,1 C 16,7 C 80 % 1014,7 hPa 0,0 l/m 4,0 km/h (1 Bft) S-SW 205 0 min 0,000 mm 0,0 UV-I 0 W/m 7,8 C 11,1 C 6,4 km/h (2 Bft) 100,00 %
13.09.2017 06:14 11,0 C 16,7 C 80 % 1014,6 hPa 0,0 l/m 4,4 km/h (1 Bft) S-SW 202 0 min 0,000 mm 0,0 UV-I 0 W/m 7,7 C 11,0 C 8,0 km/h (2 Bft) 100,00 %
13.09.2017 06:16 10,9 C 16,7 C 80 % 1014,6 hPa 0,0 l/m 4,3 km/h (1 Bft) SW 214 0 min 0,000 mm 0,0 UV-I 0 W/m 7,6 C 10,9 C 8,0 km/h (2 Bft) 100,00 %
13.09.2017 06:18 10,9 C 16,7 C 80 % 1014,5 hPa 0,0 l/m 5,7 km/h (1 Bft) S 186 0 min 0,000 mm 0,0 UV-I 0 W/m 7,6 C 10,9 C 8,0 km/h (2 Bft) 100,00 %
13.09.2017 06:20 10,8 C 16,7 C 81 % 1014,4 hPa 0,0 l/m 6,2 km/h (2 Bft) S 171 0 min 0,000 mm 0,0 UV-I 0 W/m 7,7 C 10,8 C 9,7 km/h (2 Bft) 100,00 %
13.09.2017 06:22 10,7 C 16,7 C 81 % 1014,4 hPa 0,0 l/m 6,6 km/h (2 Bft) S 171 0 min 0,000 mm 0,0 UV-I 0 W/m 7,6 C 10,6 C 9,7 km/h (2 Bft) 98,11 %
13.09.2017 06:24 10,7 C 16,7 C 81 % 1014,4 hPa 0,0 l/m 5,8 km/h (2 Bft) S 186 0 min 0,000 mm 0,0 UV-I 1 W/m 7,6 C 10,7 C 9,7 km/h (2 Bft) 100,00 %
13.09.2017 06:26 10,6 C 16,7 C 81 % 1014,4 hPa 0,0 l/m 5,9 km/h (2 Bft) S-SO 155 0 min 0,000 mm 0,0 UV-I 5 W/m 7,5 C 10,6 C 11,3 km/h (2 Bft) 100,00 %
13.09.2017 06:28 10,6 C 16,7 C 81 % 1014,4 hPa 0,0 l/m 4,9 km/h (1 Bft) SW 215 0 min 0,000 mm 0,0 UV-I 5 W/m 7,5 C 10,6 C 6,4 km/h (2 Bft) 100,00 %
13.09.2017 06:30 10,6 C 16,7 C 81 % 1014,4 hPa 0,0 l/m 6,1 km/h (2 Bft) SW 234 0 min 0,000 mm 0,0 UV-I 5 W/m 7,5 C 10,6 C 8,0 km/h (2 Bft) 97,14 %
13.09.2017 06:32 10,6 C 16,7 C 81 % 1014,5 hPa 0,0 l/m 5,2 km/h (1 Bft) W-SW 237 0 min 0,000 mm 0,0 UV-I 7 W/m 7,5 C 10,6 C 8,0 km/h (2 Bft) 100,00 %
13.09.2017 06:34 10,6 C 16,7 C 80 % 1014,5 hPa 0,0 l/m 5,2 km/h (1 Bft) S-SW 210 0 min 0,000 mm 0,0 UV-I 7 W/m 7,3 C 10,6 C 8,0 km/h (2 Bft) 100,00 %
13.09.2017 06:36 10,6 C 16,7 C 81 % 1014,5 hPa 0,0 l/m 6,2 km/h (2 Bft) S-SO 160 0 min 0,000 mm 0,0 UV-I 8 W/m 7,5 C 10,6 C 9,7 km/h (2 Bft) 98,21 %
13.09.2017 06:38 10,6 C 16,7 C 81 % 1014,5 hPa 0,0 l/m 4,2 km/h (1 Bft) S 179 0 min 0,000 mm 0,0 UV-I 9 W/m 7,5 C 10,6 C 8,0 km/h (2 Bft) 100,00 %
13.09.2017 06:40 10,5 C 16,7 C 81 % 1014,5 hPa 0,0 l/m 4,0 km/h (1 Bft) S 188 0 min 0,000 mm 0,0 UV-I 10 W/m 7,4 C 10,5 C 8,0 km/h (2 Bft) 100,00 %
13.09.2017 06:42 10,5 C 16,7 C 81 % 1014,5 hPa 0,0 l/m 5,3 km/h (1 Bft) S-SW 196 0 min 0,000 mm 0,0 UV-I 11 W/m 7,4 C 10,5 C 8,0 km/h (2 Bft) 97,87 %
13.09.2017 06:44 10,4 C 16,7 C 81 % 1014,4 hPa 0,0 l/m 5,2 km/h (1 Bft) S-SW 198 0 min 0,000 mm 0,0 UV-I 14 W/m 7,3 C 10,4 C 9,7 km/h (2 Bft) 100,00 %
13.09.2017 06:46 10,4 C 16,7 C 81 % 1014,5 hPa 0,0 l/m 3,3 km/h (1 Bft) S 171 0 min 0,000 mm 0,0 UV-I 17 W/m 7,3 C 10,4 C 6,4 km/h (2 Bft) 100,00 %
13.09.2017 06:48 10,4 C 16,7 C 81 % 1014,4 hPa 0,0 l/m 3,9 km/h (1 Bft) S-SW 192 2 min 0,000 mm 0,0 UV-I 19 W/m 7,3 C 10,4 C 6,4 km/h (2 Bft) 100,00 %
13.09.2017 06:50 10,4 C 16,7 C 81 % 1014,3 hPa 0,0 l/m 2,4 km/h (1 Bft) S-SW 192 2 min 0,000 mm 0,0 UV-I 21 W/m 7,3 C 10,4 C 4,8 km/h (1 Bft) 98,00 %
13.09.2017 06:52 10,4 C 16,7 C 81 % 1014,4 hPa 0,0 l/m 4,5 km/h (1 Bft) S-SW 202 2 min 0,000 mm 0,0 UV-I 26 W/m 7,3 C 10,4 C 6,4 km/h (2 Bft) 100,00 %
13.09.2017 06:54 10,4 C 16,7 C 81 % 1014,3 hPa 0,0 l/m 4,0 km/h (1 Bft) S-SW 202 2 min 0,000 mm 0,0 UV-I 29 W/m 7,3 C 10,4 C 4,8 km/h (1 Bft) 100,00 %
13.09.2017 06:56 10,4 C 16,7 C 81 % 1014,3 hPa 0,0 l/m 3,7 km/h (1 Bft) S 188 2 min 0,000 mm 0,0 UV-I 31 W/m 7,3 C 10,4 C 6,4 km/h (2 Bft) 97,87 %
13.09.2017 06:58 10,4 C 16,7 C 81 % 1014,3 hPa 0,0 l/m 3,7 km/h (1 Bft) S-SW 200 2 min 0,000 mm 0,0 UV-I 36 W/m 7,3 C 10,4 C 6,4 km/h (2 Bft) 100,00 %
13.09.2017 07:00 10,4 C 16,7 C 81 % 1014,3 hPa 0,0 l/m 3,6 km/h (1 Bft) S 172 2 min 0,026 mm 0,0 UV-I 40 W/m 7,3 C 10,4 C 8,0 km/h (2 Bft) 100,00 %
13.09.2017 07:02 10,4 C 16,7 C 81 % 1014,3 hPa 0,0 l/m 3,3 km/h (1 Bft) S 169 2 min 0,000 mm 0,0 UV-I 43 W/m 7,3 C 10,4 C 6,4 km/h (2 Bft) 98,00 %
13.09.2017 07:04 10,3 C 16,7 C 81 % 1014,2 hPa 0,0 l/m 2,7 km/h (1 Bft) S 169 2 min 0,000 mm 0,0 UV-I 48 W/m 7,2 C 10,3 C 6,4 km/h (2 Bft) 97,56 %
13.09.2017 07:06 10,4 C 16,7 C 80 % 1014,2 hPa 0,0 l/m 3,6 km/h (1 Bft) S-SO 160 2 min 0,000 mm 0,0 UV-I 52 W/m 7,1 C 10,4 C 8,0 km/h (2 Bft) 96,23 %
13.09.2017 07:08 10,4 C 16,7 C 80 % 1014,2 hPa 0,0 l/m 4,4 km/h (1 Bft) S 177 2 min 0,000 mm 0,0 UV-I 56 W/m 7,1 C 10,4 C 8,0 km/h (2 Bft) 97,73 %
13.09.2017 07:10 10,5 C 16,7 C 80 % 1014,2 hPa 0,0 l/m 4,8 km/h (1 Bft) S 178 2 min 0,000 mm 0,0 UV-I 61 W/m 7,2 C 10,5 C 11,3 km/h (2 Bft) 97,87 %
13.09.2017 07:12 10,6 C 16,7 C 80 % 1014,2 hPa 0,0 l/m 5,4 km/h (1 Bft) SW 227 2 min 0,000 mm 0,0 UV-I 66 W/m 7,3 C 10,6 C 9,7 km/h (2 Bft) 97,87 %
13.09.2017 07:14 10,6 C 16,7 C 80 % 1014,2 hPa 0,0 l/m 3,5 km/h (1 Bft) S 180 2 min 0,000 mm 0,0 UV-I 69 W/m 7,3 C 10,6 C 6,4 km/h (2 Bft) 95,74 %
13.09.2017 07:16 10,6 C 16,7 C 80 % 1014,1 hPa 0,0 l/m 1,8 km/h (1 Bft) S 178 2 min 0,000 mm 0,0 UV-I 73 W/m 7,3 C 10,6 C 4,8 km/h (1 Bft) 94,00 %
13.09.2017 07:18 10,6 C 16,7 C 80 % 1014,1 hPa 0,0 l/m 2,4 km/h (1 Bft) S-SW 198 2 min 0,000 mm 0,0 UV-I 78 W/m 7,3 C 10,6 C 6,4 km/h (2 Bft) 92,11 %
13.09.2017 07:20 10,6 C 16,7 C 80 % 1014,1 hPa 0,0 l/m 2,8 km/h (1 Bft) S-SW 198 2 min 0,000 mm 0,0 UV-I 83 W/m 7,3 C 10,6 C 4,8 km/h (1 Bft) 95,74 %
13.09.2017 07:22 10,5 C 16,7 C 80 % 1014,0 hPa 0,0 l/m 3,5 km/h (1 Bft) S 178 2 min 0,000 mm 0,0 UV-I 86 W/m 7,2 C 10,5 C 8,0 km/h (2 Bft) 96,43 %
13.09.2017 07:24 10,5 C 16,7 C 80 % 1014,1 hPa 0,0 l/m 4,3 km/h (1 Bft) S-SW 195 2 min 0,000 mm 0,0 UV-I 91 W/m 7,2 C 10,5 C 8,0 km/h (2 Bft) 94,74 %
13.09.2017 07:26 10,6 C 16,7 C 80 % 1014,1 hPa 0,0 l/m 4,6 km/h (1 Bft) S-SW 198 2 min 0,000 mm 0,0 UV-I 97 W/m 7,3 C 10,6 C 9,7 km/h (2 Bft) 96,00 %
13.09.2017 07:28 10,6 C 16,7 C 79 % 1014,2 hPa 0,0 l/m 4,6 km/h (1 Bft) S-SW 207 2 min 0,000 mm 0,0 UV-I 103 W/m 7,1 C 10,6 C 8,0 km/h (2 Bft) 94,34 %
13.09.2017 07:30 10,7 C 16,7 C 79 % 1014,2 hPa 0,0 l/m 4,4 km/h (1 Bft) S-SW 194 2 min 0,000 mm 0,0 UV-I 113 W/m 7,2 C 10,7 C 6,4 km/h (2 Bft) 95,12 %
13.09.2017 07:32 10,7 C 16,7 C 79 % 1014,2 hPa 0,0 l/m 4,0 km/h (1 Bft) SW 216 2 min 0,000 mm 0,0 UV-I 116 W/m 7,2 C 10,7 C 6,4 km/h (2 Bft) 94,00 %
13.09.2017 07:34 10,8 C 16,7 C 79 % 1014,2 hPa 0,0 l/m 3,0 km/h (1 Bft) SW 216 2 min 0,000 mm 0,0 UV-I 116 W/m 7,3 C 10,8 C 4,8 km/h (1 Bft) 94,44 %
13.09.2017 07:36 10,7 C 16,7 C 79 % 1014,1 hPa 0,0 l/m 3,6 km/h (1 Bft) S-SW 200 2 min 0,000 mm 0,0 UV-I 126 W/m 7,2 C 10,7 C 6,4 km/h (2 Bft) 96,23 %
13.09.2017 07:38 10,8 C 16,7 C 80 % 1014,1 hPa 0,0 l/m 3,7 km/h (1 Bft) S 190 2 min 0,000 mm 0,0 UV-I 134 W/m 7,5 C 10,8 C 6,4 km/h (2 Bft) 94,00 %
13.09.2017 07:40 10,8 C 16,7 C 80 % 1014,1 hPa 0,0 l/m 4,3 km/h (1 Bft) S-SW 194 2 min 0,000 mm 0,0 UV-I 140 W/m 7,5 C 10,8 C 8,0 km/h (2 Bft) 94,00 %
13.09.2017 07:42 10,9 C 16,7 C 80 % 1014,1 hPa 0,0 l/m 4,3 km/h (1 Bft) S-SW 195 2 min 0,000 mm 0,0 UV-I 146 W/m 7,6 C 10,9 C 6,4 km/h (2 Bft) 93,62 %
13.09.2017 07:44 10,9 C 16,7 C 80 % 1014,0 hPa 0,0 l/m 3,1 km/h (1 Bft) S-SO 161 2 min 0,000 mm 0,0 UV-I 148 W/m 7,6 C 10,9 C 6,4 km/h (2 Bft) 94,74 %
13.09.2017 07:46 11,1 C 16,7 C 79 % 1014,0 hPa 0,0 l/m 3,1 km/h (1 Bft) S 190 2 min 0,000 mm 0,0 UV-I 156 W/m 7,6 C 11,1 C 6,4 km/h (2 Bft) 93,62 %
13.09.2017 07:48 11,2 C 16,7 C 78 % 1014,0 hPa 0,0 l/m 4,4 km/h (1 Bft) S 188 2 min 0,000 mm 0,0 UV-I 163 W/m 7,5 C 11,2 C 8,0 km/h (2 Bft) 98,21 %
13.09.2017 07:50 11,4 C 16,7 C 77 % 1014,0 hPa 0,0 l/m 4,4 km/h (1 Bft) S-SO 155 2 min 0,000 mm 0,0 UV-I 170 W/m 7,5 C 11,4 C 8,0 km/h (2 Bft) 97,37 %
13.09.2017 07:52 11,5 C 16,7 C 77 % 1014,0 hPa 0,0 l/m 6,7 km/h (2 Bft) S 174 2 min 0,000 mm 0,0 UV-I 183 W/m 7,6 C 11,3 C 11,3 km/h (2 Bft) 96,23 %
13.09.2017 07:54 11,6 C 16,7 C 76 % 1014,0 hPa 0,0 l/m 6,5 km/h (2 Bft) S 189 2 min 0,000 mm 0,0 UV-I 192 W/m 7,5 C 11,6 C 9,7 km/h (2 Bft) 98,00 %
13.09.2017 07:56 11,7 C 16,7 C 75 % 1014,0 hPa 0,0 l/m 6,5 km/h (2 Bft) S-SO 168 2 min 0,000 mm 0,0 UV-I 208 W/m 7,4 C 11,7 C 11,3 km/h (2 Bft) 97,14 %
13.09.2017 07:58 11,8 C 16,7 C 75 % 1014,0 hPa 0,0 l/m 6,9 km/h (2 Bft) S 174 2 min 0,000 mm 0,0 UV-I 216 W/m 7,5 C 11,5 C 9,7 km/h (2 Bft) 96,61 %
13.09.2017 08:00 11,9 C 16,7 C 75 % 1013,9 hPa 0,0 l/m 5,3 km/h (1 Bft) S 186 2 min 0,076 mm 0,0 UV-I 227 W/m 7,6 C 11,9 C 9,7 km/h (2 Bft) 97,73 %
13.09.2017 08:02 12,0 C 16,7 C 75 % 1013,9 hPa 0,0 l/m 6,1 km/h (2 Bft) S 191 2 min 0,000 mm 0,0 UV-I 235 W/m 7,7 C 12,0 C 12,9 km/h (3 Bft) 97,73 %
13.09.2017 08:04 12,1 C 16,7 C 74 % 1013,9 hPa 0,0 l/m 4,8 km/h (1 Bft) S-SO 165 2 min 0,000 mm 0,0 UV-I 242 W/m 7,6 C 12,1 C 8,0 km/h (2 Bft) 95,74 %
13.09.2017 08:06 12,2 C 16,7 C 74 % 1013,8 hPa 0,0 l/m 7,0 km/h (2 Bft) S 180 2 min 0,000 mm 0,0 UV-I 248 W/m 7,7 C 11,8 C 12,9 km/h (3 Bft) 97,73 %
13.09.2017 08:08 12,2 C 16,7 C 75 % 1013,9 hPa 0,0 l/m 4,8 km/h (1 Bft) S 174 2 min 0,000 mm 0,0 UV-I 245 W/m 7,9 C 12,2 C 11,3 km/h (2 Bft) 98,11 %
13.09.2017 08:10 12,3 C 16,7 C 74 % 1013,8 hPa 0,0 l/m 4,0 km/h (1 Bft) S-SW 210 2 min 0,000 mm 0,0 UV-I 247 W/m 7,8 C 12,3 C 8,0 km/h (2 Bft) 97,87 %
13.09.2017 08:12 12,5 C 16,7 C 74 % 1013,9 hPa 0,0 l/m 4,6 km/h (1 Bft) SW 216 2 min 0,000 mm 0,0 UV-I 237 W/m 8,0 C 12,5 C 9,7 km/h (2 Bft) 97,62 %
13.09.2017 08:14 12,7 C 16,7 C 74 % 1013,9 hPa 0,0 l/m 5,9 km/h (2 Bft) SW 223 2 min 0,000 mm 0,0 UV-I 231 W/m 8,2 C 12,7 C 8,0 km/h (2 Bft) 98,08 %
13.09.2017 08:16 12,7 C 16,7 C 73 % 1013,9 hPa 0,0 l/m 5,7 km/h (1 Bft) S-SW 193 2 min 0,000 mm 0,0 UV-I 228 W/m 8,0 C 12,7 C 8,0 km/h (2 Bft) 100,00 %
13.09.2017 08:18 12,8 C 16,7 C 74 % 1013,9 hPa 0,0 l/m 5,2 km/h (1 Bft) SW 226 2 min 0,000 mm 0,0 UV-I 240 W/m 8,3 C 12,8 C 9,7 km/h (2 Bft) 100,00 %
13.09.2017 08:20 12,9 C 16,7 C 74 % 1013,9 hPa 0,0 l/m 6,1 km/h (2 Bft) S-SW 196 2 min 0,000 mm 0,0 UV-I 245 W/m 8,4 C 12,9 C 9,7 km/h (2 Bft) 100,00 %
13.09.2017 08:22 13,1 C 16,7 C 74 % 1013,8 hPa 0,0 l/m 3,3 km/h (1 Bft) S 187 2 min 0,000 mm 0,0 UV-I 240 W/m 8,6 C 13,1 C 6,4 km/h (2 Bft) 97,37 %
13.09.2017 08:24 13,2 C 16,7 C 73 % 1013,7 hPa 0,0 l/m 5,0 km/h (1 Bft) S-SW 206 2 min 0,000 mm 0,4 UV-I 250 W/m 8,5 C 13,2 C 8,0 km/h (2 Bft) 97,87 %
13.09.2017 08:26 13,2 C 16,7 C 72 % 1013,7 hPa 0,0 l/m 3,7 km/h (1 Bft) S 178 2 min 0,000 mm 0,5 UV-I 263 W/m 8,3 C 13,2 C 8,0 km/h (2 Bft) 100,00 %
13.09.2017 08:28 13,3 C 16,7 C 72 % 1013,8 hPa 0,0 l/m 3,5 km/h (1 Bft) S-SW 200 2 min 0,000 mm 0,5 UV-I 264 W/m 8,4 C 13,3 C 6,4 km/h (2 Bft) 100,00 %
13.09.2017 08:30 13,3 C 16,7 C 72 % 1013,7 hPa 0,0 l/m 4,0 km/h (1 Bft) S 180 2 min 0,000 mm 0,5 UV-I 271 W/m 8,4 C 13,3 C 9,7 km/h (2 Bft) 100,00 %
13.09.2017 08:32 13,4 C 16,7 C 71 % 1013,7 hPa 0,0 l/m 4,0 km/h (1 Bft) S-SW 202 2 min 0,000 mm 0,5 UV-I 274 W/m 8,3 C 13,4 C 8,0 km/h (2 Bft) 100,00 %
13.09.2017 08:34 13,5 C 16,7 C 71 % 1013,7 hPa 0,0 l/m 5,0 km/h (1 Bft) S-SW 202 2 min 0,000 mm 0,5 UV-I 275 W/m 8,3 C 13,5 C 9,7 km/h (2 Bft) 100,00 %
13.09.2017 08:36 13,6 C 16,7 C 71 % 1013,7 hPa 0,0 l/m 2,5 km/h (1 Bft) S 191 2 min 0,000 mm 0,6 UV-I 289 W/m 8,4 C 13,6 C 6,4 km/h (2 Bft) 97,73 %
13.09.2017 08:38 13,7 C 16,7 C 72 % 1013,7 hPa 0,0 l/m 6,1 km/h (2 Bft) SW 216 2 min 0,000 mm 0,6 UV-I 296 W/m 8,7 C 13,7 C 9,7 km/h (2 Bft) 100,00 %
13.09.2017 08:40 13,8 C 16,7 C 70 % 1013,6 hPa 0,0 l/m 5,8 km/h (2 Bft) S-SW 202 2 min 0,000 mm 0,6 UV-I 301 W/m 8,4 C 13,8 C 9,7 km/h (2 Bft) 100,00 %
13.09.2017 08:42 13,9 C 16,7 C 71 % 1013,7 hPa 0,0 l/m 3,6 km/h (1 Bft) SW 223 2 min 0,000 mm 0,6 UV-I 305 W/m 8,7 C 13,9 C 6,4 km/h (2 Bft) 100,00 %
13.09.2017 08:44 14,0 C 16,7 C 70 % 1013,6 hPa 0,0 l/m 4,3 km/h (1 Bft) S-SW 202 2 min 0,000 mm 0,7 UV-I 311 W/m 8,6 C 14,0 C 8,0 km/h (2 Bft) 97,14 %
13.09.2017 08:46 14,1 C 16,7 C 68 % 1013,6 hPa 0,0 l/m 3,1 km/h (1 Bft) S-SW 203 2 min 0,000 mm 0,7 UV-I 317 W/m 8,3 C 14,1 C 6,4 km/h (2 Bft) 100,00 %
13.09.2017 08:48 14,2 C 16,7 C 68 % 1013,7 hPa 0,0 l/m 5,9 km/h (2 Bft) S-SW 210 2 min 0,000 mm 0,7 UV-I 322 W/m 8,4 C 14,2 C 11,3 km/h (2 Bft) 100,00 %
13.09.2017 08:50 14,3 C 16,7 C 69 % 1013,6 hPa 0,0 l/m 4,9 km/h (1 Bft) SW 218 2 min 0,000 mm 0,7 UV-I 327 W/m 8,7 C 14,3 C 8,0 km/h (2 Bft) 100,00 %
13.09.2017 08:52 14,5 C 16,7 C 68 % 1013,6 hPa 0,0 l/m 6,9 km/h (2 Bft) SW 216 2 min 0,000 mm 0,8 UV-I 332 W/m 8,7 C 14,2 C 9,7 km/h (2 Bft) 100,00 %
13.09.2017 08:54 14,6 C 16,7 C 68 % 1013,6 hPa 0,0 l/m 4,5 km/h (1 Bft) S-SW 212 2 min 0,000 mm 0,8 UV-I 339 W/m 8,8 C 14,6 C 8,0 km/h (2 Bft) 100,00 %
13.09.2017 08:56 14,7 C 16,7 C 68 % 1013,7 hPa 0,0 l/m 3,7 km/h (1 Bft) S-SW 198 2 min 0,000 mm 0,8 UV-I 344 W/m 8,9 C 14,7 C 6,4 km/h (2 Bft) 100,00 %
13.09.2017 08:58 14,7 C 16,7 C 64 % 1013,7 hPa 0,0 l/m 3,4 km/h (1 Bft) S-SO 162 2 min 0,000 mm 0,8 UV-I 350 W/m 8,0 C 14,7 C 6,4 km/h (2 Bft) 100,00 %
13.09.2017 09:00 14,7 C 16,7 C 66 % 1013,6 hPa 0,0 l/m 2,8 km/h (1 Bft) S 172 2 min 0,152 mm 0,9 UV-I 355 W/m 8,4 C 14,7 C 6,4 km/h (2 Bft) 100,00 %
13.09.2017 09:02 14,8 C 16,7 C 68 % 1013,6 hPa 0,0 l/m 3,2 km/h (1 Bft) SW 215 2 min 0,000 mm 0,9 UV-I 360 W/m 9,0 C 14,8 C 4,8 km/h (1 Bft) 100,00 %
13.09.2017 09:04 14,8 C 16,7 C 67 % 1013,6 hPa 0,0 l/m 2,9 km/h (1 Bft) S-SW 207 2 min 0,000 mm 0,9 UV-I 366 W/m 8,7 C 14,8 C 4,8 km/h (1 Bft) 100,00 %
13.09.2017 09:06 14,8 C 16,7 C 66 % 1013,6 hPa 0,0 l/m 0,9 km/h (0 Bft) S-SW 207 2 min 0,000 mm 0,9 UV-I 373 W/m 8,5 C 14,8 C 3,2 km/h (1 Bft) 100,00 %
13.09.2017 09:08 14,9 C 16,7 C 67 % 1013,5 hPa 0,0 l/m 5,0 km/h (1 Bft) SW 225 2 min 0,000 mm 1,0 UV-I 380 W/m 8,8 C 14,9 C 8,0 km/h (2 Bft) 98,00 %
13.09.2017 09:10 15,1 C 16,7 C 64 % 1013,5 hPa 0,0 l/m 5,2 km/h (1 Bft) W-SW 245 2 min 0,000 mm 1,0 UV-I 385 W/m 8,3 C 15,1 C 11,3 km/h (2 Bft) 100,00 %
13.09.2017 09:12 15,1 C 16,7 C 64 % 1013,5 hPa 0,0 l/m 3,4 km/h (1 Bft) SW 226 2 min 0,000 mm 1,0 UV-I 389 W/m 8,3 C 15,1 C 6,4 km/h (2 Bft) 100,00 %
13.09.2017 09:14 15,1 C 16,7 C 66 % 1013,4 hPa 0,0 l/m 3,4 km/h (1 Bft) S 190 2 min 0,000 mm 1,1 UV-I 394 W/m 8,8 C 15,1 C 6,4 km/h (2 Bft) 100,00 %
13.09.2017 09:16 15,1 C 16,7 C 63 % 1013,4 hPa 0,0 l/m 4,0 km/h (1 Bft) S 170 2 min 0,000 mm 1,1 UV-I 399 W/m 8,1 C 15,1 C 11,3 km/h (2 Bft) 97,73 %
13.09.2017 09:18 15,1 C 16,7 C 64 % 1013,4 hPa 0,0 l/m 3,7 km/h (1 Bft) S-SW 211 2 min 0,000 mm 1,1 UV-I 404 W/m 8,3 C 15,1 C 9,7 km/h (2 Bft) 98,00 %
13.09.2017 09:20 15,1 C 16,7 C 64 % 1013,3 hPa 0,0 l/m 4,4 km/h (1 Bft) S-SW 206 2 min 0,000 mm 1,1 UV-I 407 W/m 8,3 C 15,1 C 8,0 km/h (2 Bft) 97,56 %
13.09.2017 09:22 15,3 C 16,7 C 65 % 1013,3 hPa 0,0 l/m 3,2 km/h (1 Bft) S 177 2 min 0,000 mm 1,2 UV-I 412 W/m 8,8 C 15,3 C 6,4 km/h (2 Bft) 95,74 %
13.09.2017 09:24 15,2 C 16,7 C 63 % 1013,3 hPa 0,0 l/m 4,1 km/h (1 Bft) S 186 2 min 0,000 mm 1,2 UV-I 418 W/m 8,2 C 15,2 C 8,0 km/h (2 Bft) 96,00 %
13.09.2017 09:26 15,2 C 16,7 C 63 % 1013,4 hPa 0,0 l/m 1,9 km/h (1 Bft) S 186 2 min 0,000 mm 1,2 UV-I 424 W/m 8,2 C 15,2 C 6,4 km/h (2 Bft) 97,73 %
13.09.2017 09:28 15,3 C 16,7 C 64 % 1013,4 hPa 0,0 l/m 6,5 km/h (2 Bft) W-SW 246 2 min 0,000 mm 1,3 UV-I 429 W/m 8,5 C 15,3 C 12,9 km/h (3 Bft) 98,08 %
13.09.2017 09:30 15,3 C 16,7 C 62 % 1013,3 hPa 0,0 l/m 3,5 km/h (1 Bft) SW 234 2 min 0,000 mm 1,3 UV-I 435 W/m 8,1 C 15,3 C 8,0 km/h (2 Bft) 95,12 %
13.09.2017 09:32 15,4 C 16,7 C 63 % 1013,3 hPa 0,0 l/m 4,7 km/h (1 Bft) W-SW 240 2 min 0,000 mm 1,3 UV-I 441 W/m 8,4 C 15,4 C 9,7 km/h (2 Bft) 96,23 %
13.09.2017 09:34 15,6 C 16,7 C 64 % 1013,3 hPa 0,0 l/m 4,2 km/h (1 Bft) S-SW 198 2 min 0,000 mm 1,4 UV-I 447 W/m 8,8 C 15,6 C 6,4 km/h (2 Bft) 97,62 %
13.09.2017 09:36 15,6 C 16,7 C 61 % 1013,3 hPa 0,0 l/m 5,5 km/h (1 Bft) W-SW 247 2 min 0,000 mm 1,4 UV-I 454 W/m 8,1 C 15,6 C 8,0 km/h (2 Bft) 98,00 %
13.09.2017 09:38 15,7 C 16,7 C 59 % 1013,4 hPa 0,0 l/m 6,2 km/h (2 Bft) SW 232 2 min 0,000 mm 1,4 UV-I 458 W/m 7,7 C 15,7 C 12,9 km/h (3 Bft) 97,96 %
13.09.2017 09:40 15,7 C 16,7 C 59 % 1013,4 hPa 0,0 l/m 6,8 km/h (2 Bft) W-SW 243 2 min 0,000 mm 1,5 UV-I 462 W/m 7,7 C 15,5 C 11,3 km/h (2 Bft) 95,74 %
13.09.2017 09:42 15,7 C 16,7 C 59 % 1013,4 hPa 0,0 l/m 6,9 km/h (2 Bft) SW 221 2 min 0,000 mm 1,5 UV-I 466 W/m 7,7 C 15,4 C 9,7 km/h (2 Bft) 97,37 %
13.09.2017 09:44 15,7 C 16,7 C 58 % 1013,3 hPa 0,0 l/m 8,0 km/h (2 Bft) SW 235 2 min 0,000 mm 1,5 UV-I 469 W/m 7,5 C 14,8 C 14,5 km/h (3 Bft) 96,00 %
13.09.2017 09:46 15,8 C 16,7 C 59 % 1013,3 hPa 0,0 l/m 7,0 km/h (2 Bft) S-SW 207 2 min 0,000 mm 1,6 UV-I 475 W/m 7,8 C 15,5 C 11,3 km/h (2 Bft) 97,56 %
13.09.2017 09:48 15,8 C 16,7 C 58 % 1013,4 hPa 0,0 l/m 8,4 km/h (2 Bft) SW 236 2 min 0,000 mm 1,6 UV-I 482 W/m 7,6 C 14,7 C 11,3 km/h (2 Bft) 94,55 %
13.09.2017 09:50 15,9 C 16,7 C 58 % 1013,3 hPa 0,0 l/m 9,1 km/h (2 Bft) S-SW 210 2 min 0,000 mm 1,6 UV-I 489 W/m 7,6 C 14,5 C 14,5 km/h (3 Bft) 100,00 %
13.09.2017 09:52 15,9 C 16,7 C 59 % 1013,3 hPa 0,0 l/m 9,0 km/h (2 Bft) W-SW 248 2 min 0,000 mm 1,7 UV-I 491 W/m 7,9 C 14,6 C 16,1 km/h (3 Bft) 100,00 %
13.09.2017 09:54 15,9 C 16,7 C 59 % 1013,3 hPa 0,0 l/m 8,0 km/h (2 Bft) SW 216 2 min 0,000 mm 1,7 UV-I 496 W/m 7,9 C 15,0 C 12,9 km/h (3 Bft) 100,00 %
13.09.2017 09:56 15,9 C 16,7 C 59 % 1013,3 hPa 0,0 l/m 6,4 km/h (2 Bft) SW 227 2 min 0,000 mm 1,7 UV-I 499 W/m 7,9 C 15,9 C 11,3 km/h (2 Bft) 100,00 %
13.09.2017 09:58 15,9 C 16,7 C 61 % 1013,2 hPa 0,0 l/m 7,5 km/h (2 Bft) S-SW 213 2 min 0,000 mm 1,8 UV-I 499 W/m 8,4 C 15,3 C 9,7 km/h (2 Bft) 100,00 %
13.09.2017 10:00 15,9 C 16,7 C 61 % 1013,2 hPa 0,0 l/m 8,0 km/h (2 Bft) SW 219 2 min 0,254 mm 1,8 UV-I 511 W/m 8,4 C 15,0 C 11,3 km/h (2 Bft) 97,56 %
13.09.2017 10:02 15,9 C 16,7 C 60 % 1013,2 hPa 0,0 l/m 6,6 km/h (2 Bft) W-SW 248 2 min 0,000 mm 1,9 UV-I 518 W/m 8,1 C 15,8 C 11,3 km/h (2 Bft) 100,00 %
13.09.2017 10:04 16,0 C 16,7 C 63 % 1013,3 hPa 0,0 l/m 6,7 km/h (2 Bft) SW 225 2 min 0,000 mm 1,9 UV-I 533 W/m 9,0 C 15,8 C 11,3 km/h (2 Bft) 98,00 %
13.09.2017 10:06 16,0 C 16,7 C 60 % 1013,3 hPa 0,0 l/m 6,4 km/h (2 Bft) SW 226 2 min 0,000 mm 1,9 UV-I 535 W/m 8,2 C 16,0 C 12,9 km/h (3 Bft) 95,74 %
13.09.2017 10:08 16,1 C 16,7 C 63 % 1013,3 hPa 0,0 l/m 3,0 km/h (1 Bft) S 181 2 min 0,000 mm 1,9 UV-I 492 W/m 9,1 C 16,1 C 6,4 km/h (2 Bft) 100,00 %
13.09.2017 10:10 16,2 C 16,7 C 65 % 1013,3 hPa 0,0 l/m 6,8 km/h (2 Bft) S-SW 205 2 min 0,000 mm 1,9 UV-I 484 W/m 9,6 C 16,0 C 11,3 km/h (2 Bft) 100,00 %
13.09.2017 10:12 16,3 C 16,7 C 64 % 1013,3 hPa 0,0 l/m 7,9 km/h (2 Bft) SW 231 2 min 0,000 mm 2,0 UV-I 519 W/m 9,5 C 15,5 C 12,9 km/h (3 Bft) 98,51 %
13.09.2017 10:14 16,3 C 16,7 C 62 % 1013,3 hPa 0,0 l/m 3,6 km/h (1 Bft) S-SW 207 2 min 0,000 mm 2,1 UV-I 551 W/m 9,0 C 16,3 C 8,0 km/h (2 Bft) 100,00 %
13.09.2017 10:16 16,3 C 16,7 C 61 % 1013,2 hPa 0,0 l/m 4,1 km/h (1 Bft) SW 219 2 min 0,000 mm 2,2 UV-I 558 W/m 8,8 C 16,3 C 9,7 km/h (2 Bft) 100,00 %
13.09.2017 10:18 16,4 C 16,7 C 61 % 1013,2 hPa 0,0 l/m 5,1 km/h (1 Bft) W-SW 249 2 min 0,000 mm 2,2 UV-I 559 W/m 8,9 C 16,4 C 6,4 km/h (2 Bft) 97,44 %
13.09.2017 10:20 16,4 C 16,7 C 58 % 1013,2 hPa 0,0 l/m 9,3 km/h (2 Bft) SW 217 2 min 0,000 mm 2,2 UV-I 562 W/m 8,1 C 15,0 C 14,5 km/h (3 Bft) 100,00 %
13.09.2017 10:22 16,4 C 16,7 C 60 % 1013,2 hPa 0,0 l/m 7,9 km/h (2 Bft) SW 224 2 min 0,000 mm 2,2 UV-I 569 W/m 8,6 C 15,6 C 11,3 km/h (2 Bft) 100,00 %
13.09.2017 10:24 16,4 C 16,7 C 59 % 1013,2 hPa 0,0 l/m 6,5 km/h (2 Bft) W-SW 257 2 min 0,000 mm 2,3 UV-I 572 W/m 8,4 C 16,4 C 9,7 km/h (2 Bft) 100,00 %
13.09.2017 10:26 16,5 C 16,7 C 58 % 1013,2 hPa 0,0 l/m 5,8 km/h (2 Bft) S-SW 200 2 min 0,000 mm 2,3 UV-I 578 W/m 8,2 C 16,5 C 12,9 km/h (3 Bft) 100,00 %
13.09.2017 10:28 16,6 C 16,7 C 59 % 1013,1 hPa 0,0 l/m 5,1 km/h (1 Bft) SW 232 2 min 0,000 mm 2,4 UV-I 630 W/m 8,6 C 16,6 C 9,7 km/h (2 Bft) 100,00 %
13.09.2017 10:30 16,8 C 16,7 C 60 % 1013,1 hPa 0,0 l/m 10,0 km/h (2 Bft) S-SW 209 2 min 0,000 mm 2,5 UV-I 667 W/m 9,0 C 15,1 C 14,5 km/h (3 Bft) 98,21 %
13.09.2017 10:32 16,9 C 16,7 C 59 % 1013,1 hPa 0,0 l/m 6,0 km/h (2 Bft) W-SW 242 2 min 0,000 mm 2,4 UV-I 700 W/m 8,8 C 16,9 C 8,0 km/h (2 Bft) 96,55 %
13.09.2017 10:34 16,9 C 16,7 C 59 % 1013,0 hPa 0,0 l/m 6,2 km/h (2 Bft) W-SW 255 2 min 0,000 mm 2,2 UV-I 498 W/m 8,8 C 16,9 C 9,7 km/h (2 Bft) 100,00 %
13.09.2017 10:36 16,9 C 16,7 C 58 % 1013,0 hPa 0,0 l/m 6,6 km/h (2 Bft) S 190 2 min 0,000 mm 2,2 UV-I 504 W/m 8,6 C 16,8 C 9,7 km/h (2 Bft) 100,00 %
13.09.2017 10:38 16,9 C 16,7 C 58 % 1012,9 hPa 0,0 l/m 5,3 km/h (1 Bft) W-SW 242 2 min 0,000 mm 1,9 UV-I 413 W/m 8,6 C 16,9 C 11,3 km/h (2 Bft) 100,00 %
13.09.2017 10:40 16,8 C 16,7 C 57 % 1012,9 hPa 0,0 l/m 7,1 km/h (2 Bft) SW 216 2 min 0,000 mm 1,8 UV-I 342 W/m 8,2 C 16,4 C 12,9 km/h (3 Bft) 100,00 %
13.09.2017 10:42 16,7 C 16,7 C 55 % 1012,8 hPa 0,0 l/m 7,4 km/h (2 Bft) S-SW 206 0 min 0,000 mm 1,8 UV-I 312 W/m 7,6 C 16,2 C 11,3 km/h (2 Bft) 100,00 %
13.09.2017 10:44 16,6 C 16,7 C 58 % 1012,8 hPa 0,0 l/m 6,5 km/h (2 Bft) S-SW 205 0 min 0,000 mm 1,8 UV-I 314 W/m 8,3 C 16,6 C 9,7 km/h (2 Bft) 98,21 %
13.09.2017 10:46 16,6 C 16,7 C 58 % 1012,8 hPa 0,0 l/m 5,8 km/h (2 Bft) W-SW 242 0 min 0,000 mm 1,9 UV-I 311 W/m 8,3 C 16,6 C 8,0 km/h (2 Bft) 100,00 %
13.09.2017 10:48 16,6 C 16,7 C 58 % 1012,7 hPa 0,0 l/m 6,0 km/h (2 Bft) W-SW 252 2 min 0,000 mm 2,0 UV-I 334 W/m 8,3 C 16,6 C 11,3 km/h (2 Bft) 98,00 %
13.09.2017 10:50 16,7 C 16,7 C 58 % 1012,7 hPa 0,0 l/m 4,9 km/h (1 Bft) S-SW 197 2 min 0,000 mm 2,3 UV-I 421 W/m 8,4 C 16,7 C 8,0 km/h (2 Bft) 100,00 %
13.09.2017 10:52 16,7 C 16,7 C 55 % 1012,6 hPa 0,0 l/m 7,6 km/h (2 Bft) W-SW 240 2 min 0,000 mm 2,3 UV-I 451 W/m 7,6 C 16,1 C 12,9 km/h (3 Bft) 100,00 %
13.09.2017 10:54 16,8 C 16,7 C 57 % 1012,6 hPa 0,0 l/m 7,5 km/h (2 Bft) W 259 2 min 0,000 mm 2,5 UV-I 488 W/m 8,2 C 16,2 C 12,9 km/h (3 Bft) 98,11 %
13.09.2017 10:56 16,8 C 16,7 C 53 % 1012,6 hPa 0,0 l/m 7,3 km/h (2 Bft) W 261 2 min 0,000 mm 2,5 UV-I 469 W/m 7,2 C 16,3 C 12,9 km/h (3 Bft) 100,00 %
13.09.2017 10:58 16,7 C 16,7 C 55 % 1012,6 hPa 0,0 l/m 4,1 km/h (1 Bft) W 267 2 min 0,000 mm 2,6 UV-I 519 W/m 7,6 C 16,7 C 9,7 km/h (2 Bft) 100,00 %
13.09.2017 11:00 16,9 C 16,7 C 54 % 1012,6 hPa 0,0 l/m 3,9 km/h (1 Bft) S-SW 205 2 min 0,305 mm 2,8 UV-I 598 W/m 7,5 C 16,9 C 6,4 km/h (2 Bft) 100,00 %
13.09.2017 11:02 17,1 C 16,7 C 56 % 1012,5 hPa 0,0 l/m 5,5 km/h (1 Bft) W-SW 248 2 min 0,000 mm 2,5 UV-I 534 W/m 8,3 C 17,1 C 9,7 km/h (2 Bft) 97,37 %
13.09.2017 11:04 17,2 C 16,7 C 56 % 1012,5 hPa 0,0 l/m 5,8 km/h (2 Bft) S-SW 200 2 min 0,000 mm 2,3 UV-I 404 W/m 8,3 C 17,2 C 9,7 km/h (2 Bft) 100,00 %
13.09.2017 11:06 17,1 C 16,7 C 52 % 1012,4 hPa 0,0 l/m 4,4 km/h (1 Bft) S 188 2 min 0,000 mm 2,5 UV-I 445 W/m 7,2 C 17,1 C 9,7 km/h (2 Bft) 98,00 %
13.09.2017 11:08 17,0 C 16,7 C 53 % 1012,4 hPa 0,0 l/m 4,6 km/h (1 Bft) W-SW 246 2 min 0,000 mm 2,6 UV-I 532 W/m 7,4 C 17,0 C 8,0 km/h (2 Bft) 96,00 %
13.09.2017 11:10 17,1 C 16,7 C 52 % 1012,5 hPa 0,0 l/m 5,1 km/h (1 Bft) SW 216 2 min 0,000 mm 2,7 UV-I 507 W/m 7,2 C 17,1 C 11,3 km/h (2 Bft) 97,37 %
13.09.2017 11:12 17,1 C 16,7 C 52 % 1012,3 hPa 0,0 l/m 3,8 km/h (1 Bft) SW 214 2 min 0,000 mm 2,7 UV-I 500 W/m 7,2 C 17,1 C 6,4 km/h (2 Bft) 94,92 %
13.09.2017 11:14 17,2 C 16,7 C 54 % 1012,2 hPa 0,0 l/m 1,4 km/h (1 Bft) S 189 2 min 0,000 mm 2,7 UV-I 521 W/m 7,8 C 17,2 C 3,2 km/h (1 Bft) 94,74 %
13.09.2017 11:16 17,3 C 16,7 C 53 % 1012,2 hPa 0,0 l/m 4,6 km/h (1 Bft) SW 216 2 min 0,000 mm 3,0 UV-I 533 W/m 7,6 C 17,3 C 11,3 km/h (2 Bft) 92,45 %
13.09.2017 11:18 17,4 C 16,7 C 53 % 1012,2 hPa 0,0 l/m 5,3 km/h (1 Bft) SW 233 2 min 0,000 mm 2,8 UV-I 517 W/m 7,7 C 17,4 C 9,7 km/h (2 Bft) 95,45 %
13.09.2017 11:20 17,4 C 16,7 C 54 % 1012,1 hPa 0,0 l/m 1,6 km/h (1 Bft) SW 232 2 min 0,000 mm 2,2 UV-I 520 W/m 8,0 C 17,4 C 4,8 km/h (1 Bft) 93,62 %
13.09.2017 11:22 17,4 C 16,7 C 53 % 1012,3 hPa 0,0 l/m 2,8 km/h (1 Bft) S-SO 161 2 min 0,000 mm 2,9 UV-I 578 W/m 7,7 C 17,4 C 6,4 km/h (2 Bft) 96,00 %
13.09.2017 11:24 17,4 C 16,7 C 51 % 1012,3 hPa 0,0 l/m 3,3 km/h (1 Bft) S 181 2 min 0,000 mm 2,6 UV-I 487 W/m 7,2 C 17,4 C 6,4 km/h (2 Bft) 94,44 %
13.09.2017 11:26 17,3 C 16,7 C 52 % 1012,2 hPa 0,0 l/m 5,4 km/h (1 Bft) S-SO 162 2 min 0,000 mm 2,6 UV-I 466 W/m 7,3 C 17,3 C 14,5 km/h (3 Bft) 96,15 %
13.09.2017 11:28 17,4 C 16,7 C 49 % 1012,2 hPa 0,0 l/m 2,8 km/h (1 Bft) S 172 2 min 0,000 mm 2,7 UV-I 477 W/m 6,6 C 17,4 C 4,8 km/h (1 Bft) 96,23 %
13.09.2017 11:30 17,4 C 16,7 C 52 % 1012,2 hPa 0,0 l/m 4,1 km/h (1 Bft) S-SO 157 2 min 0,000 mm 2,2 UV-I 371 W/m 7,4 C 17,4 C 11,3 km/h (2 Bft) 97,62 %
13.09.2017 11:32 17,4 C 16,7 C 53 % 1012,1 hPa 0,0 l/m 5,9 km/h (2 Bft) O-SO 115 2 min 0,000 mm 2,2 UV-I 385 W/m 7,7 C 17,4 C 12,9 km/h (3 Bft) 94,23 %
13.09.2017 11:34 17,4 C 16,7 C 53 % 1012,1 hPa 0,0 l/m 10,9 km/h (2 Bft) O-SO 114 2 min 0,000 mm 2,2 UV-I 464 W/m 7,7 C 15,4 C 14,5 km/h (3 Bft) 97,62 %
13.09.2017 11:36 17,4 C 16,7 C 51 % 1012,1 hPa 0,0 l/m 7,2 km/h (2 Bft) SO 144 0 min 0,000 mm 2,1 UV-I 344 W/m 7,2 C 17,0 C 14,5 km/h (3 Bft) 93,18 %
13.09.2017 11:38 17,3 C 16,7 C 52 % 1012,0 hPa 0,0 l/m 9,6 km/h (2 Bft) SO 126 0 min 0,000 mm 2,1 UV-I 354 W/m 7,3 C 15,8 C 16,1 km/h (3 Bft) 98,11 %
13.09.2017 11:40 17,3 C 16,7 C 55 % 1012,0 hPa 0,0 l/m 6,0 km/h (2 Bft) O 90 2 min 0,000 mm 2,2 UV-I 385 W/m 8,2 C 17,3 C 11,3 km/h (2 Bft) 97,56 %
13.09.2017 11:42 17,3 C 16,7 C 54 % 1011,8 hPa 0,0 l/m 8,8 km/h (2 Bft) O-NO 76 2 min 0,000 mm 2,3 UV-I 420 W/m 7,9 C 16,2 C 14,5 km/h (3 Bft) 98,00 %
13.09.2017 11:44 17,3 C 16,7 C 54 % 1011,8 hPa 0,0 l/m 9,0 km/h (2 Bft) O-SO 103 2 min 0,000 mm 2,5 UV-I 473 W/m 7,9 C 16,1 C 14,5 km/h (3 Bft) 98,11 %
13.09.2017 11:46 17,4 C 16,7 C 55 % 1011,8 hPa 0,0 l/m 4,6 km/h (1 Bft) O-SO 103 2 min 0,000 mm 2,3 UV-I 443 W/m 8,3 C 17,4 C 6,4 km/h (2 Bft) 97,56 %
13.09.2017 11:48 17,4 C 16,7 C 54 % 1011,9 hPa 0,0 l/m 3,4 km/h (1 Bft) SO 133 2 min 0,000 mm 2,2 UV-I 413 W/m 8,0 C 17,4 C 9,7 km/h (2 Bft) 97,87 %
13.09.2017 11:50 17,5 C 16,7 C 54 % 1011,9 hPa 0,0 l/m 6,2 km/h (2 Bft) O-SO 123 0 min 0,000 mm 2,1 UV-I 367 W/m 8,1 C 17,5 C 11,3 km/h (2 Bft) 97,73 %
13.09.2017 11:52 17,5 C 16,7 C 54 % 1011,9 hPa 0,0 l/m 5,2 km/h (1 Bft) SO 134 0 min 0,000 mm 2,0 UV-I 350 W/m 8,1 C 17,5 C 11,3 km/h (2 Bft) 98,00 %
13.09.2017 11:54 17,6 C 16,7 C 55 % 1011,8 hPa 0,0 l/m 8,2 km/h (2 Bft) SO 132 0 min 0,000 mm 2,0 UV-I 330 W/m 8,5 C 16,7 C 12,9 km/h (3 Bft) 93,62 %
13.09.2017 11:56 17,4 C 16,7 C 55 % 1011,7 hPa 0,0 l/m 10,2 km/h (2 Bft) O 82 0 min 0,000 mm 2,0 UV-I 318 W/m 8,3 C 15,7 C 17,7 km/h (3 Bft) 97,56 %
13.09.2017 11:58 17,4 C 16,7 C 53 % 1011,6 hPa 0,0 l/m 10,1 km/h (2 Bft) O 84 0 min 0,000 mm 2,0 UV-I 321 W/m 7,7 C 15,7 C 14,5 km/h (3 Bft) 94,00 %
13.09.2017 12:00 17,3 C 16,7 C 54 % 1011,6 hPa 0,0 l/m 12,5 km/h (3 Bft) O 81 0 min 0,000 mm 2,0 UV-I 341 W/m 7,9 C 14,8 C 19,3 km/h (3 Bft) 97,87 %
13.09.2017 12:02 17,3 C 16,7 C 56 % 1011,6 hPa 0,0 l/m 6,8 km/h (2 Bft) O-SO 104 0 min 0,280 mm 2,1 UV-I 359 W/m 8,4 C 17,1 C 11,3 km/h (2 Bft) 96,23 %
13.09.2017 12:04 17,3 C 16,7 C 57 % 1011,5 hPa 0,0 l/m 7,9 km/h (2 Bft) O-SO 115 0 min 0,000 mm 2,0 UV-I 335 W/m 8,7 C 16,6 C 14,5 km/h (3 Bft) 97,22 %
13.09.2017 12:06 17,2 C 16,7 C 55 % 1011,6 hPa 0,0 l/m 5,9 km/h (2 Bft) O-SO 104 0 min 0,000 mm 2,2 UV-I 351 W/m 8,1 C 17,2 C 11,3 km/h (2 Bft) 98,00 %
13.09.2017 12:08 17,3 C 16,7 C 54 % 1011,4 hPa 0,0 l/m 7,3 km/h (2 Bft) O-NO 71 2 min 0,000 mm 2,3 UV-I 384 W/m 7,9 C 16,9 C 16,1 km/h (3 Bft) 96,15 %
13.09.2017 12:10 17,3 C 16,7 C 56 % 1011,4 hPa 0,0 l/m 10,6 km/h (2 Bft) NO 55 2 min 0,000 mm 2,3 UV-I 404 W/m 8,4 C 15,4 C 14,5 km/h (3 Bft) 97,44 %
13.09.2017 12:12 17,3 C 16,7 C 57 % 1011,3 hPa 0,0 l/m 7,8 km/h (2 Bft) O-SO 111 0 min 0,000 mm 2,3 UV-I 375 W/m 8,7 C 16,6 C 11,3 km/h (2 Bft) 98,21 %
13.09.2017 12:14 17,4 C 16,7 C 56 % 1011,3 hPa 0,0 l/m 9,0 km/h (2 Bft) O-SO 107 0 min 0,000 mm 2,1 UV-I 344 W/m 8,5 C 16,2 C 16,1 km/h (3 Bft) 98,00 %
13.09.2017 12:16 17,4 C 16,7 C 54 % 1011,2 hPa 0,0 l/m 11,8 km/h (2 Bft) O-SO 115 0 min 0,000 mm 1,9 UV-I 322 W/m 8,0 C 15,1 C 20,9 km/h (4 Bft) 97,73 %
13.09.2017 12:18 17,4 C 16,7 C 55 % 1011,3 hPa 0,0 l/m 5,7 km/h (1 Bft) SO 138 0 min 0,000 mm 1,9 UV-I 294 W/m 8,3 C 17,4 C 14,5 km/h (3 Bft) 96,00 %
13.09.2017 12:20 17,4 C 16,7 C 60 % 1011,3 hPa 0,0 l/m 3,3 km/h (1 Bft) O 79 0 min 0,000 mm 1,9 UV-I 280 W/m 9,6 C 17,4 C 6,4 km/h (2 Bft) 100,00 %
13.09.2017 12:22 17,4 C 16,7 C 55 % 1011,3 hPa 0,0 l/m 9,0 km/h (2 Bft) O-SO 122 0 min 0,000 mm 2,2 UV-I 319 W/m 8,3 C 16,2 C 16,1 km/h (3 Bft) 96,23 %
13.09.2017 12:24 17,4 C 16,7 C 57 % 1011,2 hPa 0,0 l/m 9,0 km/h (2 Bft) O-SO 107 0 min 0,000 mm 2,2 UV-I 345 W/m 8,8 C 16,2 C 17,7 km/h (3 Bft) 95,12 %
13.09.2017 12:26 17,3 C 16,7 C 57 % 1011,0 hPa 0,0 l/m 11,9 km/h (2 Bft) O 96 0 min 0,000 mm 2,2 UV-I 337 W/m 8,7 C 15,0 C 16,1 km/h (3 Bft) 98,21 %
13.09.2017 12:28 17,3 C 16,7 C 57 % 1011,0 hPa 0,0 l/m 8,1 km/h (2 Bft) SO 124 0 min 0,000 mm 1,8 UV-I 287 W/m 8,7 C 16,5 C 14,5 km/h (3 Bft) 97,37 %
13.09.2017 12:30 17,3 C 16,7 C 57 % 1011,0 hPa 0,0 l/m 10,3 km/h (2 Bft) O-NO 77 0 min 0,000 mm 1,7 UV-I 264 W/m 8,7 C 15,5 C 16,1 km/h (3 Bft) 98,00 %
13.09.2017 12:32 17,2 C 16,7 C 59 % 1011,0 hPa 0,0 l/m 9,9 km/h (2 Bft) O-SO 110 0 min 0,000 mm 1,7 UV-I 271 W/m 9,1 C 15,6 C 14,5 km/h (3 Bft) 96,23 %
13.09.2017 12:34 17,2 C 16,7 C 57 % 1010,9 hPa 0,0 l/m 6,0 km/h (2 Bft) O-NO 65 0 min 0,000 mm 1,8 UV-I 276 W/m 8,6 C 17,2 C 9,7 km/h (2 Bft) 97,56 %
13.09.2017 12:36 17,3 C 16,7 C 56 % 1011,0 hPa 0,0 l/m 10,3 km/h (2 Bft) O 82 0 min 0,000 mm 1,9 UV-I 283 W/m 8,4 C 15,5 C 14,5 km/h (3 Bft) 95,45 %
13.09.2017 12:38 17,3 C 16,7 C 56 % 1011,0 hPa 0,0 l/m 6,6 km/h (2 Bft) NO 55 0 min 0,000 mm 1,8 UV-I 271 W/m 8,4 C 17,2 C 11,3 km/h (2 Bft) 98,11 %
13.09.2017 12:40 17,3 C 16,7 C 55 % 1010,9 hPa 0,0 l/m 10,0 km/h (2 Bft) O-NO 69 0 min 0,000 mm 1,7 UV-I 267 W/m 8,2 C 15,7 C 17,7 km/h (3 Bft) 97,37 %
13.09.2017 12:42 17,4 C 16,7 C 58 % 1010,8 hPa 0,0 l/m 10,8 km/h (2 Bft) O 82 0 min 0,000 mm 1,9 UV-I 290 W/m 9,1 C 15,5 C 16,1 km/h (3 Bft) 100,00 %
13.09.2017 12:44 17,4 C 16,7 C 58 % 1010,9 hPa 0,0 l/m 8,3 km/h (2 Bft) O 100 0 min 0,000 mm 2,0 UV-I 294 W/m 9,1 C 16,5 C 16,1 km/h (3 Bft) 100,00 %
13.09.2017 12:46 17,4 C 16,7 C 55 % 1011,0 hPa 0,0 l/m 8,8 km/h (2 Bft) O-NO 74 0 min 0,000 mm 2,1 UV-I 308 W/m 8,3 C 16,3 C 16,1 km/h (3 Bft) 100,00 %
13.09.2017 12:48 17,5 C 16,7 C 56 % 1011,0 hPa 0,0 l/m 4,9 km/h (1 Bft) O-NO 61 0 min 0,000 mm 2,2 UV-I 320 W/m 8,6 C 17,5 C 8,0 km/h (2 Bft) 100,00 %
13.09.2017 12:50 17,6 C 16,7 C 56 % 1011,0 hPa 0,0 l/m 6,6 km/h (2 Bft) NO 42 0 min 0,000 mm 1,9 UV-I 300 W/m 8,7 C 17,5 C 11,3 km/h (2 Bft) 100,00 %
13.09.2017 12:52 17,6 C 16,7 C 54 % 1011,0 hPa 0,0 l/m 9,3 km/h (2 Bft) O-NO 60 0 min 0,000 mm 1,5 UV-I 248 W/m 8,2 C 16,3 C 14,5 km/h (3 Bft) 98,11 %
13.09.2017 12:54 17,6 C 16,7 C 56 % 1011,0 hPa 0,0 l/m 6,8 km/h (2 Bft) O-NO 57 0 min 0,000 mm 1,3 UV-I 212 W/m 8,7 C 17,4 C 12,9 km/h (3 Bft) 98,11 %
13.09.2017 12:56 17,6 C 16,7 C 58 % 1011,1 hPa 0,0 l/m 8,9 km/h (2 Bft) O-NO 69 0 min 0,000 mm 1,3 UV-I 209 W/m 9,2 C 16,4 C 12,9 km/h (3 Bft) 100,00 %
13.09.2017 12:58 17,6 C 16,7 C 55 % 1011,1 hPa 0,0 l/m 8,8 km/h (2 Bft) NO 37 0 min 0,000 mm 1,6 UV-I 248 W/m 8,5 C 16,5 C 12,9 km/h (3 Bft) 100,00 %
13.09.2017 13:00 17,5 C 16,7 C 59 % 1011,1 hPa 0,0 l/m 9,1 km/h (2 Bft) NO 55 0 min 0,228 mm 1,9 UV-I 291 W/m 9,4 C 16,2 C 14,5 km/h (3 Bft) 98,00 %
13.09.2017 13:02 17,5 C 16,7 C 60 % 1011,0 hPa 0,0 l/m 7,8 km/h (2 Bft) NO 40 0 min 0,000 mm 1,9 UV-I 300 W/m 9,6 C 16,8 C 11,3 km/h (2 Bft) 97,56 %
13.09.2017 13:04 17,5 C 16,7 C 57 % 1011,0 hPa 0,0 l/m 8,7 km/h (2 Bft) NO 42 0 min 0,000 mm 1,9 UV-I 300 W/m 8,9 C 16,4 C 14,5 km/h (3 Bft) 98,00 %
13.09.2017 13:06 17,6 C 16,7 C 57 % 1011,0 hPa 0,0 l/m 7,2 km/h (2 Bft) NO 44 0 min 0,000 mm 1,9 UV-I 299 W/m 9,0 C 17,2 C 9,7 km/h (2 Bft) 97,56 %
13.09.2017 13:08 17,6 C 16,7 C 58 % 1011,0 hPa 0,0 l/m 7,3 km/h (2 Bft) NO 51 0 min 0,000 mm 1,9 UV-I 305 W/m 9,2 C 17,2 C 9,7 km/h (2 Bft) 97,56 %
13.09.2017 13:10 17,7 C 16,7 C 59 % 1011,0 hPa 0,0 l/m 6,8 km/h (2 Bft) NO 51 0 min 0,000 mm 1,9 UV-I 287 W/m 9,6 C 17,5 C 12,9 km/h (3 Bft) 98,39 %
13.09.2017 13:12 17,7 C 16,7 C 57 % 1011,1 hPa 0,0 l/m 2,9 km/h (1 Bft) O-NO 61 0 min 0,000 mm 2,0 UV-I 286 W/m 9,1 C 17,7 C 6,4 km/h (2 Bft) 95,45 %
13.09.2017 13:14 17,7 C 16,7 C 61 % 1011,1 hPa 0,0 l/m 2,2 km/h (1 Bft) N-NW 331 0 min 0,000 mm 2,4 UV-I 343 W/m 10,1 C 17,7 C 6,4 km/h (2 Bft) 97,56 %
13.09.2017 13:16 17,7 C 16,7 C 58 % 1011,1 hPa 0,0 l/m 1,7 km/h (1 Bft) N-NO 26 2 min 0,000 mm 2,6 UV-I 392 W/m 9,3 C 17,7 C 6,4 km/h (2 Bft) 96,00 %
13.09.2017 13:18 17,8 C 16,7 C 59 % 1011,0 hPa 0,0 l/m 7,8 km/h (2 Bft) NO 39 2 min 0,000 mm 2,5 UV-I 392 W/m 9,7 C 17,1 C 11,3 km/h (2 Bft) 96,00 %
13.09.2017 13:20 17,8 C 16,7 C 59 % 1010,9 hPa 0,0 l/m 9,1 km/h (2 Bft) O-NO 66 0 min 0,000 mm 1,9 UV-I 309 W/m 9,7 C 16,6 C 12,9 km/h (3 Bft) 98,00 %
13.09.2017 13:22 17,9 C 16,7 C 57 % 1011,0 hPa 0,0 l/m 5,8 km/h (2 Bft) O-NO 61 0 min 0,000 mm 1,7 UV-I 270 W/m 9,3 C 17,9 C 12,9 km/h (3 Bft) 97,73 %
13.09.2017 13:24 17,8 C 16,7 C 59 % 1011,1 hPa 0,0 l/m 2,7 km/h (1 Bft) NO 41 0 min 0,000 mm 1,7 UV-I 270 W/m 9,7 C 17,8 C 6,4 km/h (2 Bft) 97,62 %
13.09.2017 13:26 17,8 C 16,7 C 63 % 1011,2 hPa 0,0 l/m 5,5 km/h (1 Bft) N-NO 31 0 min 0,000 mm 1,7 UV-I 266 W/m 10,7 C 17,8 C 8,0 km/h (2 Bft) 98,18 %
13.09.2017 13:28 17,7 C 16,7 C 61 % 1011,2 hPa 0,0 l/m 8,9 km/h (2 Bft) NO 41 0 min 0,000 mm 1,8 UV-I 274 W/m 10,1 C 16,5 C 12,9 km/h (3 Bft) 97,62 %
13.09.2017 13:30 17,7 C 16,7 C 59 % 1011,1 hPa 0,0 l/m 6,0 km/h (2 Bft) O-NO 66 0 min 0,000 mm 2,1 UV-I 321 W/m 9,6 C 17,7 C 12,9 km/h (3 Bft) 98,00 %
13.09.2017 13:32 17,8 C 16,7 C 58 % 1011,0 hPa 0,0 l/m 9,8 km/h (2 Bft) O-NO 64 0 min 0,000 mm 2,2 UV-I 326 W/m 9,4 C 16,3 C 14,5 km/h (3 Bft) 98,00 %
13.09.2017 13:34 17,8 C 16,7 C 57 % 1011,0 hPa 0,0 l/m 11,1 km/h (2 Bft) O 81 0 min 0,000 mm 2,1 UV-I 301 W/m 9,2 C 15,8 C 14,5 km/h (3 Bft) 100,00 %
13.09.2017 13:36 17,8 C 16,7 C 58 % 1010,9 hPa 0,0 l/m 8,2 km/h (2 Bft) NO 44 0 min 0,000 mm 1,9 UV-I 268 W/m 9,4 C 17,0 C 12,9 km/h (3 Bft) 96,43 %
13.09.2017 13:38 17,7 C 16,7 C 58 % 1010,9 hPa 0,0 l/m 5,7 km/h (1 Bft) O-NO 59 0 min 0,000 mm 1,8 UV-I 261 W/m 9,3 C 17,7 C 9,7 km/h (2 Bft) 100,00 %
13.09.2017 13:40 17,7 C 16,7 C 58 % 1010,9 hPa 0,0 l/m 7,8 km/h (2 Bft) O-NO 71 0 min 0,000 mm 2,0 UV-I 278 W/m 9,3 C 17,0 C 12,9 km/h (3 Bft) 100,00 %
13.09.2017 13:42 17,7 C 16,7 C 57 % 1010,7 hPa 0,0 l/m 11,3 km/h (2 Bft) NO 54 0 min 0,000 mm 2,1 UV-I 295 W/m 9,1 C 15,6 C 17,7 km/h (3 Bft) 97,37 %
13.09.2017 13:44 17,8 C 16,7 C 61 % 1010,9 hPa 0,0 l/m 3,9 km/h (1 Bft) N-NO 20 0 min 0,000 mm 2,3 UV-I 378 W/m 10,2 C 17,8 C 8,0 km/h (2 Bft) 100,00 %
13.09.2017 13:46 17,8 C 16,7 C 60 % 1011,0 hPa 0,0 l/m 3,0 km/h (1 Bft) N-NO 26 0 min 0,000 mm 2,2 UV-I 365 W/m 9,9 C 17,8 C 6,4 km/h (2 Bft) 100,00 %
13.09.2017 13:48 17,8 C 16,7 C 60 % 1011,0 hPa 0,0 l/m 8,0 km/h (2 Bft) O-NO 66 0 min 0,000 mm 2,0 UV-I 300 W/m 9,9 C 17,0 C 12,9 km/h (3 Bft) 98,00 %
13.09.2017 13:50 17,8 C 16,7 C 59 % 1010,9 hPa 0,0 l/m 6,6 km/h (2 Bft) NO 54 0 min 0,000 mm 1,8 UV-I 281 W/m 9,7 C 17,7 C 11,3 km/h (2 Bft) 98,00 %
13.09.2017 13:52 17,8 C 16,7 C 57 % 1011,0 hPa 0,0 l/m 5,9 km/h (2 Bft) O-NO 60 0 min 0,000 mm 2,0 UV-I 315 W/m 9,2 C 17,8 C 9,7 km/h (2 Bft) 100,00 %
13.09.2017 13:54 17,8 C 16,7 C 59 % 1011,0 hPa 0,0 l/m 6,0 km/h (2 Bft) N-NO 28 2 min 0,000 mm 2,4 UV-I 393 W/m 9,7 C 17,8 C 8,0 km/h (2 Bft) 100,00 %
13.09.2017 13:56 17,9 C 16,7 C 62 % 1010,8 hPa 0,0 l/m 10,5 km/h (2 Bft) NO 46 2 min 0,000 mm 2,5 UV-I 400 W/m 10,5 C 16,1 C 16,1 km/h (3 Bft) 100,00 %
13.09.2017 13:59 17,9 C 16,7 C 57 % 1010,8 hPa 0,0 l/m 9,5 km/h (2 Bft) NO 34 3 min 0,000 mm 2,3 UV-I 384 W/m 9,3 C 16,5 C 14,5 km/h (3 Bft) 98,53 %
13.09.2017 14:00 17,9 C 16,7 C 57 % 1010,8 hPa 0,0 l/m 9,0 km/h (2 Bft) NO 46 0 min 0,229 mm 2,2 UV-I 356 W/m 9,3 C 16,7 C 11,3 km/h (2 Bft) 100,00 %
13.09.2017 14:02 18,0 C 16,7 C 61 % 1010,8 hPa 0,0 l/m 5,3 km/h (1 Bft) NO 49 0 min 0,000 mm 2,3 UV-I 365 W/m 10,4 C 18,0 C 9,7 km/h (2 Bft) 100,00 %
13.09.2017 14:04 18,0 C 16,7 C 61 % 1010,9 hPa 0,0 l/m 1,6 km/h (1 Bft) N-NO 22 0 min 0,000 mm 2,2 UV-I 356 W/m 10,4 C 18,0 C 4,8 km/h (1 Bft) 100,00 %
13.09.2017 14:06 18,1 C 16,7 C 65 % 1011,0 hPa 0,0 l/m 1,1 km/h (1 Bft) N-NO 17 0 min 0,000 mm 2,3 UV-I 360 W/m 11,4 C 18,1 C 4,8 km/h (1 Bft) 98,00 %
13.09.2017 14:08 18,1 C 16,7 C 62 % 1010,9 hPa 0,0 l/m 2,6 km/h (1 Bft) N-NO 15 0 min 0,000 mm 2,2 UV-I 333 W/m 10,7 C 18,1 C 4,8 km/h (1 Bft) 100,00 %
13.09.2017 14:10 18,1 C 16,7 C 64 % 1010,8 hPa 0,0 l/m 6,8 km/h (2 Bft) NO 53 0 min 0,000 mm 2,2 UV-I 335 W/m 11,2 C 17,9 C 11,3 km/h (2 Bft) 100,00 %
13.09.2017 14:12 18,1 C 16,7 C 63 % 1010,7 hPa 0,0 l/m 11,3 km/h (2 Bft) NO 43 0 min 0,000 mm 2,1 UV-I 343 W/m 10,9 C 16,1 C 14,5 km/h (3 Bft) 100,00 %
13.09.2017 14:14 18,0 C 16,7 C 62 % 1010,8 hPa 0,0 l/m 7,1 km/h (2 Bft) NO 36 0 min 0,000 mm 2,0 UV-I 321 W/m 10,6 C 17,7 C 9,7 km/h (2 Bft) 100,00 %
13.09.2017 14:16 18,0 C 16,7 C 61 % 1010,7 hPa 0,0 l/m 8,1 km/h (2 Bft) NO 40 0 min 0,000 mm 2,0 UV-I 315 W/m 10,4 C 17,2 C 11,3 km/h (2 Bft) 100,00 %
13.09.2017 14:18 18,1 C 16,7 C 62 % 1010,7 hPa 0,0 l/m 6,9 km/h (2 Bft) NO 44 0 min 0,000 mm 1,8 UV-I 281 W/m 10,7 C 17,9 C 11,3 km/h (2 Bft) 100,00 %
13.09.2017 14:20 18,1 C 16,7 C 61 % 1010,7 hPa 0,0 l/m 8,2 km/h (2 Bft) N-NO 32 0 min 0,000 mm 1,7 UV-I 256 W/m 10,5 C 17,3 C 12,9 km/h (3 Bft) 100,00 %
13.09.2017 14:22 18,1 C 16,7 C 63 % 1010,8 hPa 0,0 l/m 4,9 km/h (1 Bft) N-NO 14 0 min 0,000 mm 1,7 UV-I 244 W/m 10,9 C 18,1 C 9,7 km/h (2 Bft) 97,37 %
13.09.2017 14:24 17,9 C 16,7 C 63 % 1010,8 hPa 0,0 l/m 3,3 km/h (1 Bft) N-NO 15 0 min 0,000 mm 1,8 UV-I 253 W/m 10,8 C 17,9 C 6,4 km/h (2 Bft) 100,00 %
13.09.2017 14:26 17,8 C 16,7 C 68 % 1010,9 hPa 0,0 l/m 4,0 km/h (1 Bft) N-NO 18 0 min 0,000 mm 1,7 UV-I 247 W/m 11,8 C 17,8 C 8,0 km/h (2 Bft) 100,00 %
13.09.2017 14:28 17,8 C 16,7 C 67 % 1010,8 hPa 0,0 l/m 6,4 km/h (2 Bft) NO 38 0 min 0,000 mm 1,6 UV-I 231 W/m 11,6 C 17,8 C 8,0 km/h (2 Bft) 97,87 %
13.09.2017 14:30 17,7 C 16,7 C 67 % 1010,8 hPa 0,0 l/m 4,9 km/h (1 Bft) N-NO 32 0 min 0,000 mm 1,4 UV-I 210 W/m 11,5 C 17,7 C 6,4 km/h (2 Bft) 100,00 %
13.09.2017 14:32 17,7 C 16,7 C 67 % 1010,8 hPa 0,0 l/m 4,5 km/h (1 Bft) NO 53 0 min 0,000 mm 1,4 UV-I 206 W/m 11,5 C 17,7 C 8,0 km/h (2 Bft) 100,00 %
13.09.2017 14:34 17,8 C 16,7 C 65 % 1010,9 hPa 0,0 l/m 3,8 km/h (1 Bft) NO 53 0 min 0,000 mm 1,3 UV-I 184 W/m 11,1 C 17,8 C 4,8 km/h (1 Bft) 100,00 %
13.09.2017 14:36 17,8 C 16,7 C 67 % 1010,9 hPa 0,0 l/m 4,1 km/h (1 Bft) NO 53 0 min 0,000 mm 1,2 UV-I 182 W/m 11,6 C 17,8 C 6,4 km/h (2 Bft) 97,56 %
13.09.2017 14:38 17,8 C 17,2 C 67 % 1010,9 hPa 0,0 l/m 3,5 km/h (1 Bft) NO 53 0 min 0,000 mm 1,3 UV-I 197 W/m 11,6 C 17,8 C 4,8 km/h (1 Bft) 100,00 %
13.09.2017 14:40 17,8 C 16,7 C 69 % 1010,8 hPa 0,0 l/m 4,0 km/h (1 Bft) NO 53 0 min 0,000 mm 1,3 UV-I 203 W/m 12,0 C 17,8 C 4,8 km/h (1 Bft) 100,00 %
13.09.2017 14:42 17,8 C 16,7 C 66 % 1010,8 hPa 0,0 l/m 4,5 km/h (1 Bft) O-NO 57 0 min 0,000 mm 1,2 UV-I 184 W/m 11,4 C 17,8 C 6,4 km/h (2 Bft) 100,00 %
13.09.2017 14:44 17,8 C 16,7 C 66 % 1010,8 hPa 0,0 l/m 5,5 km/h (1 Bft) O-NO 66 0 min 0,000 mm 1,2 UV-I 184 W/m 11,4 C 17,8 C 8,0 km/h (2 Bft) 100,00 %
13.09.2017 14:46 17,8 C 16,7 C 66 % 1010,7 hPa 0,0 l/m 5,0 km/h (1 Bft) O-NO 57 0 min 0,000 mm 1,3 UV-I 187 W/m 11,4 C 17,8 C 6,4 km/h (2 Bft) 100,00 %
13.09.2017 14:48 17,8 C 16,7 C 70 % 1010,7 hPa 0,0 l/m 6,7 km/h (2 Bft) O-NO 63 0 min 0,000 mm 1,1 UV-I 172 W/m 12,3 C 17,7 C 9,7 km/h (2 Bft) 100,00 %
13.09.2017 14:50 17,8 C 17,2 C 69 % 1010,7 hPa 0,0 l/m 5,3 km/h (1 Bft) O 94 0 min 0,000 mm 1,1 UV-I 171 W/m 12,0 C 17,8 C 8,0 km/h (2 Bft) 100,00 %
13.09.2017 14:52 17,7 C 16,7 C 68 % 1010,8 hPa 0,0 l/m 4,5 km/h (1 Bft) O-NO 76 0 min 0,000 mm 1,1 UV-I 173 W/m 11,7 C 17,7 C 6,4 km/h (2 Bft) 98,11 %
13.09.2017 14:54 17,6 C 17,2 C 69 % 1010,9 hPa 0,0 l/m 4,8 km/h (1 Bft) O 86 0 min 0,000 mm 1,1 UV-I 179 W/m 11,8 C 17,6 C 6,4 km/h (2 Bft) 100,00 %
13.09.2017 14:56 17,6 C 17,2 C 67 % 1010,9 hPa 0,0 l/m 4,8 km/h (1 Bft) O 93 0 min 0,000 mm 1,1 UV-I 190 W/m 11,4 C 17,6 C 6,4 km/h (2 Bft) 100,00 %
13.09.2017 14:58 17,6 C 17,2 C 68 % 1010,9 hPa 0,0 l/m 5,2 km/h (1 Bft) O 101 0 min 0,000 mm 1,2 UV-I 197 W/m 11,6 C 17,6 C 11,3 km/h (2 Bft) 100,00 %
13.09.2017 15:00 17,6 C 17,2 C 66 % 1010,9 hPa 0,0 l/m 4,6 km/h (1 Bft) O 86 0 min 0,152 mm 1,0 UV-I 180 W/m 11,2 C 17,6 C 6,4 km/h (2 Bft) 98,11 %
13.09.2017 15:02 17,6 C 17,2 C 66 % 1010,8 hPa 0,0 l/m 5,6 km/h (1 Bft) O-NO 74 0 min 0,000 mm 1,1 UV-I 180 W/m 11,2 C 17,6 C 8,0 km/h (2 Bft) 94,00 %
13.09.2017 15:04 17,6 C 17,2 C 69 % 1010,8 hPa 0,0 l/m 5,7 km/h (1 Bft) O-NO 76 0 min 0,000 mm 1,1 UV-I 184 W/m 11,8 C 17,6 C 8,0 km/h (2 Bft) 95,12 %
13.09.2017 15:06 17,7 C 17,2 C 68 % 1010,7 hPa 0,0 l/m 4,9 km/h (1 Bft) O 88 0 min 0,000 mm 1,2 UV-I 192 W/m 11,7 C 17,7 C 6,4 km/h (2 Bft) 96,23 %
13.09.2017 15:08 17,6 C 17,2 C 67 % 1010,6 hPa 0,0 l/m 5,1 km/h (1 Bft) O-NO 72 0 min 0,000 mm 1,2 UV-I 191 W/m 11,4 C 17,6 C 6,4 km/h (2 Bft) 97,37 %
13.09.2017 15:10 17,6 C 17,2 C 64 % 1010,6 hPa 0,0 l/m 8,1 km/h (2 Bft) O 96 0 min 0,000 mm 1,1 UV-I 184 W/m 10,7 C 16,8 C 11,3 km/h (2 Bft) 97,56 %
13.09.2017 15:12 17,7 C 17,2 C 66 % 1010,5 hPa 0,0 l/m 8,2 km/h (2 Bft) O-NO 76 0 min 0,000 mm 1,1 UV-I 174 W/m 11,3 C 16,8 C 11,3 km/h (2 Bft) 98,21 %
13.09.2017 15:14 17,7 C 17,2 C 66 % 1010,5 hPa 0,0 l/m 9,2 km/h (2 Bft) O-SO 111 0 min 0,000 mm 0,9 UV-I 150 W/m 11,3 C 16,4 C 12,9 km/h (3 Bft) 98,00 %
13.09.2017 15:16 17,7 C 17,2 C 66 % 1010,6 hPa 0,0 l/m 4,8 km/h (1 Bft) O 90 0 min 0,000 mm 0,9 UV-I 152 W/m 11,3 C 17,7 C 8,0 km/h (2 Bft) 96,00 %
13.09.2017 15:18 17,6 C 17,2 C 68 % 1010,5 hPa 0,0 l/m 4,1 km/h (1 Bft) O-SO 107 0 min 0,000 mm 1,1 UV-I 194 W/m 11,6 C 17,6 C 6,4 km/h (2 Bft) 97,73 %
13.09.2017 15:20 17,6 C 17,2 C 67 % 1010,4 hPa 0,0 l/m 7,3 km/h (2 Bft) O 96 0 min 0,000 mm 1,5 UV-I 244 W/m 11,4 C 17,2 C 11,3 km/h (2 Bft) 98,00 %
13.09.2017 15:22 17,7 C 17,2 C 67 % 1010,3 hPa 0,0 l/m 8,3 km/h (2 Bft) SO 135 0 min 0,000 mm 1,6 UV-I 265 W/m 11,5 C 16,8 C 11,3 km/h (2 Bft) 97,73 %
13.09.2017 15:24 17,7 C 17,2 C 69 % 1010,2 hPa 0,0 l/m 7,0 km/h (2 Bft) O-SO 104 0 min 0,000 mm 1,5 UV-I 243 W/m 11,9 C 17,4 C 9,7 km/h (2 Bft) 95,56 %
13.09.2017 15:26 17,8 C 17,2 C 67 % 1010,2 hPa 0,0 l/m 6,1 km/h (2 Bft) O 92 0 min 0,000 mm 1,4 UV-I 232 W/m 11,6 C 17,8 C 11,3 km/h (2 Bft) 96,00 %
13.09.2017 15:28 17,8 C 17,2 C 68 % 1010,2 hPa 0,0 l/m 3,6 km/h (1 Bft) O-NO 74 0 min 0,000 mm 1,2 UV-I 207 W/m 11,8 C 17,8 C 6,4 km/h (2 Bft) 97,37 %
13.09.2017 15:30 17,9 C 17,2 C 64 % 1010,4 hPa 0,0 l/m 5,4 km/h (1 Bft) O-SO 104 0 min 0,000 mm 1,0 UV-I 176 W/m 11,0 C 17,9 C 9,7 km/h (2 Bft) 98,00 %
13.09.2017 15:32 17,9 C 17,2 C 62 % 1010,5 hPa 0,0 l/m 3,6 km/h (1 Bft) O 95 0 min 0,000 mm 0,9 UV-I 160 W/m 10,5 C 17,9 C 9,7 km/h (2 Bft) 100,00 %
13.09.2017 15:34 17,9 C 17,2 C 62 % 1010,5 hPa 0,0 l/m 6,6 km/h (2 Bft) O 88 0 min 0,000 mm 0,8 UV-I 144 W/m 10,5 C 17,8 C 9,7 km/h (2 Bft) 100,00 %
13.09.2017 15:36 17,8 C 17,2 C 64 % 1010,5 hPa 0,0 l/m 7,7 km/h (2 Bft) O 96 0 min 0,000 mm 0,9 UV-I 160 W/m 10,9 C 17,2 C 11,3 km/h (2 Bft) 100,00 %
13.09.2017 15:38 17,8 C 17,2 C 63 % 1010,5 hPa 0,0 l/m 7,9 km/h (2 Bft) O 94 0 min 0,000 mm 1,0 UV-I 185 W/m 10,7 C 17,1 C 9,7 km/h (2 Bft) 97,56 %
13.09.2017 15:40 17,8 C 17,2 C 64 % 1010,4 hPa 0,0 l/m 8,3 km/h (2 Bft) O 82 0 min 0,000 mm 1,0 UV-I 184 W/m 10,9 C 16,9 C 11,3 km/h (2 Bft) 100,00 %
13.09.2017 15:42 17,8 C 17,2 C 64 % 1010,5 hPa 0,0 l/m 5,4 km/h (1 Bft) O 86 0 min 0,000 mm 0,9 UV-I 168 W/m 10,9 C 17,8 C 6,4 km/h (2 Bft) 100,00 %
13.09.2017 15:44 17,8 C 17,2 C 65 % 1010,4 hPa 0,0 l/m 3,4 km/h (1 Bft) O 86 0 min 0,000 mm 0,8 UV-I 162 W/m 11,1 C 17,8 C 4,8 km/h (1 Bft) 100,00 %
13.09.2017 15:46 17,9 C 17,2 C 64 % 1010,5 hPa 0,0 l/m 2,7 km/h (1 Bft) O 86 0 min 0,000 mm 0,8 UV-I 151 W/m 11,0 C 17,9 C 4,8 km/h (1 Bft) 100,00 %
13.09.2017 15:48 17,9 C 17,2 C 63 % 1010,6 hPa 0,0 l/m 3,6 km/h (1 Bft) O-NO 70 0 min 0,000 mm 0,8 UV-I 154 W/m 10,8 C 17,9 C 6,4 km/h (2 Bft) 100,00 %
13.09.2017 15:50 18,0 C 17,2 C 66 % 1010,7 hPa 0,0 l/m 3,4 km/h (1 Bft) O-NO 70 0 min 0,000 mm 0,9 UV-I 165 W/m 11,6 C 18,0 C 6,4 km/h (2 Bft) 98,00 %
13.09.2017 15:52 18,0 C 17,2 C 62 % 1010,7 hPa 0,0 l/m 5,1 km/h (1 Bft) O-NO 70 0 min 0,000 mm 0,8 UV-I 158 W/m 10,6 C 18,0 C 8,0 km/h (2 Bft) 100,00 %
13.09.2017 15:54 18,0 C 17,2 C 63 % 1010,6 hPa 0,0 l/m 6,5 km/h (2 Bft) O 88 0 min 0,000 mm 0,8 UV-I 169 W/m 10,8 C 18,0 C 11,3 km/h (2 Bft) 98,44 %
13.09.2017 15:56 17,9 C 17,2 C 65 % 1010,5 hPa 0,0 l/m 5,4 km/h (1 Bft) O-NO 73 0 min 0,000 mm 0,9 UV-I 189 W/m 11,2 C 17,9 C 8,0 km/h (2 Bft) 100,00 %
13.09.2017 15:58 17,9 C 17,2 C 63 % 1010,5 hPa 0,0 l/m 5,4 km/h (1 Bft) O-NO 65 0 min 0,000 mm 0,9 UV-I 178 W/m 10,8 C 17,9 C 8,0 km/h (2 Bft) 100,00 %
13.09.2017 16:00 18,0 C 17,2 C 65 % 1010,4 hPa 0,0 l/m 7,2 km/h (2 Bft) O-NO 63 0 min 0,127 mm 0,9 UV-I 174 W/m 11,3 C 17,6 C 11,3 km/h (2 Bft) 100,00 %
13.09.2017 16:02 18,0 C 17,2 C 65 % 1010,4 hPa 0,0 l/m 5,2 km/h (1 Bft) O-SO 112 0 min 0,000 mm 0,8 UV-I 148 W/m 11,3 C 18,0 C 6,4 km/h (2 Bft) 97,44 %
13.09.2017 16:04 17,9 C 17,2 C 63 % 1010,5 hPa 0,0 l/m 4,9 km/h (1 Bft) O-SO 106 0 min 0,000 mm 0,7 UV-I 155 W/m 10,8 C 17,9 C 6,4 km/h (2 Bft) 98,11 %
13.09.2017 16:06 17,9 C 17,2 C 64 % 1010,5 hPa 0,0 l/m 4,5 km/h (1 Bft) O-SO 107 0 min 0,000 mm 0,7 UV-I 152 W/m 11,0 C 17,9 C 6,4 km/h (2 Bft) 100,00 %
13.09.2017 16:08 17,9 C 17,2 C 65 % 1010,5 hPa 0,0 l/m 4,1 km/h (1 Bft) O-NO 77 0 min 0,000 mm 0,7 UV-I 130 W/m 11,2 C 17,9 C 4,8 km/h (1 Bft) 100,00 %
13.09.2017 16:10 17,9 C 17,2 C 64 % 1010,6 hPa 0,0 l/m 3,3 km/h (1 Bft) O-NO 77 0 min 0,000 mm 0,4 UV-I 103 W/m 11,0 C 17,9 C 4,8 km/h (1 Bft) 96,23 %
13.09.2017 16:12 17,9 C 17,2 C 65 % 1010,5 hPa 0,0 l/m 4,2 km/h (1 Bft) O 84 0 min 0,000 mm 0,0 UV-I 89 W/m 11,2 C 17,9 C 6,4 km/h (2 Bft) 97,87 %
13.09.2017 16:14 17,9 C 17,2 C 65 % 1010,5 hPa 0,0 l/m 4,6 km/h (1 Bft) O-SO 116 0 min 0,000 mm 0,2 UV-I 104 W/m 11,2 C 17,9 C 9,7 km/h (2 Bft) 96,00 %
13.09.2017 16:16 17,8 C 17,2 C 66 % 1010,5 hPa 0,0 l/m 2,8 km/h (1 Bft) O-SO 116 0 min 0,000 mm 0,6 UV-I 133 W/m 11,4 C 17,8 C 4,8 km/h (1 Bft) 97,56 %
13.09.2017 16:18 17,8 C 17,2 C 66 % 1010,6 hPa 0,0 l/m 1,9 km/h (1 Bft) O 87 0 min 0,000 mm 0,6 UV-I 117 W/m 11,4 C 17,8 C 4,8 km/h (1 Bft) 98,11 %
13.09.2017 16:20 17,8 C 17,2 C 64 % 1010,5 hPa 0,0 l/m 6,6 km/h (2 Bft) O-NO 71 0 min 0,000 mm 0,1 UV-I 77 W/m 10,9 C 17,7 C 8,0 km/h (2 Bft) 95,12 %
13.09.2017 16:22 17,8 C 17,2 C 63 % 1010,5 hPa 0,0 l/m 4,9 km/h (1 Bft) O-NO 69 0 min 0,000 mm 0,0 UV-I 65 W/m 10,7 C 17,8 C 8,0 km/h (2 Bft) 98,00 %
13.09.2017 16:24 17,8 C 17,2 C 65 % 1010,6 hPa 0,0 l/m 2,7 km/h (1 Bft) O-NO 69 0 min 0,000 mm 0,0 UV-I 63 W/m 11,1 C 17,8 C 4,8 km/h (1 Bft) 98,00 %
13.09.2017 16:26 17,8 C 17,2 C 65 % 1010,7 hPa 0,0 l/m 1,9 km/h (1 Bft) O-NO 69 0 min 0,000 mm 0,0 UV-I 63 W/m 11,1 C 17,8 C 4,8 km/h (1 Bft) 97,87 %
13.09.2017 16:28 17,8 C 17,2 C 66 % 1010,7 hPa 0,0 l/m 3,3 km/h (1 Bft) O-NO 69 0 min 0,000 mm 0,0 UV-I 77 W/m 11,4 C 17,8 C 4,8 km/h (1 Bft) 97,87 %
13.09.2017 16:30 17,7 C 17,2 C 67 % 1010,7 hPa 0,0 l/m 4,5 km/h (1 Bft) O-SO 102 0 min 0,000 mm 0,0 UV-I 85 W/m 11,5 C 17,7 C 6,4 km/h (2 Bft) 97,37 %
13.09.2017 16:32 17,7 C 17,2 C 68 % 1010,7 hPa 0,0 l/m 2,1 km/h (1 Bft) O-SO 102 0 min 0,000 mm 0,0 UV-I 72 W/m 11,7 C 17,7 C 4,8 km/h (1 Bft) 98,00 %
13.09.2017 16:34 17,7 C 17,2 C 67 % 1010,9 hPa 0,0 l/m 1,9 km/h (1 Bft) O-SO 102 0 min 0,000 mm 0,0 UV-I 68 W/m 11,5 C 17,7 C 4,8 km/h (1 Bft) 97,56 %
13.09.2017 16:36 17,7 C 17,2 C 68 % 1010,9 hPa 0,0 l/m 2,3 km/h (1 Bft) O-SO 102 0 min 0,000 mm 0,0 UV-I 65 W/m 11,7 C 17,7 C 4,8 km/h (1 Bft) 98,00 %
13.09.2017 16:38 17,6 C 17,2 C 71 % 1010,9 hPa 0,0 l/m 4,3 km/h (1 Bft) O-SO 102 0 min 0,000 mm 0,0 UV-I 65 W/m 12,3 C 17,6 C 6,4 km/h (2 Bft) 96,23 %
13.09.2017 16:40 17,6 C 17,2 C 74 % 1010,9 hPa 0,0 l/m 4,4 km/h (1 Bft) O-SO 102 0 min 0,000 mm 0,0 UV-I 68 W/m 12,9 C 17,6 C 4,8 km/h (1 Bft) 100,00 %
13.09.2017 16:42 17,4 C 17,2 C 74 % 1010,9 hPa 0,0 l/m 1,9 km/h (1 Bft) O-SO 102 0 min 0,000 mm 0,0 UV-I 64 W/m 12,7 C 17,4 C 4,8 km/h (1 Bft) 96,00 %
13.09.2017 16:44 17,3 C 17,2 C 71 % 1010,8 hPa 0,0 l/m 1,8 km/h (1 Bft) O-SO 102 0 min 0,000 mm 0,0 UV-I 58 W/m 12,0 C 17,3 C 3,2 km/h (1 Bft) 98,00 %
13.09.2017 16:46 17,3 C 17,2 C 71 % 1010,7 hPa 0,0 l/m 2,2 km/h (1 Bft) O-SO 102 0 min 0,000 mm 0,0 UV-I 54 W/m 12,0 C 17,3 C 3,2 km/h (1 Bft) 97,87 %
13.09.2017 16:48 17,3 C 17,2 C 73 % 1010,8 hPa 0,0 l/m 2,6 km/h (1 Bft) O-SO 102 0 min 0,000 mm 0,0 UV-I 60 W/m 12,4 C 17,3 C 4,8 km/h (1 Bft) 97,73 %
13.09.2017 16:50 17,3 C 17,2 C 73 % 1010,7 hPa 0,0 l/m 2,8 km/h (1 Bft) O-SO 102 0 min 0,000 mm 0,0 UV-I 66 W/m 12,4 C 17,3 C 4,8 km/h (1 Bft) 98,21 %
13.09.2017 16:52 17,2 C 17,2 C 74 % 1010,7 hPa 0,0 l/m 3,6 km/h (1 Bft) O-SO 102 0 min 0,000 mm 0,0 UV-I 62 W/m 12,5 C 17,2 C 6,4 km/h (2 Bft) 97,37 %
13.09.2017 16:54 17,2 C 17,2 C 73 % 1010,7 hPa 0,0 l/m 5,5 km/h (1 Bft) O-SO 102 0 min 0,000 mm 0,0 UV-I 57 W/m 12,3 C 17,2 C 9,7 km/h (2 Bft) 98,00 %
13.09.2017 16:56 17,2 C 17,2 C 73 % 1010,7 hPa 0,0 l/m 6,6 km/h (2 Bft) SO 129 0 min 0,000 mm 0,0 UV-I 56 W/m 12,3 C 17,1 C 9,7 km/h (2 Bft) 97,14 %
13.09.2017 16:58 17,2 C 17,2 C 74 % 1010,8 hPa 0,0 l/m 3,6 km/h (1 Bft) SO 129 0 min 0,000 mm 0,0 UV-I 56 W/m 12,5 C 17,2 C 8,0 km/h (2 Bft) 96,61 %
13.09.2017 17:00 17,2 C 17,2 C 76 % 1010,8 hPa 0,0 l/m 5,2 km/h (1 Bft) O-SO 118 0 min 0,000 mm 0,0 UV-I 63 W/m 12,9 C 17,2 C 9,7 km/h (2 Bft) 91,49 %
13.09.2017 17:02 17,1 C 17,2 C 76 % 1010,8 hPa 0,0 l/m 3,9 km/h (1 Bft) O-SO 118 0 min 0,076 mm 0,0 UV-I 67 W/m 12,8 C 17,1 C 6,4 km/h (2 Bft) 95,45 %
13.09.2017 17:04 16,9 C 17,2 C 79 % 1010,7 hPa 0,0 l/m 3,3 km/h (1 Bft) O-SO 118 0 min 0,000 mm 0,0 UV-I 76 W/m 13,2 C 16,9 C 4,8 km/h (1 Bft) 94,34 %
13.09.2017 17:06 16,8 C 17,2 C 76 % 1010,7 hPa 0,0 l/m 2,6 km/h (1 Bft) O-SO 118 0 min 0,000 mm 0,0 UV-I 65 W/m 12,5 C 16,8 C 4,8 km/h (1 Bft) 94,74 %
13.09.2017 17:08 16,8 C 17,2 C 77 % 1010,8 hPa 0,0 l/m 3,2 km/h (1 Bft) SO 139 0 min 0,000 mm 0,0 UV-I 54 W/m 12,7 C 16,8 C 4,8 km/h (1 Bft) 93,62 %
13.09.2017 17:10 16,9 C 17,2 C 77 % 1010,8 hPa 0,0 l/m 2,6 km/h (1 Bft) SW 231 0 min 0,000 mm 0,0 UV-I 52 W/m 12,8 C 16,9 C 4,8 km/h (1 Bft) 98,00 %
13.09.2017 17:12 16,9 C 17,2 C 76 % 1010,8 hPa 0,0 l/m 0,2 km/h (0 Bft) SW 231 0 min 0,000 mm 0,0 UV-I 65 W/m 12,6 C 16,9 C 1,6 km/h (1 Bft) 96,23 %
13.09.2017 17:14 16,9 C 17,2 C 77 % 1010,8 hPa 0,0 l/m 2,7 km/h (1 Bft) SW 231 0 min 0,000 mm 0,0 UV-I 86 W/m 12,8 C 16,9 C 4,8 km/h (1 Bft) 95,12 %
13.09.2017 17:16 16,9 C 17,2 C 77 % 1010,8 hPa 0,0 l/m 0,7 km/h (0 Bft) SW 231 0 min 0,000 mm 0,0 UV-I 102 W/m 12,8 C 16,9 C 3,2 km/h (1 Bft) 96,23 %
13.09.2017 17:18 16,9 C 17,2 C 77 % 1010,8 hPa 0,0 l/m 2,2 km/h (1 Bft) SW 231 0 min 0,000 mm 0,0 UV-I 101 W/m 12,8 C 16,9 C 3,2 km/h (1 Bft) 93,18 %
13.09.2017 17:20 16,8 C 17,2 C 78 % 1010,8 hPa 0,0 l/m 1,2 km/h (1 Bft) SW 231 0 min 0,000 mm 0,0 UV-I 90 W/m 12,9 C 16,8 C 4,8 km/h (1 Bft) 92,86 %
13.09.2017 17:22 16,9 C 17,2 C 78 % 1010,8 hPa 0,0 l/m 2,7 km/h (1 Bft) SW 231 0 min 0,000 mm 0,0 UV-I 91 W/m 13,0 C 16,9 C 6,4 km/h (2 Bft) 92,00 %
13.09.2017 17:24 16,9 C 17,2 C 78 % 1010,8 hPa 0,0 l/m 2,0 km/h (1 Bft) SW 231 0 min 0,000 mm 0,0 UV-I 99 W/m 13,0 C 16,9 C 3,2 km/h (1 Bft) 95,74 %
13.09.2017 17:26 16,9 C 17,2 C 79 % 1010,8 hPa 0,0 l/m 2,3 km/h (1 Bft) SW 231 0 min 0,000 mm 0,0 UV-I 92 W/m 13,2 C 16,9 C 3,2 km/h (1 Bft) 97,56 %
13.09.2017 17:28 16,9 C 17,2 C 82 % 1010,8 hPa 0,0 l/m 0,5 km/h (0 Bft) SW 231 0 min 0,000 mm 0,0 UV-I 84 W/m 13,8 C 16,9 C 3,2 km/h (1 Bft) 97,87 %
13.09.2017 17:30 16,8 C 17,2 C 80 % 1010,9 hPa 0,0 l/m 1,8 km/h (1 Bft) SW 231 0 min 0,000 mm 0,0 UV-I 74 W/m 13,3 C 16,8 C 4,8 km/h (1 Bft) 98,11 %
13.09.2017 17:32 16,8 C 17,2 C 80 % 1010,9 hPa 0,0 l/m 2,4 km/h (1 Bft) SW 231 0 min 0,000 mm 0,0 UV-I 63 W/m 13,3 C 16,8 C 4,8 km/h (1 Bft) 100,00 %
13.09.2017 17:34 16,8 C 17,2 C 79 % 1010,9 hPa 0,0 l/m 2,5 km/h (1 Bft) SW 231 0 min 0,000 mm 0,0 UV-I 53 W/m 13,1 C 16,8 C 3,2 km/h (1 Bft) 96,23 %
13.09.2017 17:36 16,9 C 17,2 C 79 % 1010,9 hPa 0,0 l/m 3,2 km/h (1 Bft) SW 232 0 min 0,000 mm 0,0 UV-I 49 W/m 13,2 C 16,9 C 6,4 km/h (2 Bft) 97,56 %
13.09.2017 17:38 16,8 C 17,2 C 79 % 1010,9 hPa 0,0 l/m 3,7 km/h (1 Bft) SW 232 0 min 0,000 mm 0,0 UV-I 47 W/m 13,1 C 16,8 C 6,4 km/h (2 Bft) 100,00 %
13.09.2017 17:40 16,9 C 17,2 C 78 % 1010,9 hPa 0,0 l/m 5,3 km/h (1 Bft) S 175 0 min 0,000 mm 0,0 UV-I 46 W/m 13,0 C 16,9 C 11,3 km/h (2 Bft) 100,00 %
13.09.2017 17:42 16,9 C 17,2 C 79 % 1010,7 hPa 0,0 l/m 3,5 km/h (1 Bft) S 170 0 min 0,000 mm 0,0 UV-I 46 W/m 13,2 C 16,9 C 8,0 km/h (2 Bft) 96,00 %
13.09.2017 17:44 16,9 C 17,2 C 80 % 1010,8 hPa 0,0 l/m 3,3 km/h (1 Bft) S 175 0 min 0,000 mm 0,0 UV-I 41 W/m 13,4 C 16,9 C 8,0 km/h (2 Bft) 100,00 %
13.09.2017 17:46 16,8 C 17,2 C 79 % 1010,5 hPa 0,0 l/m 3,2 km/h (1 Bft) S-SO 149 0 min 0,000 mm 0,0 UV-I 44 W/m 13,1 C 16,8 C 8,0 km/h (2 Bft) 100,00 %
13.09.2017 17:48 16,8 C 17,2 C 79 % 1010,5 hPa 0,0 l/m 2,9 km/h (1 Bft) S-SO 157 0 min 0,000 mm 0,0 UV-I 40 W/m 13,1 C 16,8 C 6,4 km/h (2 Bft) 100,00 %
13.09.2017 17:50 16,8 C 17,2 C 78 % 1010,8 hPa 0,0 l/m 0,3 km/h (0 Bft) S-SO 157 0 min 0,000 mm 0,0 UV-I 36 W/m 12,9 C 16,8 C 1,6 km/h (1 Bft) 100,00 %
13.09.2017 17:52 16,8 C 17,2 C 79 % 1010,8 hPa 0,0 l/m 3,1 km/h (1 Bft) S-SO 161 0 min 0,000 mm 0,0 UV-I 31 W/m 13,1 C 16,8 C 6,4 km/h (2 Bft) 97,87 %
13.09.2017 17:54 16,8 C 17,2 C 78 % 1010,8 hPa 0,0 l/m 1,8 km/h (1 Bft) S-SO 161 0 min 0,000 mm 0,0 UV-I 32 W/m 12,9 C 16,8 C 6,4 km/h (2 Bft) 100,00 %
13.09.2017 17:56 16,8 C 17,2 C 79 % 1010,8 hPa 0,0 l/m 0,5 km/h (0 Bft) S-SO 161 0 min 0,000 mm 0,0 UV-I 39 W/m 13,1 C 16,8 C 3,2 km/h (1 Bft) 100,00 %
13.09.2017 17:58 16,8 C 17,2 C 79 % 1010,7 hPa 0,0 l/m 0,0 km/h (0 Bft) S-SO 161 0 min 0,000 mm 0,0 UV-I 37 W/m 13,1 C 16,8 C 0,0 km/h (0 Bft) 100,00 %
13.09.2017 18:00 16,8 C 17,2 C 80 % 1010,7 hPa 0,0 l/m 0,0 km/h (0 Bft) S-SO 161 0 min 0,051 mm 0,0 UV-I 38 W/m 13,3 C 16,8 C 0,0 km/h (0 Bft) 97,87 %
13.09.2017 18:02 16,7 C 17,2 C 79 % 1010,8 hPa 0,0 l/m 0,0 km/h (0 Bft) S-SO 161 0 min 0,000 mm 0,0 UV-I 45 W/m 13,0 C 16,7 C 0,0 km/h (0 Bft) 100,00 %
13.09.2017 18:04 16,7 C 17,2 C 79 % 1010,8 hPa 0,0 l/m 0,4 km/h (0 Bft) S-SO 161 0 min 0,000 mm 0,0 UV-I 49 W/m 13,0 C 16,7 C 1,6 km/h (1 Bft) 100,00 %
13.09.2017 18:06 16,8 C 17,2 C 80 % 1010,7 hPa 0,0 l/m 2,8 km/h (1 Bft) S-SO 161 0 min 0,000 mm 0,0 UV-I 47 W/m 13,3 C 16,8 C 6,4 km/h (2 Bft) 100,00 %
13.09.2017 18:08 16,7 C 17,2 C 80 % 1010,7 hPa 0,0 l/m 1,3 km/h (1 Bft) S-SO 161 0 min 0,000 mm 0,0 UV-I 38 W/m 13,2 C 16,7 C 6,4 km/h (2 Bft) 100,00 %
13.09.2017 18:10 16,7 C 17,2 C 81 % 1010,7 hPa 0,0 l/m 0,5 km/h (0 Bft) S-SO 161 0 min 0,000 mm 0,0 UV-I 38 W/m 13,4 C 16,7 C 1,6 km/h (1 Bft) 100,00 %
13.09.2017 18:12 16,7 C 17,2 C 81 % 1010,7 hPa 0,0 l/m 0,6 km/h (0 Bft) S-SO 161 0 min 0,000 mm 0,0 UV-I 46 W/m 13,4 C 16,7 C 3,2 km/h (1 Bft) 100,00 %
13.09.2017 18:14 16,7 C 17,2 C 82 % 1010,6 hPa 0,0 l/m 0,9 km/h (0 Bft) S-SO 161 0 min 0,000 mm 0,0 UV-I 59 W/m 13,6 C 16,7 C 3,2 km/h (1 Bft) 100,00 %
13.09.2017 18:16 16,6 C 17,2 C 83 % 1010,7 hPa 0,0 l/m 0,0 km/h (0 Bft) S-SO 161 0 min 0,000 mm 0,0 UV-I 53 W/m 13,7 C 16,6 C 0,0 km/h (0 Bft) 100,00 %
13.09.2017 18:18 16,4 C 17,2 C 83 % 1010,7 hPa 0,0 l/m 0,0 km/h (0 Bft) S-SO 161 0 min 0,000 mm 0,0 UV-I 40 W/m 13,5 C 16,4 C 0,0 km/h (0 Bft) 96,61 %
13.09.2017 18:20 16,4 C 17,2 C 84 % 1010,7 hPa 0,0 l/m 0,0 km/h (0 Bft) S-SO 161 0 min 0,000 mm 0,0 UV-I 35 W/m 13,7 C 16,4 C 0,0 km/h (0 Bft) 97,37 %
13.09.2017 18:22 16,3 C 17,2 C 85 % 1010,7 hPa 0,0 l/m 0,0 km/h (0 Bft) S-SO 161 0 min 0,000 mm 0,0 UV-I 38 W/m 13,8 C 16,3 C 0,0 km/h (0 Bft) 100,00 %
13.09.2017 18:24 16,3 C 17,2 C 85 % 1010,7 hPa 0,0 l/m 0,0 km/h (0 Bft) S-SO 161 0 min 0,000 mm 0,0 UV-I 46 W/m 13,8 C 16,3 C 0,0 km/h (0 Bft) 100,00 %
13.09.2017 18:26 16,2 C 17,2 C 85 % 1010,7 hPa 0,0 l/m 0,0 km/h (0 Bft) S-SO 161 0 min 0,000 mm 0,0 UV-I 47 W/m 13,7 C 16,2 C 0,0 km/h (0 Bft) 100,00 %
13.09.2017 18:28 16,2 C 17,2 C 85 % 1010,6 hPa 0,0 l/m 0,0 km/h (0 Bft) S-SO 161 0 min 0,000 mm 0,0 UV-I 45 W/m 13,7 C 16,2 C 0,0 km/h (0 Bft) 95,74 %
13.09.2017 18:30 16,2 C 17,2 C 85 % 1010,6 hPa 0,0 l/m 0,0 km/h (0 Bft) S-SO 161 0 min 0,000 mm 0,0 UV-I 42 W/m 13,7 C 16,2 C 0,0 km/h (0 Bft) 98,00 %
13.09.2017 18:32 16,1 C 17,2 C 85 % 1010,6 hPa 0,0 l/m 0,0 km/h (0 Bft) S-SO 161 0 min 0,000 mm 0,0 UV-I 40 W/m 13,6 C 16,1 C 0,0 km/h (0 Bft) 100,00 %
13.09.2017 18:34 16,1 C 17,2 C 85 % 1010,7 hPa 0,0 l/m 0,0 km/h (0 Bft) S-SO 161 0 min 0,000 mm 0,0 UV-I 39 W/m 13,6 C 16,1 C 0,0 km/h (0 Bft) 97,87 %
13.09.2017 18:36 16,1 C 17,2 C 86 % 1010,6 hPa 0,0 l/m 0,0 km/h (0 Bft) S-SO 161 0 min 0,000 mm 0,0 UV-I 41 W/m 13,8 C 16,1 C 0,0 km/h (0 Bft) 100,00 %
13.09.2017 18:38 16,1 C 17,2 C 86 % 1010,6 hPa 0,0 l/m 0,0 km/h (0 Bft) S-SO 161 0 min 0,000 mm 0,0 UV-I 43 W/m 13,8 C 16,1 C 0,0 km/h (0 Bft) 100,00 %
13.09.2017 18:40 16,1 C 17,2 C 86 % 1010,6 hPa 0,0 l/m 0,0 km/h (0 Bft) S-SO 161 0 min 0,000 mm 0,0 UV-I 42 W/m 13,8 C 16,1 C 0,0 km/h (0 Bft) 100,00 %
13.09.2017 18:42 16,1 C 17,2 C 87 % 1010,6 hPa 0,0 l/m 0,0 km/h (0 Bft) S-SO 161 0 min 0,000 mm 0,0 UV-I 42 W/m 13,9 C 16,1 C 0,0 km/h (0 Bft) 100,00 %
13.09.2017 18:44 16,2 C 17,2 C 88 % 1010,5 hPa 0,0 l/m 0,0 km/h (0 Bft) S-SO 161 0 min 0,000 mm 0,0 UV-I 37 W/m 14,2 C 16,2 C 0,0 km/h (0 Bft) 100,00 %
13.09.2017 18:46 16,1 C 17,2 C 88 % 1010,5 hPa 0,0 l/m 0,0 km/h (0 Bft) S-SO 161 0 min 0,000 mm 0,0 UV-I 32 W/m 14,1 C 16,1 C 0,0 km/h (0 Bft) 100,00 %
13.09.2017 18:48 15,9 C 17,2 C 88 % 1010,4 hPa 0,0 l/m 0,2 km/h (0 Bft) S-SO 161 0 min 0,000 mm 0,0 UV-I 30 W/m 13,9 C 15,9 C 1,6 km/h (1 Bft) 94,29 %
13.09.2017 18:50 15,8 C 17,2 C 88 % 1010,4 hPa 0,0 l/m 0,0 km/h (0 Bft) S-SO 161 0 min 0,000 mm 0,0 UV-I 28 W/m 13,8 C 15,8 C 0,0 km/h (0 Bft) 100,00 %
13.09.2017 18:52 15,7 C 17,2 C 88 % 1010,3 hPa 0,0 l/m 0,1 km/h (0 Bft) S-SO 161 0 min 0,000 mm 0,0 UV-I 28 W/m 13,7 C 15,7 C 1,6 km/h (1 Bft) 100,00 %
13.09.2017 18:54 15,6 C 17,2 C 88 % 1010,2 hPa 0,0 l/m 1,4 km/h (1 Bft) S-SO 161 0 min 0,000 mm 0,0 UV-I 27 W/m 13,6 C 15,6 C 3,2 km/h (1 Bft) 97,87 %
13.09.2017 18:56 15,4 C 17,2 C 88 % 1010,2 hPa 0,0 l/m 0,9 km/h (0 Bft) S-SO 161 0 min 0,000 mm 0,0 UV-I 23 W/m 13,4 C 15,4 C 3,2 km/h (1 Bft) 100,00 %
13.09.2017 18:58 15,3 C 17,2 C 88 % 1010,2 hPa 0,0 l/m 0,4 km/h (0 Bft) S-SO 161 0 min 0,000 mm 0,0 UV-I 18 W/m 13,3 C 15,3 C 1,6 km/h (1 Bft) 100,00 %
13.09.2017 19:00 15,2 C 17,2 C 88 % 1010,3 hPa 0,0 l/m 0,0 km/h (0 Bft) S-SO 161 0 min 0,026 mm 0,0 UV-I 16 W/m 13,2 C 15,2 C 0,0 km/h (0 Bft) 100,00 %
13.09.2017 19:03 15,1 C 17,2 C 87 % 1010,3 hPa 0,0 l/m 1,3 km/h (1 Bft) S-SO 161 0 min 0,000 mm 0,0 UV-I 14 W/m 13,0 C 15,1 C 3,2 km/h (1 Bft) 97,06 %
13.09.2017 19:04 15,1 C 17,2 C 87 % 1010,3 hPa 0,0 l/m 2,8 km/h (1 Bft) S-SO 161 0 min 0,000 mm 0,0 UV-I 14 W/m 13,0 C 15,1 C 3,2 km/h (1 Bft) 96,15 %
13.09.2017 19:06 15,1 C 17,2 C 88 % 1010,2 hPa 0,0 l/m 1,1 km/h (1 Bft) S-SO 161 0 min 0,000 mm 0,0 UV-I 14 W/m 13,1 C 15,1 C 3,2 km/h (1 Bft) 97,37 %
13.09.2017 19:08 15,1 C 17,2 C 87 % 1010,2 hPa 0,0 l/m 0,0 km/h (0 Bft) S-SO 161 2 min 0,000 mm 0,0 UV-I 13 W/m 13,0 C 15,1 C 1,6 km/h (1 Bft) 98,00 %
13.09.2017 19:10 15,1 C 17,2 C 86 % 1010,2 hPa 0,0 l/m 0,2 km/h (0 Bft) S-SO 161 2 min 0,000 mm 0,0 UV-I 12 W/m 12,8 C 15,1 C 1,6 km/h (1 Bft) 97,87 %
13.09.2017 19:12 15,2 C 17,2 C 85 % 1010,1 hPa 0,0 l/m 1,1 km/h (1 Bft) S-SO 161 0 min 0,000 mm 0,0 UV-I 12 W/m 12,7 C 15,2 C 3,2 km/h (1 Bft) 98,00 %
13.09.2017 19:14 15,3 C 17,2 C 84 % 1010,1 hPa 0,0 l/m 1,5 km/h (1 Bft) S-SO 161 0 min 0,000 mm 0,0 UV-I 11 W/m 12,6 C 15,3 C 3,2 km/h (1 Bft) 97,87 %
13.09.2017 19:16 15,4 C 17,2 C 84 % 1010,1 hPa 0,0 l/m 0,9 km/h (0 Bft) S-SO 161 0 min 0,000 mm 0,0 UV-I 10 W/m 12,7 C 15,4 C 3,2 km/h (1 Bft) 97,62 %
13.09.2017 19:18 15,5 C 17,2 C 84 % 1010,0 hPa 0,0 l/m 0,9 km/h (0 Bft) S-SO 161 0 min 0,000 mm 0,0 UV-I 9 W/m 12,8 C 15,5 C 6,4 km/h (2 Bft) 98,08 %
13.09.2017 19:20 15,6 C 17,2 C 83 % 1010,0 hPa 0,0 l/m 3,8 km/h (1 Bft) S 187 0 min 0,000 mm 0,0 UV-I 8 W/m 12,7 C 15,6 C 8,0 km/h (2 Bft) 95,74 %
13.09.2017 19:22 15,7 C 17,2 C 83 % 1010,0 hPa 0,0 l/m 2,9 km/h (1 Bft) S 188 0 min 0,000 mm 0,0 UV-I 7 W/m 12,8 C 15,7 C 8,0 km/h (2 Bft) 97,62 %
13.09.2017 19:24 15,7 C 17,2 C 83 % 1009,9 hPa 0,0 l/m 2,7 km/h (1 Bft) S 187 0 min 0,000 mm 0,0 UV-I 7 W/m 12,8 C 15,7 C 4,8 km/h (1 Bft) 97,73 %
13.09.2017 19:26 15,7 C 17,2 C 83 % 1010,0 hPa 0,0 l/m 3,9 km/h (1 Bft) S 186 0 min 0,000 mm 0,0 UV-I 5 W/m 12,8 C 15,7 C 6,4 km/h (2 Bft) 98,11 %
13.09.2017 19:28 15,8 C 17,2 C 83 % 1009,9 hPa 0,0 l/m 3,6 km/h (1 Bft) S 182 0 min 0,000 mm 0,0 UV-I 5 W/m 12,9 C 15,8 C 6,4 km/h (2 Bft) 97,73 %
13.09.2017 19:30 15,8 C 17,2 C 82 % 1009,9 hPa 0,0 l/m 3,8 km/h (1 Bft) S 182 0 min 0,000 mm 0,0 UV-I 5 W/m 12,7 C 15,8 C 6,4 km/h (2 Bft) 98,11 %
13.09.2017 19:32 15,9 C 17,2 C 82 % 1009,8 hPa 0,0 l/m 3,2 km/h (1 Bft) S 191 0 min 0,000 mm 0,0 UV-I 1 W/m 12,8 C 15,9 C 8,0 km/h (2 Bft) 97,56 %
13.09.2017 19:34 16,0 C 17,2 C 82 % 1009,8 hPa 0,0 l/m 3,7 km/h (1 Bft) S 175 0 min 0,000 mm 0,0 UV-I 0 W/m 12,9 C 16,0 C 6,4 km/h (2 Bft) 97,37 %
13.09.2017 19:36 16,1 C 17,2 C 81 % 1009,9 hPa 0,0 l/m 4,5 km/h (1 Bft) S-SW 209 0 min 0,000 mm 0,0 UV-I 0 W/m 12,8 C 16,1 C 8,0 km/h (2 Bft) 98,11 %
13.09.2017 19:38 16,2 C 17,2 C 81 % 1009,9 hPa 0,0 l/m 5,1 km/h (1 Bft) S-SW 200 0 min 0,000 mm 0,0 UV-I 0 W/m 12,9 C 16,2 C 9,7 km/h (2 Bft) 100,00 %
13.09.2017 19:40 16,2 C 17,2 C 81 % 1009,9 hPa 0,0 l/m 4,9 km/h (1 Bft) S-SW 192 0 min 0,000 mm 0,0 UV-I 0 W/m 12,9 C 16,2 C 9,7 km/h (2 Bft) 98,11 %
13.09.2017 19:42 16,3 C 17,2 C 81 % 1009,8 hPa 0,0 l/m 4,7 km/h (1 Bft) S-SW 200 0 min 0,000 mm 0,0 UV-I 0 W/m 13,0 C 16,3 C 8,0 km/h (2 Bft) 100,00 %
13.09.2017 19:44 16,3 C 17,2 C 80 % 1009,8 hPa 0,0 l/m 5,9 km/h (2 Bft) S-SW 196 0 min 0,000 mm 0,0 UV-I 0 W/m 12,8 C 16,3 C 11,3 km/h (2 Bft) 100,00 %
13.09.2017 19:46 16,4 C 17,2 C 80 % 1009,7 hPa 0,0 l/m 6,7 km/h (2 Bft) S 187 0 min 0,000 mm 0,0 UV-I 0 W/m 12,9 C 16,3 C 11,3 km/h (2 Bft) 100,00 %
13.09.2017 19:48 16,5 C 17,2 C 80 % 1009,7 hPa 0,0 l/m 5,9 km/h (2 Bft) S-SW 199 0 min 0,000 mm 0,0 UV-I 0 W/m 13,0 C 16,5 C 12,9 km/h (3 Bft) 100,00 %
13.09.2017 19:50 16,6 C 17,2 C 79 % 1009,7 hPa 0,0 l/m 7,0 km/h (2 Bft) S-SW 199 0 min 0,000 mm 0,0 UV-I 0 W/m 12,9 C 16,3 C 11,3 km/h (2 Bft) 97,87 %
13.09.2017 19:52 16,7 C 17,2 C 79 % 1009,7 hPa 0,0 l/m 6,8 km/h (2 Bft) S-SW 211 0 min 0,000 mm 0,0 UV-I 0 W/m 13,0 C 16,5 C 11,3 km/h (2 Bft) 95,74 %
13.09.2017 19:54 16,7 C 17,2 C 79 % 1009,7 hPa 0,0 l/m 7,7 km/h (2 Bft) S-SW 212 0 min 0,000 mm 0,0 UV-I 0 W/m 13,0 C 16,0 C 11,3 km/h (2 Bft) 97,92 %
13.09.2017 19:56 16,8 C 17,2 C 78 % 1009,7 hPa 0,0 l/m 9,4 km/h (2 Bft) SW 217 0 min 0,000 mm 0,0 UV-I 0 W/m 12,9 C 15,4 C 12,9 km/h (3 Bft) 100,00 %
13.09.2017 19:58 16,9 C 17,2 C 78 % 1009,8 hPa 0,0 l/m 6,6 km/h (2 Bft) SW 223 0 min 0,000 mm 0,0 UV-I 0 W/m 13,0 C 16,8 C 9,7 km/h (2 Bft) 100,00 %
13.09.2017 20:00 17,1 C 17,2 C 78 % 1009,7 hPa 0,0 l/m 8,3 km/h (2 Bft) S-SW 193 0 min 0,000 mm 0,0 UV-I 0 W/m 13,2 C 16,2 C 12,9 km/h (3 Bft) 98,21 %
13.09.2017 20:02 17,1 C 17,2 C 77 % 1009,6 hPa 0,0 l/m 4,8 km/h (1 Bft) SW 219 0 min 0,025 mm 0,0 UV-I 0 W/m 13,0 C 17,1 C 12,9 km/h (3 Bft) 100,00 %
13.09.2017 20:04 17,2 C 17,2 C 77 % 1009,7 hPa 0,0 l/m 3,5 km/h (1 Bft) S 190 0 min 0,000 mm 0,0 UV-I 0 W/m 13,1 C 17,2 C 4,8 km/h (1 Bft) 100,00 %
13.09.2017 20:06 17,2 C 17,2 C 77 % 1009,6 hPa 0,0 l/m 2,2 km/h (1 Bft) S 191 0 min 0,000 mm 0,0 UV-I 0 W/m 13,1 C 17,2 C 4,8 km/h (1 Bft) 100,00 %
13.09.2017 20:08 17,2 C 17,2 C 77 % 1009,5 hPa 0,0 l/m 3,8 km/h (1 Bft) S 190 0 min 0,000 mm 0,0 UV-I 0 W/m 13,1 C 17,2 C 6,4 km/h (2 Bft) 97,87 %
13.09.2017 20:10 17,2 C 17,2 C 77 % 1009,6 hPa 0,0 l/m 2,6 km/h (1 Bft) S 189 0 min 0,000 mm 0,0 UV-I 0 W/m 13,1 C 17,2 C 4,8 km/h (1 Bft) 100,00 %
13.09.2017 20:12 17,2 C 17,2 C 78 % 1009,7 hPa 0,0 l/m 3,7 km/h (1 Bft) S-SW 205 0 min 0,000 mm 0,0 UV-I 0 W/m 13,3 C 17,2 C 6,4 km/h (2 Bft) 100,00 %
13.09.2017 20:14 17,2 C 17,2 C 78 % 1009,6 hPa 0,0 l/m 2,8 km/h (1 Bft) S-SW 202 0 min 0,000 mm 0,0 UV-I 0 W/m 13,3 C 17,2 C 4,8 km/h (1 Bft) 100,00 %
13.09.2017 20:16 17,1 C 17,2 C 79 % 1009,6 hPa 0,0 l/m 3,3 km/h (1 Bft) S 180 0 min 0,000 mm 0,0 UV-I 0 W/m 13,4 C 17,1 C 4,8 km/h (1 Bft) 100,00 %
13.09.2017 20:18 17,1 C 17,2 C 79 % 1009,6 hPa 0,0 l/m 2,3 km/h (1 Bft) S 181 0 min 0,000 mm 0,0 UV-I 0 W/m 13,4 C 17,1 C 6,4 km/h (2 Bft) 100,00 %
13.09.2017 20:20 17,1 C 17,2 C 79 % 1009,8 hPa 0,0 l/m 2,8 km/h (1 Bft) S-SW 196 0 min 0,000 mm 0,0 UV-I 0 W/m 13,4 C 17,1 C 4,8 km/h (1 Bft) 100,00 %
13.09.2017 20:22 17,1 C 17,2 C 78 % 1009,7 hPa 0,0 l/m 1,3 km/h (1 Bft) S-SW 195 0 min 0,000 mm 0,0 UV-I 0 W/m 13,2 C 17,1 C 4,8 km/h (1 Bft) 97,87 %
13.09.2017 20:24 17,1 C 17,2 C 79 % 1009,7 hPa 0,0 l/m 0,9 km/h (0 Bft) S-SW 196 0 min 0,000 mm 0,0 UV-I 0 W/m 13,4 C 17,1 C 1,6 km/h (1 Bft) 100,00 %
13.09.2017 20:26 17,0 C 17,2 C 79 % 1009,5 hPa 0,0 l/m 3,3 km/h (1 Bft) S 171 0 min 0,000 mm 0,0 UV-I 0 W/m 13,3 C 17,0 C 6,4 km/h (2 Bft) 98,00 %
13.09.2017 20:28 17,0 C 17,2 C 79 % 1009,4 hPa 0,0 l/m 3,0 km/h (1 Bft) S 175 0 min 0,000 mm 0,0 UV-I 0 W/m 13,3 C 17,0 C 8,0 km/h (2 Bft) 100,00 %
13.09.2017 20:30 17,1 C 17,2 C 78 % 1009,3 hPa 0,0 l/m 3,1 km/h (1 Bft) S 175 0 min 0,000 mm 0,0 UV-I 0 W/m 13,2 C 17,1 C 8,0 km/h (2 Bft) 97,87 %
13.09.2017 20:32 17,1 C 17,2 C 78 % 1009,2 hPa 0,0 l/m 3,7 km/h (1 Bft) S-SO 167 0 min 0,000 mm 0,0 UV-I 0 W/m 13,2 C 17,1 C 6,4 km/h (2 Bft) 97,37 %
13.09.2017 20:34 17,1 C 17,2 C 78 % 1009,2 hPa 0,0 l/m 2,9 km/h (1 Bft) S-SO 157 0 min 0,000 mm 0,0 UV-I 0 W/m 13,2 C 17,1 C 4,8 km/h (1 Bft) 97,92 %
13.09.2017 20:36 17,2 C 17,2 C 78 % 1009,3 hPa 0,0 l/m 3,1 km/h (1 Bft) S-SO 163 0 min 0,000 mm 0,0 UV-I 0 W/m 13,3 C 17,2 C 6,4 km/h (2 Bft) 97,37 %
13.09.2017 20:38 17,2 C 17,2 C 78 % 1009,3 hPa 0,0 l/m 4,1 km/h (1 Bft) S-SO 164 0 min 0,000 mm 0,0 UV-I 0 W/m 13,3 C 17,2 C 9,7 km/h (2 Bft) 96,88 %
13.09.2017 20:40 17,2 C 17,2 C 78 % 1009,4 hPa 0,0 l/m 4,2 km/h (1 Bft) S 176 0 min 0,000 mm 0,0 UV-I 0 W/m 13,3 C 17,2 C 14,5 km/h (3 Bft) 97,62 %
13.09.2017 20:42 17,2 C 17,2 C 78 % 1009,4 hPa 0,0 l/m 6,0 km/h (2 Bft) S 180 0 min 0,000 mm 0,0 UV-I 0 W/m 13,3 C 17,2 C 9,7 km/h (2 Bft) 97,56 %
13.09.2017 20:44 17,2 C 17,2 C 78 % 1009,4 hPa 0,0 l/m 3,4 km/h (1 Bft) S 180 0 min 0,000 mm 0,0 UV-I 0 W/m 13,3 C 17,2 C 4,8 km/h (1 Bft) 96,00 %
13.09.2017 20:46 17,2 C 17,2 C 78 % 1009,4 hPa 0,0 l/m 5,4 km/h (1 Bft) S-SW 201 0 min 0,000 mm 0,0 UV-I 0 W/m 13,3 C 17,2 C 8,0 km/h (2 Bft) 98,08 %
13.09.2017 20:48 17,2 C 17,2 C 79 % 1009,4 hPa 0,0 l/m 4,5 km/h (1 Bft) S 183 0 min 0,000 mm 0,0 UV-I 0 W/m 13,5 C 17,2 C 9,7 km/h (2 Bft) 96,00 %
13.09.2017 20:50 17,2 C 17,2 C 79 % 1009,3 hPa 0,0 l/m 4,4 km/h (1 Bft) S-SW 199 0 min 0,000 mm 0,0 UV-I 0 W/m 13,5 C 17,2 C 9,7 km/h (2 Bft) 97,37 %
13.09.2017 20:52 17,2 C 17,2 C 79 % 1009,3 hPa 0,0 l/m 5,0 km/h (1 Bft) SW 214 0 min 0,000 mm 0,0 UV-I 0 W/m 13,5 C 17,2 C 8,0 km/h (2 Bft) 98,00 %
13.09.2017 20:54 17,3 C 17,2 C 79 % 1009,2 hPa 0,0 l/m 3,7 km/h (1 Bft) S 172 0 min 0,000 mm 0,0 UV-I 0 W/m 13,6 C 17,3 C 6,4 km/h (2 Bft) 97,37 %
13.09.2017 20:56 17,3 C 17,2 C 79 % 1009,2 hPa 0,0 l/m 5,9 km/h (2 Bft) S-SW 205 0 min 0,000 mm 0,0 UV-I 0 W/m 13,6 C 17,3 C 8,0 km/h (2 Bft) 98,08 %
13.09.2017 20:58 17,3 C 17,2 C 79 % 1009,5 hPa 0,0 l/m 6,0 km/h (2 Bft) SW 227 0 min 0,000 mm 0,0 UV-I 0 W/m 13,6 C 17,3 C 9,7 km/h (2 Bft) 96,23 %
13.09.2017 21:00 17,3 C 17,2 C 79 % 1009,5 hPa 0,0 l/m 8,3 km/h (2 Bft) S 171 0 min 0,000 mm 0,0 UV-I 0 W/m 13,6 C 16,4 C 12,9 km/h (3 Bft) 97,37 %
13.09.2017 21:02 17,3 C 17,2 C 79 % 1009,3 hPa 0,0 l/m 4,5 km/h (1 Bft) S-SW 211 0 min 0,025 mm 0,0 UV-I 0 W/m 13,6 C 17,3 C 8,0 km/h (2 Bft) 98,00 %
13.09.2017 21:04 17,3 C 17,2 C 79 % 1009,3 hPa 0,0 l/m 3,6 km/h (1 Bft) S-SW 201 0 min 0,000 mm 0,0 UV-I 0 W/m 13,6 C 17,3 C 8,0 km/h (2 Bft) 98,00 %
13.09.2017 21:06 17,3 C 17,2 C 79 % 1009,3 hPa 0,0 l/m 3,6 km/h (1 Bft) S 188 0 min 0,000 mm 0,0 UV-I 0 W/m 13,6 C 17,3 C 6,4 km/h (2 Bft) 95,74 %
13.09.2017 21:08 17,3 C 17,2 C 79 % 1009,4 hPa 0,0 l/m 2,7 km/h (1 Bft) S-SW 207 0 min 0,000 mm 0,0 UV-I 0 W/m 13,6 C 17,3 C 4,8 km/h (1 Bft) 95,74 %
13.09.2017 21:10 17,3 C 17,2 C 79 % 1009,3 hPa 0,0 l/m 4,6 km/h (1 Bft) S-SO 167 0 min 0,000 mm 0,0 UV-I 0 W/m 13,6 C 17,3 C 6,4 km/h (2 Bft) 95,45 %
13.09.2017 21:12 17,4 C 17,2 C 79 % 1009,2 hPa 0,0 l/m 3,7 km/h (1 Bft) S-SO 165 0 min 0,000 mm 0,0 UV-I 0 W/m 13,7 C 17,4 C 6,4 km/h (2 Bft) 94,34 %
13.09.2017 21:14 17,4 C 17,2 C 79 % 1009,2 hPa 0,0 l/m 4,0 km/h (1 Bft) S 170 0 min 0,000 mm 0,0 UV-I 0 W/m 13,7 C 17,4 C 8,0 km/h (2 Bft) 93,33 %
13.09.2017 21:16 17,4 C 17,2 C 79 % 1009,1 hPa 0,0 l/m 5,0 km/h (1 Bft) S 169 0 min 0,000 mm 0,0 UV-I 0 W/m 13,7 C 17,4 C 8,0 km/h (2 Bft) 94,74 %
13.09.2017 21:18 17,4 C 17,2 C 79 % 1009,1 hPa 0,0 l/m 4,6 km/h (1 Bft) S-SO 167 0 min 0,000 mm 0,0 UV-I 0 W/m 13,7 C 17,4 C 8,0 km/h (2 Bft) 94,00 %
13.09.2017 21:20 17,4 C 17,2 C 79 % 1009,1 hPa 0,0 l/m 3,1 km/h (1 Bft) S 169 0 min 0,000 mm 0,0 UV-I 0 W/m 13,7 C 17,4 C 6,4 km/h (2 Bft) 92,00 %
13.09.2017 21:22 17,4 C 17,2 C 79 % 1009,1 hPa 0,0 l/m 1,2 km/h (1 Bft) S 169 0 min 0,000 mm 0,0 UV-I 0 W/m 13,7 C 17,4 C 3,2 km/h (1 Bft) 93,62 %
13.09.2017 21:24 17,4 C 17,2 C 79 % 1009,1 hPa 0,0 l/m 0,0 km/h (0 Bft) S 169 0 min 0,000 mm 0,0 UV-I 0 W/m 13,7 C 17,4 C 0,0 km/h (0 Bft) 97,56 %
13.09.2017 21:26 17,4 C 17,2 C 79 % 1009,1 hPa 0,0 l/m 0,1 km/h (0 Bft) S 169 0 min 0,000 mm 0,0 UV-I 0 W/m 13,7 C 17,4 C 1,6 km/h (1 Bft) 94,00 %
13.09.2017 21:28 17,3 C 17,2 C 80 % 1009,2 hPa 0,0 l/m 0,1 km/h (0 Bft) S 169 0 min 0,000 mm 0,0 UV-I 0 W/m 13,8 C 17,3 C 1,6 km/h (1 Bft) 94,34 %
13.09.2017 21:30 17,3 C 17,2 C 80 % 1009,1 hPa 0,0 l/m 2,1 km/h (1 Bft) S 169 0 min 0,000 mm 0,0 UV-I 0 W/m 13,8 C 17,3 C 3,2 km/h (1 Bft) 95,12 %
13.09.2017 21:32 17,3 C 17,2 C 80 % 1009,1 hPa 0,0 l/m 0,6 km/h (0 Bft) S 169 0 min 0,000 mm 0,0 UV-I 0 W/m 13,8 C 17,3 C 1,6 km/h (1 Bft) 95,74 %
13.09.2017 21:34 17,2 C 17,2 C 81 % 1009,0 hPa 0,0 l/m 0,1 km/h (0 Bft) S 169 0 min 0,000 mm 0,0 UV-I 0 W/m 13,9 C 17,2 C 1,6 km/h (1 Bft) 95,74 %
13.09.2017 21:36 17,1 C 17,2 C 82 % 1009,0 hPa 0,0 l/m 0,0 km/h (0 Bft) S 169 0 min 0,000 mm 0,0 UV-I 0 W/m 14,0 C 17,1 C 1,6 km/h (1 Bft) 95,74 %
13.09.2017 21:38 16,9 C 17,2 C 82 % 1009,0 hPa 0,0 l/m 0,2 km/h (0 Bft) S 169 0 min 0,000 mm 0,0 UV-I 0 W/m 13,8 C 16,9 C 1,6 km/h (1 Bft) 96,00 %
13.09.2017 21:40 16,8 C 17,2 C 83 % 1009,0 hPa 0,0 l/m 0,4 km/h (0 Bft) S 169 0 min 0,000 mm 0,0 UV-I 0 W/m 13,9 C 16,8 C 1,6 km/h (1 Bft) 98,00 %
13.09.2017 21:42 16,7 C 17,2 C 83 % 1009,0 hPa 0,0 l/m 0,1 km/h (0 Bft) S 169 0 min 0,000 mm 0,0 UV-I 0 W/m 13,8 C 16,7 C 1,6 km/h (1 Bft) 95,12 %
13.09.2017 21:44 16,7 C 17,2 C 83 % 1009,1 hPa 0,0 l/m 0,0 km/h (0 Bft) S 169 0 min 0,000 mm 0,0 UV-I 0 W/m 13,8 C 16,7 C 0,0 km/h (0 Bft) 100,00 %
13.09.2017 21:46 16,6 C 17,2 C 83 % 1009,1 hPa 0,0 l/m 1,4 km/h (1 Bft) S 169 0 min 0,000 mm 0,0 UV-I 0 W/m 13,7 C 16,6 C 3,2 km/h (1 Bft) 95,74 %
13.09.2017 21:48 16,6 C 17,2 C 84 % 1009,1 hPa 0,0 l/m 5,2 km/h (1 Bft) S 169 0 min 0,000 mm 0,0 UV-I 0 W/m 13,9 C 16,6 C 8,0 km/h (2 Bft) 100,00 %
13.09.2017 21:50 16,7 C 17,2 C 84 % 1009,1 hPa 0,0 l/m 3,7 km/h (1 Bft) S 169 0 min 0,000 mm 0,0 UV-I 0 W/m 14,0 C 16,7 C 6,4 km/h (2 Bft) 100,00 %
13.09.2017 21:52 16,6 C 17,2 C 84 % 1009,1 hPa 0,0 l/m 1,9 km/h (1 Bft) S 169 0 min 0,000 mm 0,0 UV-I 0 W/m 13,9 C 16,6 C 6,4 km/h (2 Bft) 97,87 %
13.09.2017 21:54 16,5 C 17,2 C 84 % 1009,1 hPa 0,0 l/m 0,0 km/h (0 Bft) S 169 0 min 0,000 mm 0,0 UV-I 0 W/m 13,8 C 16,5 C 0,0 km/h (0 Bft) 100,00 %
13.09.2017 21:56 16,4 C 17,2 C 85 % 1009,1 hPa 0,0 l/m 0,6 km/h (0 Bft) S 169 0 min 0,000 mm 0,0 UV-I 0 W/m 13,9 C 16,4 C 1,6 km/h (1 Bft) 95,12 %
13.09.2017 21:58 16,3 C 17,2 C 85 % 1009,2 hPa 0,0 l/m 1,6 km/h (1 Bft) S 169 0 min 0,000 mm 0,0 UV-I 0 W/m 13,8 C 16,3 C 3,2 km/h (1 Bft) 100,00 %
13.09.2017 22:00 16,2 C 17,2 C 86 % 1009,1 hPa 0,0 l/m 1,0 km/h (0 Bft) S 169 0 min 0,000 mm 0,0 UV-I 0 W/m 13,9 C 16,2 C 3,2 km/h (1 Bft) 100,00 %
13.09.2017 22:02 16,2 C 17,2 C 86 % 1009,0 hPa 0,0 l/m 0,7 km/h (0 Bft) S 169 0 min 0,000 mm 0,0 UV-I 0 W/m 13,9 C 16,2 C 1,6 km/h (1 Bft) 95,74 %
13.09.2017 22:04 16,1 C 17,2 C 86 % 1008,9 hPa 0,0 l/m 0,0 km/h (0 Bft) S 169 0 min 0,000 mm 0,0 UV-I 0 W/m 13,8 C 16,1 C 0,0 km/h (0 Bft) 100,00 %
13.09.2017 22:06 16,1 C 17,2 C 86 % 1009,0 hPa 0,0 l/m 0,0 km/h (0 Bft) S 169 0 min 0,000 mm 0,0 UV-I 0 W/m 13,8 C 16,1 C 0,0 km/h (0 Bft) 100,00 %
13.09.2017 22:08 16,0 C 17,2 C 86 % 1008,9 hPa 0,0 l/m 1,4 km/h (1 Bft) S 169 0 min 0,000 mm 0,0 UV-I 0 W/m 13,7 C 16,0 C 3,2 km/h (1 Bft) 100,00 %
13.09.2017 22:10 16,0 C 17,2 C 86 % 1008,9 hPa 0,0 l/m 1,9 km/h (1 Bft) S 169 0 min 0,000 mm 0,0 UV-I 0 W/m 13,7 C 16,0 C 3,2 km/h (1 Bft) 100,00 %
13.09.2017 22:12 16,0 C 17,2 C 87 % 1008,9 hPa 0,0 l/m 3,3 km/h (1 Bft) S 169 0 min 0,000 mm 0,0 UV-I 0 W/m 13,8 C 16,0 C 6,4 km/h (2 Bft) 100,00 %
13.09.2017 22:14 15,9 C 17,2 C 87 % 1008,9 hPa 0,0 l/m 2,5 km/h (1 Bft) S 169 0 min 0,000 mm 0,0 UV-I 0 W/m 13,7 C 15,9 C 6,4 km/h (2 Bft) 100,00 %
13.09.2017 22:16 15,9 C 17,2 C 87 % 1008,9 hPa 0,0 l/m 1,0 km/h (0 Bft) S 169 0 min 0,000 mm 0,0 UV-I 0 W/m 13,7 C 15,9 C 3,2 km/h (1 Bft) 100,00 %
13.09.2017 22:18 15,9 C 17,2 C 87 % 1008,8 hPa 0,0 l/m 5,2 km/h (1 Bft) S-SO 150 0 min 0,000 mm 0,0 UV-I 0 W/m 13,7 C 15,9 C 8,0 km/h (2 Bft) 100,00 %
13.09.2017 22:20 15,8 C 17,2 C 87 % 1008,8 hPa 0,0 l/m 4,4 km/h (1 Bft) S-SO 156 0 min 0,000 mm 0,0 UV-I 0 W/m 13,6 C 15,8 C 6,4 km/h (2 Bft) 100,00 %
13.09.2017 22:22 15,7 C 17,2 C 87 % 1008,8 hPa 0,0 l/m 2,2 km/h (1 Bft) S-SO 156 0 min 0,000 mm 0,0 UV-I 0 W/m 13,5 C 15,7 C 3,2 km/h (1 Bft) 100,00 %
13.09.2017 22:24 15,7 C 17,2 C 87 % 1008,7 hPa 0,0 l/m 2,5 km/h (1 Bft) S-SO 157 0 min 0,000 mm 0,0 UV-I 0 W/m 13,5 C 15,7 C 4,8 km/h (1 Bft) 98,00 %
13.09.2017 22:26 15,7 C 17,2 C 86 % 1008,7 hPa 0,0 l/m 2,4 km/h (1 Bft) S-SO 162 0 min 0,000 mm 0,0 UV-I 0 W/m 13,4 C 15,7 C 6,4 km/h (2 Bft) 97,56 %
13.09.2017 22:28 15,7 C 17,2 C 86 % 1008,7 hPa 0,0 l/m 5,9 km/h (2 Bft) S 170 0 min 0,000 mm 0,0 UV-I 0 W/m 13,4 C 15,7 C 11,3 km/h (2 Bft) 100,00 %
13.09.2017 22:30 15,8 C 17,2 C 86 % 1008,8 hPa 0,0 l/m 4,8 km/h (1 Bft) S 171 0 min 0,000 mm 0,0 UV-I 0 W/m 13,5 C 15,8 C 9,7 km/h (2 Bft) 98,08 %
13.09.2017 22:32 15,8 C 17,2 C 84 % 1008,8 hPa 0,0 l/m 5,9 km/h (2 Bft) S-SO 150 0 min 0,000 mm 0,0 UV-I 0 W/m 13,1 C 15,8 C 12,9 km/h (3 Bft) 100,00 %
13.09.2017 22:34 15,9 C 17,2 C 83 % 1008,8 hPa 0,0 l/m 4,1 km/h (1 Bft) S 184 0 min 0,000 mm 0,0 UV-I 0 W/m 13,0 C 15,9 C 9,7 km/h (2 Bft) 100,00 %
13.09.2017 22:36 16,0 C 17,2 C 82 % 1008,9 hPa 0,0 l/m 5,7 km/h (1 Bft) SW 232 0 min 0,000 mm 0,0 UV-I 0 W/m 12,9 C 16,0 C 8,0 km/h (2 Bft) 96,00 %
13.09.2017 22:38 16,1 C 17,2 C 82 % 1009,1 hPa 0,0 l/m 8,2 km/h (2 Bft) S-SW 213 0 min 0,000 mm 0,0 UV-I 0 W/m 13,0 C 15,2 C 11,3 km/h (2 Bft) 100,00 %
13.09.2017 22:40 16,1 C 17,2 C 83 % 1009,0 hPa 0,0 l/m 4,3 km/h (1 Bft) S 182 0 min 0,000 mm 0,0 UV-I 0 W/m 13,2 C 16,1 C 8,0 km/h (2 Bft) 100,00 %
13.09.2017 22:42 16,1 C 17,2 C 82 % 1008,9 hPa 0,0 l/m 6,5 km/h (2 Bft) SO 145 0 min 0,000 mm 0,0 UV-I 0 W/m 13,0 C 16,1 C 12,9 km/h (3 Bft) 100,00 %
13.09.2017 22:44 16,2 C 17,2 C 81 % 1008,9 hPa 0,0 l/m 4,0 km/h (1 Bft) S 179 0 min 0,000 mm 0,0 UV-I 0 W/m 12,9 C 16,2 C 8,0 km/h (2 Bft) 100,00 %
13.09.2017 22:46 16,1 C 17,2 C 81 % 1009,1 hPa 0,0 l/m 5,1 km/h (1 Bft) S-SW 204 0 min 0,000 mm 0,0 UV-I 0 W/m 12,8 C 16,1 C 9,7 km/h (2 Bft) 100,00 %
13.09.2017 22:48 16,2 C 17,2 C 81 % 1009,1 hPa 0,0 l/m 3,5 km/h (1 Bft) S-SO 161 0 min 0,000 mm 0,0 UV-I 0 W/m 12,9 C 16,2 C 6,4 km/h (2 Bft) 100,00 %
13.09.2017 22:50 16,2 C 17,2 C 80 % 1008,9 hPa 0,0 l/m 3,0 km/h (1 Bft) SO 128 0 min 0,000 mm 0,0 UV-I 0 W/m 12,7 C 16,2 C 6,4 km/h (2 Bft) 100,00 %
13.09.2017 22:52 16,2 C 17,2 C 80 % 1009,0 hPa 0,0 l/m 3,4 km/h (1 Bft) SW 216 0 min 0,000 mm 0,0 UV-I 0 W/m 12,7 C 16,2 C 4,8 km/h (1 Bft) 98,00 %
13.09.2017 22:54 16,2 C 17,2 C 80 % 1009,0 hPa 0,0 l/m 2,3 km/h (1 Bft) SW 229 0 min 0,000 mm 0,0 UV-I 0 W/m 12,7 C 16,2 C 4,8 km/h (1 Bft) 98,11 %
13.09.2017 22:56 16,2 C 17,2 C 80 % 1009,1 hPa 0,0 l/m 6,8 km/h (2 Bft) SW 232 0 min 0,000 mm 0,0 UV-I 0 W/m 12,7 C 16,0 C 9,7 km/h (2 Bft) 100,00 %
13.09.2017 22:58 16,2 C 17,2 C 80 % 1009,0 hPa 0,0 l/m 7,2 km/h (2 Bft) S-SW 213 0 min 0,000 mm 0,0 UV-I 0 W/m 12,7 C 15,8 C 11,3 km/h (2 Bft) 98,39 %
13.09.2017 23:00 16,2 C 17,2 C 80 % 1008,9 hPa 0,0 l/m 2,7 km/h (1 Bft) S-SW 201 0 min 0,000 mm 0,0 UV-I 0 W/m 12,7 C 16,2 C 6,4 km/h (2 Bft) 100,00 %
13.09.2017 23:02 16,2 C 17,2 C 81 % 1009,0 hPa 0,0 l/m 4,4 km/h (1 Bft) S-SW 202 0 min 0,000 mm 0,0 UV-I 0 W/m 12,9 C 16,2 C 6,4 km/h (2 Bft) 100,00 %
13.09.2017 23:04 16,2 C 17,2 C 81 % 1009,1 hPa 0,0 l/m 4,4 km/h (1 Bft) S-SW 203 0 min 0,000 mm 0,0 UV-I 0 W/m 12,9 C 16,2 C 6,4 km/h (2 Bft) 100,00 %
13.09.2017 23:06 16,2 C 17,2 C 81 % 1009,1 hPa 0,0 l/m 4,4 km/h (1 Bft) SW 214 0 min 0,000 mm 0,0 UV-I 0 W/m 12,9 C 16,2 C 6,4 km/h (2 Bft) 94,00 %
13.09.2017 23:08 16,2 C 17,2 C 80 % 1009,1 hPa 0,0 l/m 5,3 km/h (1 Bft) S 186 0 min 0,000 mm 0,0 UV-I 0 W/m 12,7 C 16,2 C 6,4 km/h (2 Bft) 97,87 %
13.09.2017 23:10 16,2 C 17,2 C 80 % 1008,9 hPa 0,0 l/m 4,6 km/h (1 Bft) S-SO 150 0 min 0,000 mm 0,0 UV-I 0 W/m 12,7 C 16,2 C 8,0 km/h (2 Bft) 97,62 %
13.09.2017 23:12 16,2 C 17,2 C 80 % 1009,0 hPa 0,0 l/m 3,6 km/h (1 Bft) S-SO 167 0 min 0,000 mm 0,0 UV-I 0 W/m 12,7 C 16,2 C 6,4 km/h (2 Bft) 97,96 %
13.09.2017 23:14 16,1 C 17,2 C 80 % 1008,8 hPa 0,0 l/m 3,4 km/h (1 Bft) SO 139 0 min 0,000 mm 0,0 UV-I 0 W/m 12,6 C 16,1 C 6,4 km/h (2 Bft) 94,34 %
13.09.2017 23:16 16,1 C 17,2 C 80 % 1008,9 hPa 0,0 l/m 4,1 km/h (1 Bft) W 263 0 min 0,000 mm 0,0 UV-I 0 W/m 12,6 C 16,1 C 6,4 km/h (2 Bft) 97,62 %
13.09.2017 23:18 16,1 C 17,2 C 80 % 1008,8 hPa 0,0 l/m 5,4 km/h (1 Bft) W 259 0 min 0,000 mm 0,0 UV-I 0 W/m 12,6 C 16,1 C 11,3 km/h (2 Bft) 96,00 %
13.09.2017 23:20 16,1 C 17,2 C 81 % 1009,1 hPa 0,0 l/m 9,6 km/h (2 Bft) SW 221 0 min 0,000 mm 0,0 UV-I 0 W/m 12,8 C 14,5 C 14,5 km/h (3 Bft) 95,74 %
13.09.2017 23:22 16,0 C 17,2 C 81 % 1008,8 hPa 0,0 l/m 3,8 km/h (1 Bft) SO 142 0 min 0,000 mm 0,0 UV-I 0 W/m 12,7 C 16,0 C 6,4 km/h (2 Bft) 97,56 %
13.09.2017 23:24 15,9 C 17,2 C 81 % 1008,7 hPa 0,0 l/m 2,8 km/h (1 Bft) S-SO 157 0 min 0,000 mm 0,0 UV-I 0 W/m 12,6 C 15,9 C 4,8 km/h (1 Bft) 96,23 %
13.09.2017 23:26 15,9 C 17,2 C 81 % 1008,7 hPa 0,0 l/m 4,7 km/h (1 Bft) S-SO 156 0 min 0,000 mm 0,0 UV-I 0 W/m 12,6 C 15,9 C 9,7 km/h (2 Bft) 95,12 %
13.09.2017 23:28 15,8 C 17,2 C 81 % 1008,6 hPa 0,0 l/m 6,2 km/h (2 Bft) O-SO 122 0 min 0,000 mm 0,0 UV-I 0 W/m 12,5 C 15,8 C 11,3 km/h (2 Bft) 98,11 %
13.09.2017 23:30 15,8 C 17,2 C 81 % 1008,7 hPa 0,0 l/m 4,9 km/h (1 Bft) S 175 0 min 0,000 mm 0,0 UV-I 0 W/m 12,5 C 15,8 C 8,0 km/h (2 Bft) 97,37 %
13.09.2017 23:32 15,8 C 17,2 C 81 % 1008,7 hPa 0,0 l/m 6,5 km/h (2 Bft) S 173 0 min 0,000 mm 0,0 UV-I 0 W/m 12,5 C 15,8 C 9,7 km/h (2 Bft) 98,00 %
13.09.2017 23:34 15,8 C 17,2 C 81 % 1008,6 hPa 0,0 l/m 4,8 km/h (1 Bft) S 189 0 min 0,000 mm 0,0 UV-I 0 W/m 12,5 C 15,8 C 9,7 km/h (2 Bft) 98,11 %
13.09.2017 23:36 15,8 C 17,2 C 81 % 1008,6 hPa 0,0 l/m 5,8 km/h (2 Bft) SW 231 0 min 0,000 mm 0,0 UV-I 0 W/m 12,5 C 15,8 C 8,0 km/h (2 Bft) 92,31 %
13.09.2017 23:38 15,8 C 17,2 C 81 % 1008,6 hPa 0,0 l/m 6,3 km/h (2 Bft) SW 214 0 min 0,000 mm 0,0 UV-I 0 W/m 12,5 C 15,8 C 9,7 km/h (2 Bft) 98,53 %
13.09.2017 23:40 15,7 C 17,2 C 81 % 1008,6 hPa 0,0 l/m 4,9 km/h (1 Bft) S-SW 213 0 min 0,000 mm 0,0 UV-I 0 W/m 12,4 C 15,7 C 9,7 km/h (2 Bft) 97,37 %
13.09.2017 23:42 15,7 C 17,2 C 81 % 1008,5 hPa 0,0 l/m 6,1 km/h (2 Bft) S-SO 161 0 min 0,000 mm 0,0 UV-I 0 W/m 12,4 C 15,7 C 11,3 km/h (2 Bft) 98,21 %
13.09.2017 23:44 15,7 C 17,2 C 81 % 1008,5 hPa 0,0 l/m 4,8 km/h (1 Bft) S-SW 207 0 min 0,000 mm 0,0 UV-I 0 W/m 12,4 C 15,7 C 9,7 km/h (2 Bft) 97,37 %
13.09.2017 23:46 15,6 C 17,2 C 81 % 1008,6 hPa 0,0 l/m 6,0 km/h (2 Bft) SW 218 0 min 0,000 mm 0,0 UV-I 0 W/m 12,3 C 15,6 C 8,0 km/h (2 Bft) 100,00 %
13.09.2017 23:48 15,6 C 17,2 C 81 % 1008,6 hPa 0,0 l/m 5,0 km/h (1 Bft) S-SO 160 0 min 0,000 mm 0,0 UV-I 0 W/m 12,3 C 15,6 C 11,3 km/h (2 Bft) 96,00 %
13.09.2017 23:50 15,4 C 17,2 C 82 % 1008,5 hPa 0,0 l/m 3,7 km/h (1 Bft) S-SW 206 0 min 0,000 mm 0,0 UV-I 0 W/m 12,3 C 15,4 C 6,4 km/h (2 Bft) 100,00 %
13.09.2017 23:52 15,4 C 17,2 C 82 % 1008,5 hPa 0,0 l/m 4,6 km/h (1 Bft) S-SW 206 0 min 0,000 mm 0,0 UV-I 0 W/m 12,3 C 15,4 C 6,4 km/h (2 Bft) 100,00 %
13.09.2017 23:54 15,3 C 17,2 C 82 % 1008,6 hPa 0,0 l/m 3,8 km/h (1 Bft) S 183 0 min 0,000 mm 0,0 UV-I 0 W/m 12,2 C 15,3 C 8,0 km/h (2 Bft) 98,11 %
13.09.2017 23:56 15,2 C 17,2 C 83 % 1008,5 hPa 0,0 l/m 3,7 km/h (1 Bft) S-SO 168 0 min 0,000 mm 0,0 UV-I 0 W/m 12,3 C 15,2 C 8,0 km/h (2 Bft) 100,00 %
13.09.2017 23:58 15,2 C 16,7 C 83 % 1008,5 hPa 0,0 l/m 4,4 km/h (1 Bft) S-SO 168 0 min 0,000 mm 0,0 UV-I 0 W/m 12,3 C 15,2 C 6,4 km/h (2 Bft) 100,00 %
_ Min-Zeit 07:02 04:12 11:28 23:42 - 17:58 - - - - - - 11:28 01:10 17:58 17:00
Minimum _ 10,3 C 16,7 C 49 % 1008,5 hPa - 0,0 km/h (0 Bft) - - - - - - 6,6 C 6,6 C 0,0 km/h (0 Bft) 91,49 %
_ Max-Zeit 14:04 00:00 18:44 02:48 00:00 00:34 - - 13:59 11:00 11:16 10:32 18:44 14:06 00:26 00:08
Maximum _ 18,1 C 17,2 C 88 % 1015,6 hPa 0,0 l/m 17,8 km/h
SW (3 Bft)
- - 3 min 0,305 mm 3,0 UV-I 700 W/m 14,2 C 18,1 C 27,4 km/h
SW (4 Bft)
100,00 %
Durchschnitt _ 15,0 C 17,0 C 74 % 1012,3 hPa #0,0 l/m 6,0 km/h (2 Bft) SW - #5:11 h #2,184 mm 1,6 UV-I 229 W/m 10,2 C 14,3 C 10,0 km/h (2 Bft) 98,08 %